[[{"header":{"parameterUnit":"m.s-1","parameterCategory":1,"la1":30.6,"la2":29.2853,"lo1":-89.7004,"lo2":-87.6739,"dx":0.0162,"dy":0.0183,"nx":112,"ny":82,"refTime":"2023-01-06T06:00:00:Z","depth":0,"parameterNumber":2,"parameterNumberName":"U-component_of_WINDS"},"data":[0.0,0.0,0.0,0.0,0.0,0.0,0.0,0.0,0.0,0.0,0.0,0.0,0.0,0.0,0.0,0.0,0.0,0.0,0.0,0.0,0.0,0.0,0.0,0.0,0.0,0.0,0.0,0.0,0.0,0.0,0.0,0.0,0.0,0.0,0.0,0.0,0.0,0.0,0.0,0.0,0.0,0.0,0.0,0.0,0.0,0.0,0.0,0.0,0.0,0.0,0.0,0.0,0.0,0.0,0.0,0.0,0.0,0.0,0.0,0.0,0.0,0.0,0.0,0.0,0.0,0.0,0.0,0.0,0.0,0.0,0.0,0.0,0.0,0.0,0.0,0.0,0.0,0.0,0.0,0.0,0.0,0.0,0.0,0.0,0.0,0.0,0.0,0.0,0.0,0.0,1.7046,1.9183,2.2991,2.6,2.7458,2.7625,2.5644,2.1156,0.0,0.0,0.0,0.0,0.0,0.0,0.0,0.0,0.0,0.0,0.0,0.0,0.0,0.0,0.0,0.0,0.0,0.0,0.0,0.0,0.0,0.0,0.0,0.0,0.0,0.0,0.0,0.0,0.0,0.0,0.0,0.0,0.0,0.0,0.0,0.0,0.0,0.0,0.0,0.0,0.0,0.0,0.0,0.0,0.0,0.0,0.0,0.0,0.0,0.0,0.0,0.0,0.0,0.0,0.0,0.0,0.0,0.0,0.0,0.0,0.0,0.0,0.0,0.0,0.0,0.0,0.0,0.0,0.0,0.0,0.0,0.0,0.0,0.0,0.0,0.0,0.0,0.0,0.0,0.0,0.0,0.0,0.0,0.0,0.0,0.0,0.0,0.0,0.0,0.0,0.0,0.0,0.0,0.0,0.0,0.0,0.0,0.0,0.0,0.0,0.0,0.0,0.0,0.0,1.7131,2.2972,2.4682,2.6,2.7458,2.7625,2.5854,2.1799,0.0,0.0,0.0,0.0,0.0,0.0,0.0,0.0,0.0,0.0,0.0,0.0,0.0,0.0,0.0,0.0,0.0,0.0,0.0,0.0,0.0,0.0,0.0,0.0,0.0,0.0,0.0,0.0,0.0,0.0,0.0,0.0,0.0,0.0,0.0,0.0,0.0,0.0,0.0,0.0,0.0,0.0,0.0,0.0,0.0,0.0,0.0,0.0,0.0,0.0,0.0,0.0,0.0,0.0,0.0,0.0,0.0,0.0,0.0,0.0,0.0,0.0,0.0,0.0,0.0,0.0,0.0,0.0,0.0,0.0,0.0,0.0,0.0,0.0,0.0,0.0,0.0,0.0,0.0,0.0,0.0,0.0,0.0,0.0,0.0,0.0,0.0,0.0,0.0,0.0,0.0,0.0,0.0,0.0,0.0,0.0,0.0,0.0,0.0,0.0,0.0,0.0,0.0,1.6176,1.9491,2.4434,2.5614,2.6443,2.7524,2.7625,2.5734,2.144,1.9648,0.0,0.0,0.0,0.0,0.0,0.0,0.0,0.0,0.0,0.0,0.0,0.0,0.0,0.0,0.0,0.0,0.0,0.0,0.0,0.0,0.0,0.0,0.0,0.0,0.0,0.0,0.0,0.0,0.0,0.0,0.0,0.0,0.0,0.0,0.0,0.0,0.0,0.0,0.0,0.0,0.0,0.0,0.0,0.0,0.0,0.0,0.0,0.0,0.0,0.0,0.0,0.0,0.0,0.0,0.0,0.0,0.0,0.0,0.0,0.0,0.0,0.0,0.0,0.0,0.0,0.0,0.0,0.0,0.0,0.0,0.0,0.0,0.0,0.0,0.0,0.0,0.0,0.0,0.0,0.0,0.0,0.0,0.0,0.0,0.0,0.0,0.0,0.0,0.0,0.0,0.0,0.0,0.0,0.0,0.0,0.0,0.0,0.0,0.0,0.0,0.0,0.0,1.9133,2.1936,2.5273,2.6281,2.7059,2.7763,2.753,2.545,2.0991,1.9507,0.0,0.0,0.0,0.0,0.0,0.0,0.0,0.0,0.0,0.0,0.0,0.0,0.0,0.0,0.0,0.0,0.0,0.0,0.0,0.0,0.0,0.0,0.0,0.0,0.0,0.0,0.0,0.0,0.0,0.0,0.0,0.0,0.0,0.0,0.0,0.0,0.0,0.0,0.0,0.0,0.0,0.0,0.0,0.0,0.0,0.0,0.0,0.0,0.0,0.0,0.0,0.0,0.0,0.0,0.0,0.0,0.0,0.0,0.0,0.0,0.0,0.0,0.0,0.0,0.0,0.0,0.0,0.0,0.0,0.0,0.0,0.0,0.0,0.0,0.0,0.0,0.0,0.0,0.0,0.0,0.0,0.0,0.0,0.0,0.0,0.0,0.0,0.0,0.0,0.0,0.0,0.0,0.0,0.0,0.0,0.0,0.0,0.0,0.0,0.0,0.0,0.0,1.953,2.3385,2.6018,2.6974,2.7729,2.8465,2.738,2.4956,2.0961,1.9459,0.0,0.0,0.0,0.0,0.0,0.0,0.0,0.0,0.0,0.0,0.0,0.0,0.0,0.0,0.0,0.0,0.0,0.0,0.0,0.0,0.0,0.0,0.0,0.0,0.0,0.0,0.0,0.0,0.0,0.0,0.0,0.0,0.0,0.0,0.0,0.0,0.0,0.0,0.0,0.0,0.0,0.0,0.0,0.0,0.0,0.0,0.0,0.0,0.0,0.0,0.0,0.0,0.0,0.0,0.0,0.0,0.0,0.0,0.0,0.0,0.0,0.0,0.0,0.0,0.0,0.0,0.0,0.0,0.0,0.0,0.0,0.0,0.0,0.0,0.0,0.0,0.0,0.0,0.0,0.0,0.0,0.0,0.0,0.0,0.0,0.0,0.0,0.0,0.0,0.0,0.0,0.0,0.0,0.0,0.0,0.0,0.0,0.0,0.0,0.0,0.0,0.0,1.9807,2.3521,2.6572,2.8037,2.8758,2.8637,2.8143,2.5615,2.0408,0.0,0.0,0.0,0.0,0.0,0.0,0.0,0.0,0.0,0.0,0.0,0.0,0.0,0.0,0.0,0.0,0.0,0.0,0.0,0.0,0.0,0.0,0.0,0.0,0.0,0.0,0.0,0.0,0.0,0.0,0.0,0.0,0.0,0.0,0.0,0.0,0.0,0.0,0.0,0.0,0.0,0.0,0.0,0.0,0.0,0.0,0.0,0.0,0.0,0.0,0.0,0.0,0.0,0.0,0.0,0.0,0.0,0.0,0.0,0.0,0.0,0.0,0.0,0.0,0.0,0.0,0.0,0.0,0.0,0.0,0.0,0.0,0.0,0.0,0.0,0.0,0.0,0.0,0.0,0.0,0.0,0.0,0.0,0.0,0.0,0.0,0.0,0.0,0.0,0.0,0.0,0.0,0.0,0.0,0.0,0.0,0.0,0.0,0.0,0.0,0.0,0.0,1.6516,2.0792,2.4577,2.7311,2.8966,2.9699,2.9235,2.8637,2.5914,2.0363,0.0,0.0,0.0,0.0,0.0,0.0,0.0,0.0,0.0,0.0,0.0,0.0,0.0,0.0,0.0,0.0,0.0,0.0,0.0,0.0,0.0,0.0,0.0,0.0,0.0,0.0,0.0,0.0,0.0,0.0,0.0,0.0,0.0,0.0,0.0,0.0,0.0,0.0,0.0,0.0,0.0,0.0,0.0,0.0,0.0,0.0,0.0,0.0,0.0,0.0,0.0,0.0,0.0,0.0,0.0,0.0,0.0,0.0,0.0,0.0,0.0,0.0,0.0,0.0,0.0,0.0,0.0,0.0,0.0,0.0,0.0,0.0,0.0,0.0,0.0,0.0,0.0,0.0,0.0,0.0,0.0,0.0,0.0,0.0,0.0,0.0,0.0,0.0,0.0,0.0,0.0,0.0,0.0,0.0,0.0,0.0,0.0,0.0,0.0,0.0,0.0,0.0,1.6959,2.2606,2.7004,2.8281,2.9699,3.0507,3.0507,2.8727,2.563,0.0,0.0,0.0,0.0,0.0,0.0,0.0,0.0,0.0,0.0,0.0,0.0,0.0,0.0,0.0,0.0,0.0,0.0,0.0,0.0,0.0,0.0,0.0,0.0,0.0,0.0,0.0,0.0,0.0,0.0,0.0,0.0,0.0,0.0,0.0,0.0,0.0,0.0,0.0,0.0,0.0,0.0,0.0,0.0,0.0,0.0,0.0,0.0,0.0,0.0,0.0,0.0,0.0,0.0,0.0,0.0,0.0,0.0,0.0,0.0,0.0,0.0,0.0,0.0,0.0,0.0,0.0,0.0,0.0,0.0,0.0,0.0,0.0,0.0,0.0,0.0,0.0,0.0,0.0,0.0,0.0,0.0,0.0,0.0,0.0,0.0,0.0,0.0,0.0,0.0,0.0,0.0,0.0,0.0,0.0,0.0,0.0,0.0,0.0,0.0,0.0,0.0,0.0,1.7843,2.2995,2.7173,2.8857,3.0336,3.1031,3.0552,2.9968,2.7096,2.1096,0.0,0.0,0.0,0.0,0.0,0.0,0.0,0.0,0.0,0.0,0.0,0.0,0.0,0.0,0.0,0.0,0.0,0.0,0.0,0.0,0.0,0.0,0.0,0.0,0.0,0.0,0.0,0.0,0.0,0.0,0.0,0.0,0.0,0.0,0.0,0.0,0.0,0.0,0.0,0.0,0.0,0.0,0.0,0.0,0.0,0.0,0.0,0.0,0.0,0.0,0.0,0.0,0.0,0.0,0.0,0.0,0.0,0.0,0.0,0.0,0.0,0.0,0.0,0.0,0.0,0.0,0.0,0.0,0.0,0.0,0.0,0.0,0.0,0.0,0.0,0.0,0.0,0.0,0.0,0.0,0.0,0.0,0.0,0.0,0.0,0.0,0.0,0.0,0.0,0.0,0.0,0.0,0.0,0.0,0.0,0.0,0.0,0.0,0.0,0.0,0.0,0.0,1.8358,2.3428,2.7484,2.923,3.0671,3.136,3.0941,3.0657,2.8368,2.337,0.0,0.0,0.0,0.0,0.0,0.0,0.0,0.0,0.0,0.0,0.0,0.0,0.0,0.0,0.0,0.0,0.0,0.0,0.0,0.0,0.0,0.0,0.0,0.0,0.0,0.0,0.0,0.0,0.0,0.0,0.0,0.0,0.0,0.0,0.0,0.0,0.0,0.0,0.0,0.0,0.0,0.0,0.0,0.0,0.0,0.0,0.0,0.0,0.0,0.0,0.0,0.0,0.0,0.0,0.0,0.0,0.0,0.0,0.0,0.0,0.0,0.0,0.0,0.0,0.0,0.0,0.0,0.0,0.0,0.0,0.0,0.0,0.0,0.0,0.0,0.0,0.0,0.0,0.0,0.0,0.0,0.0,0.0,0.0,0.0,0.0,0.0,0.0,0.0,0.0,0.0,0.0,0.0,0.0,0.0,0.0,0.0,0.0,0.0,0.0,0.0,0.0,1.8545,2.3778,2.7896,2.953,3.0836,3.1556,3.1556,3.1046,2.952,2.6767,0.0,0.0,0.0,0.0,0.0,0.0,0.0,0.0,0.0,0.0,0.0,0.0,0.0,0.0,0.0,0.0,0.0,0.0,0.0,0.0,0.0,0.0,0.0,0.0,0.0,0.0,0.0,0.0,0.0,0.0,0.0,0.0,0.0,0.0,0.0,0.0,0.0,0.0,0.0,0.0,0.0,0.0,0.0,0.0,0.0,0.0,0.0,0.0,0.0,0.0,0.0,0.0,0.0,0.0,0.0,0.0,0.0,0.0,0.0,0.0,0.3649,0.3863,0.0,0.0,0.0,0.0,0.0,0.0,0.0,0.0,0.0,0.0,0.0,0.0,0.0,0.0,0.0,0.0,0.0,0.0,0.0,0.0,0.0,0.0,0.0,0.0,0.0,0.0,0.0,0.0,0.0,0.0,0.0,0.0,0.0,0.0,0.0,0.0,0.0,0.0,0.0,0.0,1.8602,2.3778,2.8052,3.0071,3.1509,3.2302,3.2302,3.2168,3.0507,2.6826,2.5315,0.0,0.0,0.0,0.0,0.0,0.0,0.0,0.0,0.0,0.0,0.0,0.0,0.0,0.0,0.0,0.0,0.0,0.0,0.0,0.0,0.0,0.0,0.0,0.0,0.0,0.0,0.0,0.0,0.0,0.0,0.0,0.0,0.0,0.0,0.0,0.0,0.0,0.0,0.0,0.0,0.0,0.0,0.0,0.0,0.0,0.0,0.0,0.0,0.0,0.0,0.0,0.0,0.0,0.0,0.0,0.0,0.0,0.0,0.0,1.1121,0.6703,0.0,0.0,0.0,0.0,0.0,0.0,0.0,0.0,0.0,0.0,0.0,0.0,0.0,0.0,0.0,0.0,0.0,0.0,0.0,0.0,0.0,0.0,0.0,0.0,0.0,0.0,0.0,0.0,0.0,0.0,0.0,0.0,0.0,0.0,0.0,0.0,0.0,0.0,0.0,0.0,1.8588,2.403,2.8493,3.0294,3.1988,3.2976,3.2976,3.2976,3.2108,3.0043,2.7799,0.0,0.0,0.0,0.0,0.0,0.0,0.0,0.0,0.0,0.0,0.0,0.0,0.0,0.0,0.0,0.0,0.0,0.0,0.0,0.0,0.0,0.0,0.0,0.0,0.0,0.0,0.0,0.0,0.0,0.0,0.0,0.0,0.0,0.0,0.0,0.0,0.0,0.0,0.0,0.0,0.0,0.0,0.0,0.0,0.0,0.0,0.0,0.0,0.0,0.0,0.0,0.0,0.0,2.0192,2.6261,2.6266,2.7186,2.7625,2.725,2.1008,1.3133,0.5254,1.1129,0.0,0.0,0.0,0.0,0.0,0.0,0.0,0.0,0.0,0.0,0.0,0.0,0.0,0.0,0.0,0.0,0.0,0.0,0.0,0.0,0.0,0.0,2.2886,2.1054,2.0677,2.0748,2.0737,0.0,0.0,0.0,0.0,0.0,0.0,0.0,0.0,0.0,0.0,0.0,1.9216,2.4803,2.9111,3.0708,3.2542,3.3664,3.3664,3.3664,3.3619,3.3499,3.0417,2.8098,0.0,0.0,0.0,0.0,0.0,0.0,0.0,0.0,0.0,0.0,0.0,0.0,0.0,0.0,0.0,0.0,0.0,0.0,0.0,0.0,0.0,0.0,0.0,0.0,0.0,0.0,0.0,0.0,0.0,0.0,0.0,0.0,1.0074,0.8911,0.0,0.0,0.0,0.0,0.0,0.0,0.0,0.0,0.0,0.0,0.0,0.0,0.0,1.0786,2.4275,1.9857,1.7685,1.7916,2.0001,2.0983,2.1053,2.5548,2.7625,2.755,2.6519,0.0,2.2836,0.8176,0.0,0.0,0.0,0.0,0.0,0.0,0.0,0.0,0.0,0.0,0.0,0.0,0.0,0.0,0.0,0.0,0.0,0.0,0.0,0.0,0.0,0.0,2.2715,2.3998,2.4582,2.4806,2.4837,2.1524,1.8295,1.7426,1.7578,1.6731,0.0,0.0,0.0,0.0,0.0,0.0,2.1993,2.6454,3.0017,3.199,3.3514,3.4352,3.4352,3.4352,3.4098,3.3529,3.3006,3.139,2.8457,2.6722,0.0,0.0,0.0,0.0,0.0,0.0,0.0,0.0,0.0,0.0,0.0,0.0,0.0,0.0,0.0,0.0,0.0,0.0,0.0,0.0,0.0,0.0,0.0,0.0,0.0,0.0,0.0,0.0,0.0,0.6862,0.7241,0.6712,0.5975,0.504,0.0,0.0,0.0,0.0,0.0,0.0,0.0,0.0,0.0,2.25,1.9243,1.9222,2.3197,2.3772,2.4107,2.4219,2.4265,2.4267,2.4311,2.6568,2.7625,2.7625,2.7625,2.7625,2.6981,1.8832,1.474,1.3635,0.0,0.0,0.0,0.0,1.4648,1.5248,1.6446,1.6542,1.6269,1.711,0.0,0.0,0.0,0.0,0.0,0.0,0.0,1.5949,1.9843,2.1797,2.3202,2.4938,2.545,2.5704,2.6078,2.4866,2.3056,2.0917,2.0363,1.8983,1.4978,1.5616,0.0,0.0,0.0,2.1485,2.3885,2.7437,3.0476,3.2466,3.4095,3.5055,3.5055,3.5055,3.4936,3.4637,3.4262,3.341,3.1958,2.9205,2.5839,0.0,0.0,0.0,0.0,0.0,0.0,0.0,0.0,0.0,0.0,0.0,0.0,0.0,0.0,0.0,0.0,0.0,0.0,0.0,0.0,0.0,0.0,0.0,0.0,0.0,0.0,0.0,0.0,0.6073,0.796,0.8968,0.914,0.8729,0.0,0.0,0.0,0.0,0.0,0.0,1.5403,1.5833,1.9641,2.7368,2.7591,2.5746,2.1827,2.5682,2.7625,2.7625,2.7625,2.7625,2.7625,2.7754,2.7844,2.7844,2.8023,2.8135,2.8105,2.776,2.4954,2.092,2.1279,1.9991,1.7995,1.8458,1.8927,1.9549,2.0692,2.1113,2.1098,2.0659,1.9689,1.7969,1.4293,0.0,0.0,0.0,0.0,2.0666,2.3569,2.4051,2.4121,2.5516,2.6123,2.6512,2.6991,2.7619,2.731,2.4507,2.3819,2.236,1.8056,1.9207,0.0,1.7489,2.0939,2.449,2.6469,2.916,3.1482,3.3043,3.4618,3.5504,3.5504,3.5504,3.5579,3.5744,3.5115,3.4816,3.4981,3.1854,2.9011,2.6677,0.0,0.0,0.0,0.0,0.0,0.0,0.0,0.0,0.0,0.0,0.0,0.0,0.0,0.0,0.0,0.0,0.0,0.0,0.0,0.0,0.0,0.0,0.0,0.0,0.0,0.0,0.0,0.0,0.0,2.216,2.2613,0.0,0.0,0.0,0.0,1.2922,1.5482,2.0139,2.6421,2.1888,2.1685,2.7428,2.7612,2.7495,2.7215,2.7455,2.7625,2.7625,2.7625,2.7625,2.764,2.8248,2.8547,2.8592,2.9205,2.9475,2.9385,2.815,2.5804,2.2963,2.2094,2.0574,1.8837,1.8873,1.977,2.0985,2.0986,2.1384,2.1697,2.0859,2.2154,2.3805,2.2695,2.1935,0.0,0.0,2.4238,2.3371,2.508,2.5454,2.5581,2.6361,2.7515,2.8457,2.8487,2.9026,2.9056,2.7655,2.8338,2.7867,2.3555,0.0,2.4505,2.3667,2.4904,2.7193,3.0655,3.2355,3.3602,3.4337,3.507,3.5504,3.5504,3.5504,3.5774,3.6402,3.5818,3.5729,3.6357,3.4966,3.2677,2.9445,2.7964,0.0,0.0,0.0,0.0,0.0,0.0,0.0,0.0,0.0,0.0,0.0,0.0,0.0,0.0,0.0,0.0,0.0,0.0,0.0,0.0,0.0,0.0,0.0,0.0,0.0,0.0,0.0,0.0,1.2019,2.0444,0.0,2.3416,2.4231,2.3782,2.1142,2.2313,2.4422,2.745,2.5329,2.5097,2.7501,2.7618,2.7625,2.7625,2.7625,2.785,2.8233,2.8233,2.8457,2.8876,2.9116,2.922,2.925,2.949,2.9579,2.9549,2.9056,2.8282,2.7337,2.7365,2.6746,2.5828,2.6213,2.6729,2.7179,2.6945,2.7408,2.815,2.8676,2.9253,2.9365,2.7415,2.6588,2.6383,2.6462,2.6498,2.6708,2.7487,2.8196,2.868,2.8574,2.919,2.9953,3.0387,3.1001,3.145,3.139,3.0731,2.9325,2.6519,2.7809,2.8551,2.6629,2.8527,3.0817,3.2507,3.3449,3.4244,3.5055,3.5869,3.6319,3.6319,3.6537,3.6821,3.706,3.6866,3.6836,3.7075,3.6611,3.522,3.2781,3.2258,2.8487,0.0,0.0,0.0,0.0,0.0,0.0,0.0,0.0,0.0,0.0,0.0,0.0,0.0,0.0,0.0,0.0,0.0,0.0,0.0,0.0,0.0,0.0,0.0,0.0,0.0,0.808,0.8902,1.2703,2.1707,2.747,2.7175,2.6374,2.5855,2.585,2.6131,2.6704,2.7556,2.7189,2.7126,2.761,2.7625,2.773,2.7919,2.7919,2.8263,2.8936,2.8936,2.916,2.9594,2.9804,2.9894,2.9909,3.0133,3.0238,3.0238,3.0238,3.0238,3.0248,3.0183,2.9963,2.9619,2.9856,3.0171,3.0535,3.1259,3.1876,3.2513,3.3169,3.3301,3.2798,3.068,3.0387,3.0542,2.9343,2.973,3.0418,3.0133,3.0625,3.0982,3.0087,3.0552,3.1315,3.1764,3.2557,3.3305,3.3739,3.2572,3.1031,2.9505,3.0881,3.145,2.9235,3.1345,3.3245,3.3469,3.4334,3.5185,3.5789,3.6558,3.6978,3.6978,3.6678,3.6806,3.7689,3.6911,3.6821,3.7704,3.6671,3.5474,3.4173,3.3275,2.9699,2.3325,0.0,0.0,0.0,0.0,0.0,0.0,0.0,0.0,0.0,0.0,0.0,0.0,0.0,0.0,0.0,0.0,0.0,0.0,0.0,0.0,0.0,0.0,0.0,1.4788,1.1695,1.3836,2.6145,2.758,2.7251,2.6414,2.6334,2.6316,2.635,2.6351,2.6711,2.7549,2.7605,2.764,2.7625,2.7655,2.7949,2.8592,2.8622,2.8966,2.9609,2.9609,2.9624,2.9669,3.0253,3.0537,3.0567,3.124,3.1482,3.1482,3.1482,3.1482,3.1347,3.0133,2.9678,2.9594,2.9178,2.9541,3.0624,3.3326,3.4219,3.4168,3.3651,3.3829,3.4015,3.2771,3.3389,3.4387,3.3677,3.3996,3.4315,3.2998,3.2656,3.2299,3.087,3.1599,3.2572,3.2572,3.3589,3.4502,3.4502,3.3993,3.3365,3.2721,3.314,3.3125,3.1795,3.3305,0.0,3.3664,3.5295,3.6492,3.6432,3.6985,3.7345,3.7345,3.5624,3.5654,3.8257,3.6028,3.5774,3.8317,3.537,3.3664,3.3649,3.1031,2.8697,2.6707,0.0,0.0,0.0,0.0,0.0,0.0,0.0,0.0,0.0,0.0,0.0,0.0,0.0,0.0,0.0,0.0,0.0,0.0,0.0,0.0,0.0,1.6,1.8519,2.0845,2.1881,2.3714,2.7178,2.7627,2.7498,2.7263,2.7222,2.725,2.7259,2.7265,2.737,2.7605,2.806,2.8083,2.764,2.8517,2.8891,2.8607,2.9071,2.9624,3.0253,3.0253,3.0507,3.1001,3.118,3.1255,3.127,3.1392,3.1482,3.1482,3.1482,3.1482,3.1437,3.1135,3.1001,3.1058,3.1612,3.2352,3.3321,3.4729,3.5226,3.5193,3.5047,3.5081,3.5159,3.4793,3.4996,3.5267,3.5064,3.4781,3.4382,3.3544,3.3297,3.3029,3.2163,3.2976,3.3933,3.3933,3.4622,3.522,3.522,3.507,3.4891,3.4711,3.4831,3.4831,3.4472,3.528,3.5863,3.5684,3.6537,3.6611,3.5175,3.5624,3.6028,3.6028,3.5968,3.6851,3.9005,3.8452,3.8392,3.911,3.8272,3.7554,3.7045,3.3529,3.0956,0.0,0.0,0.0,0.0,0.0,0.0,0.0,0.0,0.0,0.0,0.0,0.0,0.0,0.0,0.0,0.0,0.0,0.0,0.0,0.0,0.0,0.0,1.5251,1.9108,2.3036,2.5911,2.7458,2.7072,2.7372,2.7625,2.7625,2.7625,2.7625,2.7625,2.7844,2.8008,2.8008,2.8637,2.8831,2.8427,2.9175,2.952,2.94,2.9774,3.0298,3.0941,3.0941,3.115,3.1482,3.1482,3.1482,3.1482,3.1482,3.1482,3.1524,3.1486,3.1516,3.1482,0.0,0.0,0.0,0.0,3.4068,3.4949,3.5396,3.5622,3.5673,3.5994,3.6096,3.6163,3.6485,3.6569,3.6569,3.6569,3.6256,3.5824,3.5132,3.5133,3.5118,3.4472,3.485,3.5398,3.5398,3.5446,3.5504,3.5504,3.5504,0.0,3.5863,3.5923,3.5729,3.516,3.6103,3.6671,3.6148,3.7105,3.7389,3.6237,3.6731,3.7135,3.7135,3.6731,0.0,0.0,0.0,3.8063,3.7793,3.7778,0.0,0.0,0.0,3.2946,3.3006,3.0821,0.0,0.0,2.5734,2.4971,0.0,0.0,0.0,0.0,0.0,0.0,0.0,0.0,0.0,0.0,0.0,0.0,0.0,0.0,0.0,0.0,1.4673,1.8253,2.3029,2.5841,2.7164,2.6394,2.7018,2.7535,2.761,2.7625,2.7655,2.773,2.8248,2.8637,2.8712,2.9325,0.0,0.0,0.0,3.0028,3.0507,3.0582,3.0926,3.1482,3.1482,3.1482,3.1482,3.1482,3.1482,3.1482,3.1482,3.1482,3.1495,3.1511,3.1647,3.1832,3.1682,3.2277,3.3313,3.417,3.4998,3.5735,3.5739,0.0,0.0,3.6688,3.6907,3.7043,3.7702,3.7905,3.7905,3.7905,3.7905,3.7728,3.697,3.7242,3.7518,3.6846,3.6582,3.6508,3.6508,3.5943,3.5534,3.5609,3.5609,3.5818,3.6477,3.6537,3.6103,3.4981,3.6357,3.7105,3.5968,3.7404,3.8422,3.8197,3.8721,0.0,3.9095,3.7479,3.736,3.9409,3.7958,3.6776,3.6193,3.6163,3.5878,3.5265,3.4681,3.522,3.6926,3.6342,3.6013,3.5789,2.9011,2.7156,0.0,0.0,0.0,0.0,0.0,0.0,0.0,0.0,0.0,0.0,0.0,0.0,0.0,0.0,0.0,1.4016,1.9985,2.4446,2.4269,2.5439,2.63,2.6288,2.6564,2.6991,2.7565,2.7625,2.7799,2.8368,2.8532,2.8831,2.937,2.9983,3.0103,2.9594,3.0612,3.0941,3.0507,3.1061,3.1405,3.1482,3.1482,0.0,3.1482,3.1482,3.1482,3.1482,3.1482,3.1482,3.1524,3.1492,3.2429,3.3752,3.2964,3.3649,3.5087,3.5278,3.5845,3.6578,3.6586,3.6958,3.7483,3.7652,3.7686,3.7719,3.7872,3.7905,0.0,3.7905,3.7905,3.7728,3.697,3.6857,3.6734,3.599,3.5799,3.5733,3.5733,3.5619,3.5669,3.6193,3.6297,3.6492,3.712,3.6821,3.6567,3.6806,3.7614,3.8108,3.7868,3.8646,3.8616,3.703,3.6971,3.7045,3.7045,3.6716,3.7554,4.0053,4.0352,4.0382,4.0247,4.0247,4.0187,4.0053,3.9918,3.9783,3.9649,3.9514,3.917,3.8571,3.504,3.3963,0.0,0.0,0.0,0.0,0.0,0.0,0.0,0.0,0.0,0.0,0.0,0.8748,0.8931,0.0,1.4438,1.7023,2.2647,2.6201,2.4768,2.5138,2.5675,2.5923,2.6321,2.6991,2.7993,2.8083,2.8368,2.9041,2.9385,2.9699,3.0028,3.0657,3.0881,3.0567,3.1195,3.1317,3.1016,3.1302,3.1482,3.1482,3.1482,3.1482,3.1482,3.1482,3.1482,3.1482,3.1482,3.1498,3.153,3.1976,3.3249,3.4889,3.4457,3.5107,3.6257,3.6619,3.7009,3.7347,3.7347,3.7584,3.7973,3.8328,3.8447,3.8514,3.8886,3.8988,3.8988,3.8988,3.8988,3.8806,3.8046,3.7817,3.76,3.6859,3.6398,3.6146,3.6481,3.628,3.6193,3.6821,3.6941,3.715,3.7793,3.7644,3.7539,3.7853,3.8482,3.8901,3.8901,3.92,3.905,3.8063,3.7958,3.8093,3.8422,3.8751,3.9499,4.0816,4.119,4.1384,4.1384,4.1384,4.1384,4.1384,4.1384,4.122,4.0891,4.0891,4.0726,4.0367,3.905,3.8272,0.0,0.0,0.0,0.0,0.0,0.0,0.0,0.9393,1.0339,1.2414,1.3414,1.4076,1.4712,1.4341,1.54,1.9867,2.4039,2.6248,2.4965,2.5032,2.5312,2.5574,2.6078,2.6976,2.8457,2.8607,2.8921,2.9699,3.0223,3.0567,3.0702,3.124,3.1482,3.1482,3.1482,3.1482,3.1482,3.1482,3.1482,3.1482,3.1482,3.1482,3.1482,3.1482,3.1614,3.1749,3.1588,3.1664,3.2005,3.3276,3.4666,3.6149,3.6438,3.6918,3.7469,3.778,3.799,3.8125,3.8125,3.821,3.843,3.9005,3.9208,3.9309,3.9901,4.007,4.007,3.9901,3.9952,3.9901,3.9086,3.8898,3.8737,3.8129,3.7518,3.7095,3.7461,3.7242,3.7037,3.7479,3.7599,3.7808,3.8482,3.8586,3.8586,3.8586,3.9065,3.9424,3.9424,3.9424,3.9469,3.9589,3.9604,3.9873,4.0531,4.119,4.1564,4.1564,4.1683,4.1758,4.1758,4.1758,4.1758,4.1758,4.1758,4.1758,4.1758,4.1758,4.1758,4.1758,4.1758,4.113,1.7829,2.2338,2.5204,2.0107,1.8727,1.8655,0.0,1.7663,1.6612,1.7237,1.7542,1.7516,1.7036,1.9116,2.1116,2.1865,2.4626,2.635,2.5287,2.5166,2.5312,2.5574,2.5674,2.6467,2.8412,2.8607,2.9101,3.0313,3.0462,3.0776,3.139,3.1437,3.1482,3.1482,3.1482,3.1482,3.1482,3.1482,3.1482,3.1482,3.1482,3.1482,3.1482,3.1482,3.1913,3.2616,3.1854,3.2178,3.3502,3.6132,3.7641,3.8355,3.9237,3.9649,3.9598,3.8331,3.8311,3.887,3.887,3.9292,3.9851,3.9935,3.9952,3.9969,4.0054,4.007,3.9952,3.9262,3.9542,3.9901,3.9086,3.8885,3.8793,3.869,3.8543,3.8265,3.7594,3.7994,3.8442,3.8277,3.8287,3.8497,3.9185,3.9305,3.9305,3.9305,3.9364,3.9424,3.9424,3.9424,3.9649,4.0232,4.0292,4.0561,4.1205,4.1878,4.2252,4.2252,4.2791,4.312,4.312,4.312,4.312,4.312,4.312,4.312,4.312,4.312,4.312,4.312,4.312,4.2731,2.5174,2.6733,2.717,2.3025,2.2001,2.1898,2.1682,2.1054,2.1024,2.276,2.3147,2.3079,2.2807,2.3829,2.4738,2.4811,2.588,2.647,2.5762,2.5411,2.5433,2.5999,2.5439,2.6123,2.8906,2.9175,2.9714,3.1001,3.1106,3.1225,3.1467,3.1482,3.1482,3.1482,3.1482,3.1482,3.1482,3.1482,3.1482,3.1482,3.1482,3.1482,3.1497,3.2003,3.2467,3.281,3.2712,3.3143,3.4023,3.5753,3.6857,3.7531,3.843,3.9049,3.9354,3.9227,3.936,3.9631,3.9631,3.9817,4.007,4.007,4.007,4.007,4.007,4.007,4.002,3.9662,4.0153,4.0559,3.9802,3.9886,4.0063,3.9617,3.9124,3.8704,3.8708,3.8613,3.8622,3.8912,3.899,3.908,3.9364,3.9424,3.9424,3.9424,3.9424,3.9424,3.9424,3.9753,4.0247,4.0905,4.1159,4.1443,4.1727,4.2491,4.2925,4.2925,4.318,4.3329,4.3329,4.3329,4.3329,4.3329,4.3329,4.3329,4.3329,4.3329,4.3329,4.3329,4.3329,4.318,2.8153,2.8039,2.745,2.4603,2.4288,2.458,2.4047,2.3954,2.4479,2.6336,2.6691,2.6691,2.6691,2.6691,2.6691,2.6691,2.6691,2.6556,2.6085,2.554,2.5433,2.6047,2.5379,2.6063,2.9026,2.931,2.9924,3.1362,3.1482,3.1482,3.1482,3.1482,3.1482,3.1482,3.1482,3.1482,3.1482,3.1482,3.1482,3.1482,3.1482,3.1689,3.2047,3.2841,3.2898,3.2485,3.3572,3.4252,3.4681,3.5885,3.6554,3.7024,3.8019,3.8761,3.9315,3.9901,4.007,4.007,4.007,4.007,4.007,4.007,4.007,4.007,4.007,4.007,4.0121,4.0103,4.0609,4.1081,4.0514,4.0754,4.0988,4.0418,3.9755,3.9292,3.9533,3.9314,3.9134,3.932,3.9424,3.9364,3.917,3.929,3.929,3.8916,3.9185,3.9484,3.9664,4.0427,4.11,4.1534,4.204,4.2384,4.2384,4.2921,4.3329,4.3329,4.3329,4.3329,4.3329,4.3329,4.3329,4.3329,4.3329,4.3329,4.3329,4.3329,4.3329,4.3329,4.3329,4.3329,2.5385,2.6546,2.7461,2.6436,2.7232,2.8165,2.7826,2.7447,2.7063,2.6774,2.6691,2.6691,2.6691,2.6691,2.6691,2.6691,2.6691,2.6556,2.6085,2.554,2.5259,2.5397,2.55,2.6393,2.8427,2.8622,2.9445,3.1332,3.1482,3.1482,3.1482,3.1482,3.1482,3.1482,3.1482,3.1482,3.1482,3.1482,3.1482,3.1482,3.1482,3.218,3.3441,3.395,3.3195,3.1685,3.4283,3.5459,3.5619,3.7657,3.8184,3.7921,3.9454,4.002,4.007,4.007,4.007,4.007,4.007,4.007,4.007,4.007,4.007,4.007,4.007,4.007,4.0104,4.0088,4.0662,4.1199,4.1143,4.1021,4.0879,4.0879,4.0745,4.0439,3.958,4.0015,4.0416,3.9538,3.9424,3.92,3.8542,3.8975,3.8975,3.7674,3.8586,3.9649,4.0292,4.1504,4.2252,4.204,4.2742,4.3299,4.3299,4.3314,4.3329,4.3329,4.3329,4.3329,4.3329,4.3329,4.3329,4.3329,4.3329,4.3329,4.3329,4.3329,4.3329,4.3329,4.3329,4.3329,2.6576,2.7536,2.8435,2.783,2.8049,2.8246,2.7648,2.7396,2.7178,2.6774,2.6688,2.5677,2.2352,2.4458,2.5589,2.2267,2.4535,2.6657,2.6487,2.6033,2.6108,2.7074,2.6983,2.7774,3.0268,2.977,2.9894,3.1362,3.1482,3.1482,3.1482,3.1482,3.1482,3.1482,3.1482,3.1482,3.1482,3.1482,3.1482,3.1482,3.1485,3.2229,3.3502,3.3627,3.3917,3.4224,3.5106,3.5504,3.5569,3.627,3.706,3.7863,3.8374,3.9226,4.007,4.007,4.007,4.007,4.007,4.007,4.007,4.007,4.007,4.0172,4.0679,4.0832,4.0915,4.1412,4.2109,4.2564,4.2021,4.2634,4.3063,4.1898,4.1564,4.1346,4.0432,4.006,3.9737,3.9481,3.9424,3.92,3.8512,3.896,3.9275,3.8811,3.8736,3.929,4.0846,4.1444,4.2028,4.2757,4.3086,4.3329,4.3329,4.3329,4.3329,4.3329,4.3329,4.3329,4.3329,4.3329,4.3329,4.3329,4.3329,4.3329,4.3329,4.3329,4.3329,4.3329,4.3329,4.3329,2.7567,2.8366,2.89,2.8674,2.8615,2.8446,2.7833,2.7601,2.7378,2.7004,2.6789,2.5695,2.2483,2.1185,2.0192,1.9016,2.074,2.2741,2.4242,2.3842,2.4563,2.7771,2.7932,2.8742,3.1278,3.0998,3.1022,3.1819,3.164,3.1482,3.1482,3.1482,3.1482,3.1482,3.1482,3.1482,3.1482,3.1482,3.1526,3.1499,3.1514,3.1926,3.2794,3.3743,3.4678,3.5477,3.5479,3.5504,3.5504,3.5782,3.6461,3.7397,3.769,3.8541,3.9662,3.9662,4.0019,4.0443,4.0172,4.0257,4.0476,4.0476,4.0663,4.095,4.1441,4.1593,4.1745,4.2489,4.3047,4.336,4.3146,4.339,4.3343,4.1947,4.1369,4.0831,4.0055,3.9627,3.9424,3.9424,3.9424,3.92,3.8512,3.8556,3.8871,3.9349,3.8841,3.9035,4.0801,4.1235,4.188,4.3145,4.3277,4.3337,4.3337,4.3269,4.3329,4.3329,4.3329,4.3329,4.3329,4.3329,4.3329,4.3329,4.3329,4.3329,4.3329,4.3329,4.3329,4.3329,4.3329,4.3329,2.8132,2.8832,2.8929,2.8975,2.8994,2.8905,2.8525,2.8183,2.7789,2.7206,2.6675,2.623,2.5895,1.7246,1.1854,1.7203,1.6192,1.6121,2.0143,1.9884,2.1459,2.7571,2.8509,2.9444,3.1549,3.2321,3.266,3.2687,3.2007,3.1539,3.1482,3.1482,3.1482,3.1482,3.1482,3.1482,3.1482,3.1497,3.1559,3.1723,3.1689,3.1722,3.1782,3.4483,3.5679,3.5523,3.5522,3.5504,3.5554,3.6275,3.6554,3.6676,3.7456,3.8222,3.8957,3.8957,3.9971,4.117,4.0443,4.0663,4.1271,4.1271,4.1728,4.2303,4.2337,4.2354,4.2506,4.3267,4.347,4.3639,4.4328,4.329,4.1885,4.1165,4.0241,3.9301,3.8586,3.899,3.9469,3.9469,3.9439,3.923,3.8601,3.7913,3.7898,3.9215,3.8856,3.8916,4.0232,4.095,4.1836,4.3046,4.3198,4.321,4.321,4.3277,4.3314,4.3314,4.3329,4.3329,4.3329,4.3329,4.3329,4.3329,4.3329,4.3329,4.3329,4.3329,4.3329,4.3329,4.3329,4.3329,2.7163,2.8062,2.8994,2.8994,2.8994,2.898,2.8862,2.8787,2.7809,2.4552,2.2701,2.0223,1.5219,1.5985,1.7033,1.614,2.0191,2.3869,2.4936,2.5843,2.7196,2.9353,3.1113,3.257,3.3656,3.3832,3.3876,3.3875,3.3071,3.2211,3.1539,3.1482,3.1482,3.1482,3.1482,3.1482,3.1482,3.15,3.2482,3.4471,3.4495,3.4499,3.4574,3.7542,3.7681,3.5523,3.5522,3.5504,3.5504,3.5733,3.6117,3.66,3.6859,3.8094,3.9803,3.9803,4.0738,4.1982,4.1796,4.1847,4.2016,4.2016,4.2151,4.2388,4.2963,4.3132,4.3284,4.4062,4.4282,4.4204,4.3764,4.329,4.2613,4.1125,4.0566,4.0124,3.9313,3.9679,4.0157,4.0157,3.9753,3.9514,3.9828,3.8916,3.8437,3.929,3.9275,3.9454,4.0292,4.0546,4.0831,4.1309,4.1685,4.1911,4.1911,4.2754,4.3313,4.3313,4.3289,4.3329,4.3329,4.3329,4.3329,4.3329,4.3329,4.3329,4.3329,4.3329,4.3329,4.3329,4.3329,4.3329,2.8125,2.8856,2.9549,2.9549,2.9549,2.9289,2.8358,2.7809,2.6399,2.2615,1.9622,1.6665,1.3296,1.5682,1.7586,1.5685,1.8925,2.2283,2.4155,2.5177,2.6953,3.0191,3.2256,3.3829,3.4878,3.4935,3.4861,3.4853,3.3291,3.2044,3.155,3.1494,3.1486,3.1524,3.1482,3.2103,3.3269,3.3246,3.4015,3.5507,3.5533,3.5492,3.5545,3.7265,3.7514,3.6479,3.5809,3.5668,3.5943,3.5604,3.5718,3.6148,3.6438,3.7791,3.9593,3.9903,4.1193,4.2777,4.2777,4.2997,4.3234,4.2895,4.3014,4.3369,4.3792,4.3927,4.4012,4.4451,4.4587,4.4514,4.4006,4.3562,4.2965,4.1724,4.1306,4.1147,4.069,4.0791,4.0955,4.0845,4.0307,3.9963,4.0337,3.9529,3.8975,3.9364,3.9424,3.9559,3.9918,3.9963,3.9979,4.0129,4.0383,4.0547,4.0547,4.1173,4.2074,4.3228,4.3298,4.3292,4.3292,4.3269,4.3329,4.3329,4.3329,4.3329,4.3329,4.3329,4.3329,4.3329,4.3329,4.3329,2.9682,3.0044,3.0044,3.0044,3.0044,2.9504,2.7483,2.6283,2.4557,2.0974,1.7461,1.507,1.5156,1.5456,1.5846,1.6179,1.63,1.7713,2.177,2.2732,2.5047,3.056,3.2679,3.4201,3.5504,3.5622,3.5593,3.5618,3.3387,3.2029,3.2052,3.1704,3.148,3.1524,3.1837,3.3358,3.6079,3.5722,3.5477,3.5484,3.5902,3.5891,3.5518,3.5493,3.6321,3.772,3.6153,3.5958,3.6554,3.5782,3.5549,3.5699,3.6385,3.7714,3.9241,3.9971,4.1634,4.3572,4.3572,4.4012,4.4468,4.3792,4.4028,4.4587,4.4587,4.4587,4.4587,4.4587,4.4587,4.4587,4.4587,4.3948,4.3174,4.2657,4.2382,4.2141,4.2173,4.1977,4.174,4.1656,4.1115,4.0636,4.0546,3.9993,3.9514,3.9424,3.9424,3.9424,3.9424,3.9424,3.9424,3.9424,3.9415,3.9402,3.9402,3.9416,4.0351,4.2667,4.2772,4.2937,4.3302,4.3277,4.3269,4.3269,4.3314,4.3329,4.3329,4.3329,4.3329,4.3329,4.3329,4.3389,2.9145,2.9195,2.9195,2.9195,2.9195,2.8757,2.7078,2.6376,2.4469,1.8855,1.6839,1.5089,1.2097,1.3001,1.536,1.8797,2.1018,2.3351,2.6281,2.8874,3.0634,3.1151,3.3592,3.5334,3.5605,3.5622,3.5611,3.5588,3.5153,3.4889,3.487,3.2734,3.148,3.1524,3.3676,3.6272,3.9289,3.68,3.5508,3.5529,3.8099,3.7987,3.5518,3.553,3.6307,3.772,3.6153,3.5958,3.6554,3.5782,3.5833,3.6379,3.7192,3.8764,4.0713,4.1586,4.2965,4.4384,4.4384,4.4468,4.4553,4.4418,4.4468,4.4587,4.4587,4.4587,4.4587,4.4587,4.4587,4.4587,4.4587,4.3948,4.3421,4.3943,4.3472,4.2874,4.2714,4.2444,4.2438,4.2865,4.2462,4.1848,4.1309,4.0666,4.0053,3.9499,3.9424,3.9424,3.9424,3.9424,3.9424,3.9424,3.9382,3.9412,3.9412,3.9372,3.955,4.004,4.0083,4.1022,4.3214,4.3287,4.3283,4.3283,4.3289,4.3329,4.3329,4.3329,4.3329,4.3329,4.3329,4.3629,2.9368,2.946,2.9732,3.0136,2.9934,2.8977,2.6382,2.5379,2.3258,1.7259,1.5574,1.463,1.2835,1.412,1.6263,1.8707,2.2192,2.5021,2.6336,2.9838,3.2019,3.1275,3.3812,3.5616,3.5603,3.5599,3.5622,3.5622,3.5622,3.5609,3.5607,3.2977,3.1519,3.1481,3.4131,3.626,3.77,3.7859,3.7081,3.5561,3.8631,3.9324,3.791,3.7864,3.7886,3.7735,3.6738,3.6612,3.7175,3.6338,3.6207,3.6685,3.8119,3.966,4.1176,4.2376,4.3573,4.4587,4.4587,4.4587,4.4587,4.4587,4.4587,4.4587,4.4587,4.4587,4.4587,4.4587,4.4874,4.5162,4.5162,4.5127,4.5226,4.5561,4.528,4.4689,4.4091,4.382,4.3547,4.3349,4.2806,4.2267,4.1953,4.107,4.0292,3.9978,3.9634,3.9424,3.9424,3.9424,3.9424,3.9424,3.9424,3.9424,3.9424,3.9399,3.9385,3.9385,3.9417,3.9965,4.122,4.1685,4.2166,4.259,4.2797,4.2821,4.2821,4.3165,4.3329,4.3329,4.3329,4.3688,2.9008,2.9463,2.9867,3.0563,3.0277,2.891,2.5442,2.4029,2.1872,1.6296,1.4581,1.4145,1.4003,1.5104,1.6404,1.7743,2.1052,2.3892,2.5161,2.8723,3.1281,3.1404,3.3617,3.525,3.5545,3.561,3.5622,3.5622,3.5622,3.5609,3.5607,3.3546,3.2361,3.2361,3.4659,3.5931,3.5982,3.8286,3.8447,3.6519,3.8267,3.9483,4.0121,4.0082,3.9243,3.7802,3.7484,3.7576,3.7961,3.7088,3.6827,3.7121,3.8949,4.0336,4.1371,4.2774,4.3873,4.4587,4.4587,4.4587,4.4587,4.4587,4.4587,4.4587,4.4587,4.4587,4.4604,4.4773,4.5246,4.5737,4.5889,4.6363,4.6836,4.7005,4.6858,4.6553,4.5785,4.5198,4.4586,4.3771,4.3067,4.2521,4.2387,4.1504,4.0726,4.0442,3.9963,3.9574,3.9439,3.9424,3.9424,3.9424,3.9424,3.9424,3.9424,3.9424,3.9424,3.9424,3.94,3.9372,3.9372,4.007,4.0815,4.1701,4.2,4.2147,4.2147,4.2806,4.3135,4.3135,4.3419,4.3898,2.6725,2.8088,2.82,2.8593,2.8634,2.7619,2.3988,2.2722,2.0965,1.6486,1.472,1.3894,1.3459,1.3116,1.3874,1.6816,1.7406,1.936,2.4733,2.6798,2.8854,3.183,3.3043,3.4129,3.5487,3.5605,3.5622,3.5622,3.5622,3.5609,3.5607,3.5349,3.5207,3.5207,3.6356,3.7187,3.7647,3.7422,3.8098,3.9647,3.7155,3.7376,4.0121,4.0084,3.9242,3.7802,3.8286,3.8542,3.8647,3.7857,3.7811,3.8352,3.9302,4.0619,4.2045,4.2953,4.3873,4.4587,4.4587,4.4587,4.4587,4.4587,4.4587,4.4587,4.4587,4.4587,4.4722,4.5415,4.5652,4.5855,4.6532,4.6735,4.6972,4.7648,4.7671,4.749,4.7424,4.6016,4.4737,4.4662,4.3866,4.3045,4.2462,4.2267,4.1773,4.0576,4.0352,4.0098,3.9499,3.9424,3.9424,3.9424,3.9424,3.9424,3.9424,3.9424,3.9424,3.9424,3.9367,3.9382,3.9382,3.9461,3.9936,4.0815,4.128,4.1474,4.1474,4.2132,4.2447,4.2476,4.3673,4.4571,2.5683,2.7226,2.7619,2.8599,2.7338,2.5285,2.3031,2.0962,1.8571,1.5244,1.413,1.3727,1.376,1.281,1.2686,1.4701,1.6081,1.7591,1.9669,2.2452,2.5385,2.851,3.2319,3.4597,3.428,3.5059,3.5622,3.5622,3.5622,3.5599,3.5585,3.5613,3.5869,3.6467,3.6323,3.7153,3.9222,3.717,3.7474,4.0078,3.8877,3.8935,4.0113,4.0101,3.979,3.9211,3.9434,3.9037,3.8243,3.8756,3.8503,3.8075,4.08,4.1948,4.2189,4.3545,4.4327,4.4587,4.4587,4.4587,4.4587,4.4587,4.4891,4.5179,4.4722,4.4891,4.5314,4.5618,4.6346,4.7107,4.7394,4.78,4.8206,4.8494,4.8089,4.7456,4.6884,4.6189,4.5285,4.4128,4.4066,4.3913,4.3064,4.2626,4.2058,4.113,4.0995,4.0606,3.9559,3.9768,3.9858,3.9454,3.9424,3.9424,3.9424,3.9424,3.9424,3.9424,3.9424,3.9424,3.9424,3.9384,3.9518,3.9873,4.0487,4.0786,4.0786,4.1444,4.1773,4.1803,4.3105,4.4077,2.2833,2.519,2.6556,2.7803,2.5715,2.3018,2.1797,1.9075,1.6078,1.3661,1.2931,1.2884,1.3257,1.2354,1.1952,1.3076,1.4381,1.5507,1.6255,1.8462,2.1226,2.4534,3.0865,3.4711,3.4105,3.4975,3.5622,3.5622,3.5622,3.5622,3.5622,3.5842,3.6265,3.7017,3.6649,3.7431,3.9426,3.777,3.7998,4.0133,4.01,4.0104,4.0091,4.0091,4.01,4.0138,4.0546,3.983,3.8526,3.9951,3.958,3.8355,4.1613,4.252,4.2189,4.368,4.4384,4.4587,4.4587,4.4722,4.4925,4.4925,4.5415,4.5923,4.5399,4.5602,4.6075,4.6295,4.7276,4.824,4.824,4.8612,4.9001,4.9001,4.8513,4.7803,4.7155,4.6815,4.6103,4.4464,4.4706,4.4781,4.3551,4.3175,4.2787,4.185,4.1669,4.119,3.9873,4.0113,4.0142,3.9484,3.9424,3.9424,3.9424,3.9424,3.9424,3.9424,3.9424,3.9424,3.9424,3.9424,3.9424,3.9424,3.9873,4.0113,4.0113,4.0771,4.119,4.1414,4.2731,4.3793,1.7301,2.1462,2.4505,2.5568,2.3522,2.1004,2.02,1.7089,1.3766,1.1835,1.1221,1.112,1.1469,1.1415,1.1564,1.2373,1.1766,1.2442,1.6068,1.5585,1.6384,2.0455,2.8329,3.399,3.5433,3.5582,3.5622,3.5622,3.5622,3.5622,3.5622,3.6349,3.6772,3.6772,3.7959,3.8368,3.7918,3.9328,4.0054,4.0087,4.0087,4.0087,4.0087,4.0087,4.0087,4.0206,4.1613,4.1328,3.9872,4.152,4.1103,3.9523,4.1346,4.1997,4.2125,4.2986,4.3873,4.4587,4.4587,4.506,4.5703,4.5703,4.6194,4.6786,4.6769,4.6769,4.6938,4.7682,4.8426,4.8984,4.8984,4.9001,4.9001,4.9001,4.9001,4.9001,4.9001,4.8225,4.7306,4.6314,4.6173,4.553,4.3615,4.4143,4.4204,4.2587,4.2434,4.1878,4.0561,4.0397,4.0142,3.9484,3.9424,3.9424,3.9424,3.9424,3.9424,3.9424,3.9424,3.9424,3.9424,3.9424,3.9424,3.9424,3.9424,3.9424,3.9424,4.0083,4.0741,4.1414,4.2731,4.4032,1.412,1.635,1.73,1.7848,1.6132,1.4193,1.3679,1.157,0.962,0.9351,0.9313,0.9598,1.0328,1.0181,1.0173,1.0868,1.0472,1.0396,1.1263,1.3057,1.5283,1.8057,2.8152,3.5108,3.5565,3.5605,3.5622,3.5622,3.5622,3.5622,3.5622,3.6857,3.755,3.755,3.7913,3.8553,3.9429,3.9884,4.007,4.007,4.007,4.007,4.007,4.007,4.007,4.0138,4.1307,4.079,3.9354,4.1939,4.1687,3.9853,4.2696,4.341,4.297,4.3873,4.4384,4.4587,4.4587,4.5077,4.5703,4.5703,4.6549,4.7564,4.7564,4.7564,4.7716,4.8443,4.8832,4.9001,4.9001,4.9001,4.9001,4.9001,4.9001,4.8798,4.8161,4.8289,4.808,4.6523,4.6747,4.6747,4.5473,4.4989,4.4505,4.3512,4.3151,4.2551,4.1235,4.1459,4.1309,4.0202,4.0083,3.9903,3.9454,3.9424,3.9424,3.9424,3.9424,3.9424,3.9424,3.9424,3.9424,3.9424,3.9424,3.9424,3.9424,3.9634,4.0531,4.2073,4.2925,4.4032,1.0505,1.2236,1.3121,1.3655,1.1873,0.996,1.0179,0.8284,0.6593,0.7078,0.7426,0.7929,0.8961,0.8848,0.8925,0.9809,0.9488,0.9547,1.0678,1.1388,1.2246,1.3466,2.0405,2.7826,3.4897,3.5588,3.5622,3.5622,3.5622,3.5622,3.5622,3.7077,3.7905,3.7905,3.8451,3.9176,4.007,4.007,4.007,4.007,4.007,4.007,4.007,4.007,4.0392,4.0968,4.1834,4.1355,0.0,4.2802,4.2522,4.0862,4.3556,4.4064,4.3443,4.4253,4.4587,4.4621,4.4908,4.5483,4.616,4.6447,4.7344,4.8342,4.8342,4.8342,4.8426,4.8883,4.9001,4.9001,4.9001,4.9001,4.9001,4.9001,4.9001,4.8861,4.8225,4.8576,4.8576,4.702,4.7523,4.7737,4.6384,4.5706,4.507,4.4282,4.3638,4.2955,4.1893,4.2102,4.1953,4.0876,4.0546,4.0232,3.9828,3.9574,3.9424,3.9424,3.9424,3.9424,3.9424,3.9424,3.9424,3.9424,3.9424,3.9424,3.9424,3.9918,4.092,4.2372,4.303,4.3778,0.0,0.8964,1.1152,1.1945,0.9868,0.7969,0.8891,0.6754,0.0,0.5198,0.5672,0.6336,0.7451,0.7522,0.7808,0.8989,0.8657,0.9444,1.2887,1.0312,0.8318,0.9009,0.946,1.6524,3.3923,3.5582,3.5622,3.5622,3.5622,3.5622,3.5622,3.7026,3.7855,3.7905,3.9359,4.0121,4.007,4.007,4.007,4.007,4.007,4.007,4.007,4.007,4.0883,4.2295,4.277,4.269,4.2327,4.3883,4.3495,4.2189,4.3856,4.4006,4.3383,4.4196,4.4604,4.4756,4.5466,4.6227,4.7005,4.775,4.846,4.9001,4.9001,4.9001,4.9001,4.9001,4.9001,4.9001,4.9001,4.9001,4.9001,4.9001,4.9001,4.9001,4.9001,4.9001,4.8719,4.7868,4.8433,4.8433,4.6678,4.6314,4.5905,4.5005,4.4004,4.312,4.2506,4.2432,4.2177,4.1519,4.0905,4.0516,4.0472,3.9828,3.9424,3.9424,3.9424,3.9424,3.9424,3.9424,3.9424,3.9424,3.9424,3.9439,3.9484,4.0771,4.1713,4.2372,4.303,4.3329,0.5854,0.0,0.5831,0.5543,0.5148,0.4826,0.0,0.4441,0.4562,0.5182,0.5576,0.6115,0.6937,0.686,0.6766,0.7043,0.6969,0.72,0.818,0.8013,1.1564,2.1698,2.6546,3.0746,3.5182,3.5583,3.5622,3.5622,3.5622,3.5622,3.5622,3.6535,3.7313,3.7889,3.9338,4.0102,4.007,4.007,4.007,4.007,4.007,4.007,4.007,4.007,4.0697,4.1731,4.1662,4.1875,4.2277,4.3256,4.3015,4.2125,4.3169,4.3502,4.3306,4.3562,4.4357,4.5466,4.5652,4.6566,4.7767,4.8511,4.8866,4.9001,4.9001,4.9001,4.9001,4.9001,4.9001,4.9001,4.9001,4.9001,4.9001,4.9001,4.9001,4.9001,4.9001,4.9001,4.8923,4.8719,4.8861,4.8861,4.8433,4.7155,4.6119,4.5905,4.4403,4.3284,4.3135,4.3105,4.2851,4.2192,4.1998,4.1698,4.119,4.0083,3.9424,3.9424,3.9424,3.9424,3.9424,3.9424,3.9424,3.9424,3.9424,3.9664,4.0172,4.0995,4.1713,4.2372,4.303,4.3329,0.6183,0.5311,0.4494,0.4213,0.432,0.4452,0.4227,0.45,0.4871,0.5235,0.5684,0.6166,0.6777,0.6651,0.6525,0.6779,0.6678,0.6694,0.7072,1.2732,2.0429,3.014,3.5027,3.7121,3.571,3.4452,3.4225,3.5498,3.5249,3.5186,3.5577,3.6349,3.6975,3.7381,3.8831,3.9747,4.007,4.007,4.007,4.007,4.007,4.007,4.007,4.007,4.0646,4.1612,4.1644,4.2122,4.2846,4.3625,4.3431,4.2645,4.3108,4.3047,4.2707,4.2707,4.3493,4.4708,4.536,4.6824,4.8477,4.8883,4.9001,4.9001,4.9001,4.9001,4.9001,4.9001,4.9001,4.9001,4.9001,4.9001,4.9001,4.9001,4.9001,4.9001,4.9001,4.9001,4.9001,4.9001,4.9001,4.8861,4.8433,4.7172,4.6032,4.5634,4.4266,4.3329,4.3329,4.3329,4.3195,4.2851,4.2551,4.2207,4.1863,4.0905,4.0187,3.9888,3.9873,3.9738,3.9424,3.9424,3.9424,3.9424,3.9709,4.0187,4.0846,4.1504,4.2162,4.2821,4.3165,4.3329,0.6922,0.6528,0.6162,0.5664,0.5562,0.5651,0.5815,0.5758,0.5683,0.5639,0.6048,0.6522,0.693,0.6746,0.6662,0.7179,0.6905,0.6827,0.7422,1.9778,2.948,3.1227,3.6148,3.8252,3.5245,3.3274,3.2914,3.4848,3.4667,3.4797,3.5407,3.6076,3.6544,3.6772,3.7995,3.8991,3.9733,3.9969,4.007,4.007,4.007,4.007,4.007,4.007,4.0646,4.1543,4.1984,4.2554,4.3288,4.3945,4.3714,4.2909,4.2909,4.2458,4.1788,4.1788,4.2443,4.3469,4.4959,4.6949,4.8798,4.8798,4.8798,4.8798,4.8798,4.8861,4.9001,4.8798,4.8861,4.9001,4.9001,4.9001,4.9001,4.9001,4.9001,4.9001,4.9001,4.9001,4.9001,4.9001,4.9001,4.8719,4.795,4.7036,4.6119,4.5153,4.4282,4.3693,4.3551,4.3615,4.3693,4.3551,4.3055,4.2724,4.2584,4.1998,4.1399,4.0741,4.0502,4.0157,3.9589,3.9574,3.9619,3.9709,4.0262,4.0876,4.1534,4.2087,4.2701,4.3329,4.3329,4.3329,0.6781,0.9285,1.1148,0.7547,0.7046,0.7348,0.7155,0.7285,0.7364,0.7276,0.7273,0.7346,0.748,0.6996,0.6675,0.6994,0.6444,0.6088,0.6451,2.2603,2.8956,1.4287,2.6633,3.52,3.2424,3.3841,3.4175,3.2244,3.4154,3.5229,3.4752,3.4899,3.5518,3.6755,3.7035,3.7483,3.8124,3.948,4.007,4.007,4.007,4.007,4.007,4.007,4.051,4.1255,4.1339,4.1741,4.2394,4.251,4.197,4.108,4.108,4.1013,4.0878,4.0878,4.1841,4.3331,4.4747,4.6403,4.7803,4.7803,4.7803,4.7803,4.7803,4.837,4.8861,4.8015,4.837,4.9001,4.9001,4.9001,4.9001,4.9001,4.9001,4.9001,4.9001,4.9001,4.9001,4.9001,4.9001,4.894,4.8798,4.8015,4.7104,4.6119,4.5818,4.5473,4.4646,4.5269,4.5488,4.4662,4.4493,4.4067,4.3259,4.309,4.2761,4.2102,4.101,4.0352,4.0247,4.0247,4.0502,4.107,4.1175,4.1549,4.2207,4.2312,4.2701,4.3329,4.3329,4.3329,0.7588,0.914,1.0808,1.052,1.1991,1.3466,1.3368,1.3282,1.2658,1.0814,1.0485,1.0047,0.834,0.7538,0.6997,0.6551,1.2708,1.762,1.7787,2.5574,2.9241,2.3757,2.9177,3.3498,3.3675,3.3489,3.2878,3.1598,3.2675,3.3909,3.5081,3.5127,3.5127,3.5094,3.5745,3.658,3.7416,3.8761,3.9437,3.9437,3.9901,4.007,4.007,4.007,4.0493,4.1169,4.1151,4.1755,4.2789,4.2299,4.1836,4.1346,4.0878,4.0432,4.0045,4.0569,4.1685,4.3084,4.4213,4.5568,4.6815,4.6815,4.6815,4.6815,4.6815,4.7523,4.8144,4.7737,4.8289,4.9001,4.9001,4.9001,4.9001,4.9001,4.9001,4.9001,4.9001,4.9001,4.9001,4.9001,4.9001,4.8656,4.7655,4.7155,4.6314,4.4825,4.4615,4.4479,4.4066,4.4343,4.4479,4.4066,4.4004,4.3771,4.3329,4.3329,4.3045,4.2402,4.1459,4.0935,4.0935,4.0935,4.107,4.1369,4.1728,4.2058,4.2357,4.2716,4.3045,4.3329,4.3329,4.3329,0.7826,0.8664,1.0146,1.2401,1.452,1.6516,1.8189,1.7702,1.638,1.4592,1.4022,1.2975,1.0107,1.0433,1.0551,0.8837,1.9753,2.8429,2.8453,2.845,2.9982,3.4155,3.3336,3.3306,3.5415,3.3691,3.2476,3.2457,3.2465,3.308,3.458,3.5255,3.5127,3.4101,3.5087,3.5983,3.6771,3.8187,3.892,3.8908,3.9731,4.007,4.007,4.007,4.0493,4.1186,4.1083,4.1813,4.3048,4.2072,4.1674,4.1609,4.0758,3.999,3.9481,4.0185,4.1434,4.2863,4.3286,4.4535,4.5905,4.5905,4.5905,4.5905,4.5905,4.6539,4.7239,4.7036,4.7589,4.8433,4.8861,4.9001,4.9001,4.9001,4.9001,4.9001,4.9001,4.9001,4.8923,4.8719,4.8656,4.8161,4.6454,4.6384,4.5889,4.3912,4.4051,4.4113,4.3693,4.3834,4.3897,4.3693,4.363,4.3551,4.3329,4.3329,4.3195,4.2836,4.2207,4.1833,4.1833,4.1833,4.1908,4.2073,4.2417,4.2581,4.2581,4.309,4.3329,4.3329,4.3329,4.3329,0.6375,0.9058,1.1931,1.1483,1.0379,1.1088,1.7639,1.6532,1.4909,1.7759,1.6933,1.5176,1.3382,1.7685,2.0367,1.6802,2.4493,3.0931,3.0935,3.0946,3.1148,3.1725,3.3858,3.5382,3.5575,3.5424,3.5291,3.5328,3.5284,3.4282,3.1903,3.4184,3.5538,3.5471,3.5676,3.5761,3.572,3.787,3.8941,3.8908,3.9731,4.007,4.007,4.007,4.0493,4.1186,4.1083,4.1511,4.2193,4.1178,4.0811,4.069,3.9864,3.9481,3.9424,3.9481,4.0913,4.2664,4.1849,4.303,4.4871,4.4871,4.4871,4.4871,4.4871,4.5561,4.6119,4.5227,4.5706,4.6815,4.8576,4.9001,4.9001,4.9001,4.9001,4.9001,4.9001,4.9001,4.8719,4.7868,4.7721,4.7373,4.6384,4.6952,4.69,4.4946,4.6189,4.6678,4.4946,4.5488,4.5618,4.4812,4.4662,4.4297,4.3409,4.3329,4.3569,4.4137,4.3554,4.3195,4.3195,4.3195,4.3479,4.4092,4.3554,4.3269,4.3269,4.3314,4.3329,4.3329,4.3329,4.3329,0.5997,0.9161,1.2177,1.1331,1.057,1.1945,1.9263,1.9708,1.9376,2.2072,2.1015,1.7714,1.167,1.5102,2.0384,2.5087,2.7573,2.951,3.0968,3.1193,3.1925,3.381,3.4958,3.561,3.558,3.5608,3.5602,3.5602,3.559,3.5141,3.413,3.5055,3.5616,3.5588,3.6599,3.6638,3.5622,3.6885,3.7584,3.7521,3.9294,3.9834,3.9411,3.9868,4.073,4.1827,4.0738,4.1227,4.2714,4.0733,4.0239,4.0622,3.9737,3.9424,3.9469,3.9873,4.0798,4.191,4.1986,4.2799,4.3849,4.3849,4.3849,4.3849,4.3849,4.4571,4.53,4.4871,4.5921,4.7223,4.795,4.8144,4.8289,4.8861,4.8576,4.8144,4.8144,4.8144,4.7868,4.6884,4.7239,4.7104,4.5561,4.5634,4.5431,4.4066,4.4479,4.469,4.3989,4.4205,4.4419,4.4488,4.4834,4.4765,4.3973,4.4317,4.4661,4.4915,4.4302,4.4122,4.4541,4.4541,4.4661,4.4915,4.4272,4.3943,4.3943,4.3524,4.3329,4.3329,4.3329,4.3329,0.4631,0.6937,0.933,1.0353,0.9566,1.0906,1.9767,2.0684,2.0884,2.5268,2.4583,2.0976,1.3947,1.5918,2.0679,2.6814,2.784,2.8657,3.0905,3.0375,3.1242,3.5121,3.5588,3.5585,3.5585,3.5605,3.5613,3.5613,3.5616,3.5583,3.5617,3.4717,3.4635,3.556,3.6636,3.6669,3.5597,3.6092,3.634,3.6373,3.8672,3.936,3.8684,3.9648,4.0764,4.1912,4.0942,4.1601,4.3108,4.0774,3.999,4.0239,3.961,3.9424,3.9469,3.9933,4.0636,4.1444,4.1893,4.2611,4.3329,4.3329,4.3329,4.3329,4.3329,4.3771,4.4358,4.4737,4.5722,4.6815,4.7456,4.7803,4.8225,4.8861,4.8289,4.7589,4.7589,4.7373,4.6884,4.5905,4.626,4.6205,4.4571,4.4586,4.445,4.3488,4.3551,4.363,4.3329,4.3329,4.3584,4.4242,4.49,4.511,4.4661,4.5035,4.5394,4.5603,4.52,4.5155,4.5603,4.5618,4.5618,4.5618,4.496,4.4631,4.4616,4.3958,4.3643,4.3643,4.3434,4.3329,0.1938,0.2028,0.3118,0.8255,0.6698,0.7008,1.8729,1.8426,1.8114,2.6952,2.7315,2.5024,2.1642,2.2165,2.2544,2.0679,2.4938,2.9114,3.0952,2.8629,2.893,3.4869,3.557,3.5565,3.5565,3.5565,3.5565,3.5565,3.5565,3.5565,3.5547,3.278,3.2536,3.5493,3.5622,3.5616,3.5602,3.5602,3.5609,3.5656,3.7889,3.8582,3.7939,3.9411,4.0493,4.1236,4.1879,4.2631,4.3169,4.1412,4.017,3.9409,3.9424,3.9424,3.9409,3.9424,4.0247,4.1384,4.1384,4.2237,4.3329,4.3329,4.3329,4.3329,4.3329,4.3329,4.3551,4.451,4.4812,4.5227,4.7104,4.8289,4.9001,4.9001,4.8289,4.7589,4.7589,4.6815,4.5905,4.4946,4.4812,4.445,4.3472,4.4143,4.445,4.3488,4.4143,4.445,4.3409,4.3359,4.3614,4.4257,4.4915,4.5304,4.5304,4.5304,4.5603,4.6292,4.6337,4.6337,4.6337,4.6337,4.6337,4.6337,4.5663,4.5304,4.5304,4.4631,4.4317,4.4302,4.3643,4.3329,0.1573,0.1361,0.2018,0.8911,1.5943,2.1265,2.1792,1.9391,1.9046,2.5927,2.8163,2.737,2.2401,2.4648,2.5411,1.9783,2.4185,2.8962,3.0926,3.0415,3.0505,3.2287,3.2502,3.2496,3.2496,3.2496,3.2496,3.2496,3.2496,3.2513,3.2502,3.1682,3.2557,3.5511,3.5599,3.5616,3.5602,3.5576,3.5583,3.5622,3.6299,3.6789,3.7195,3.9715,4.0984,4.1167,4.1269,4.1671,4.2252,4.0516,3.999,4.0239,3.961,3.9793,4.0301,4.0136,4.0651,4.1444,4.1908,4.2626,4.3329,4.3329,4.3329,4.3329,4.3329,4.3771,4.445,4.4737,4.5778,4.69,4.7456,4.7803,4.8015,4.8015,4.7306,4.647,4.5778,4.5431,4.493,4.3927,4.4297,4.445,4.3472,4.3551,4.363,4.3329,4.3551,4.3796,4.3958,4.4855,4.5334,4.5035,4.6022,4.6516,4.6052,4.6441,4.68,4.6995,4.701,4.701,4.701,4.701,4.701,4.701,4.6352,4.6022,4.6022,4.487,4.4317,4.4302,4.3643,4.3329,0.2078,0.2736,0.4247,1.2462,1.9477,2.4272,2.3999,2.3474,2.375,2.62,2.7808,2.771,2.4317,2.6104,2.6678,2.23,2.4968,2.8243,3.0074,2.9808,2.9871,3.1072,3.1194,3.1223,3.1223,3.1223,3.1223,3.1223,3.1223,3.1197,3.12,3.1207,3.2534,3.5497,3.5599,3.5903,3.6523,3.5898,3.5774,3.6079,3.6079,3.6332,3.6857,3.8937,4.0223,4.0762,4.1213,4.1811,4.2395,4.1044,4.0774,4.1147,4.0255,4.0255,4.0715,4.0477,4.0816,4.1474,4.2132,4.2791,4.3409,4.3786,4.363,4.3472,4.419,4.4646,4.4946,4.5722,4.6763,4.7589,4.7589,4.7589,4.7589,4.7589,4.6609,4.5504,4.4946,4.4526,4.3989,4.3409,4.3771,4.3989,4.3409,4.3329,4.3419,4.3688,4.3943,4.4167,4.4302,4.5499,4.6172,4.5753,4.6666,4.7145,4.6756,4.707,4.7309,4.7309,4.7309,4.7309,4.7309,4.7309,4.7309,4.7309,4.692,4.6711,4.6711,4.5633,4.511,4.5095,4.4152,4.3718,0.3744,0.6536,1.0044,1.8329,1.9712,2.0363,2.5526,2.8842,3.0076,2.7267,2.6691,2.6691,2.6691,2.6691,2.6691,2.6691,2.6691,2.7199,2.8583,2.7568,2.7811,3.0847,3.119,3.119,3.119,3.119,3.119,3.119,3.119,3.119,3.119,3.1183,3.267,3.5916,3.587,3.6409,3.7699,3.6429,3.6113,3.6671,3.6823,3.6857,3.6806,3.7702,3.8905,4.0356,4.1581,4.2506,4.3108,4.2251,4.2013,4.2062,4.1147,4.0826,4.0768,4.0603,4.0964,4.1595,4.2211,4.295,4.3693,4.451,4.422,4.3897,4.5674,4.5634,4.5447,4.7104,4.7655,4.7737,4.7737,4.7589,4.744,4.744,4.6205,4.4871,4.4737,4.4066,4.3551,4.3329,4.3409,4.3409,4.3329,4.3329,4.3569,4.4383,4.49,4.508,4.4541,4.5603,4.6411,4.6411,4.695,4.7309,4.7309,4.7309,4.7309,4.7309,4.7309,4.7309,4.7309,4.7309,4.7309,4.7309,4.7309,4.7309,4.7309,4.6651,4.6322,4.6292,4.4945,4.4317,0.9267,1.6517,2.2879,2.5232,2.5813,2.5954,2.6539,2.7451,2.7855,2.6904,2.6705,2.6691,2.6691,2.6691,2.6691,2.6691,2.6691,2.6809,2.7164,2.6902,2.7811,3.0847,3.119,3.119,3.119,3.119,3.119,3.119,3.119,3.119,3.119,3.1191,3.3633,3.8963,3.8031,3.6992,3.6081,3.6969,3.6891,3.5876,3.7094,3.7347,3.684,3.8751,4.0402,4.1756,4.1379,4.164,4.222,4.1485,4.1894,4.2909,4.2062,4.1739,4.169,4.1652,4.2028,4.2479,4.2575,4.3904,4.5473,4.493,4.5138,4.5674,4.6103,4.6609,4.7104,4.7523,4.8144,4.8719,4.8719,4.7589,4.6523,4.6523,4.6173,4.5473,4.3989,4.4615,4.5106,4.3615,4.3927,4.422,4.3409,4.3329,4.3813,4.542,4.5423,4.5395,4.5589,4.6486,4.71,4.71,4.7219,4.7309,4.7309,4.7309,4.7309,4.7309,4.7309,4.7309,4.7309,4.7309,4.7309,4.7309,4.7309,4.7309,4.7309,4.6651,4.6322,4.6292,4.4945,4.4317,1.1286,1.7681,2.2448,2.6393,2.793,2.8164,2.7201,2.7422,2.7614,2.6875,2.669,2.6691,2.6691,2.6691,2.6691,2.6691,2.6691,2.669,2.6687,2.7945,2.9448,3.1004,3.119,3.119,3.119,3.119,3.119,3.119,3.119,3.1185,3.119,3.165,3.3775,3.7847,3.7665,3.7618,3.7778,3.7858,3.7516,3.6721,3.7533,3.8075,3.8413,3.9191,4.0355,4.1688,4.1288,4.1913,4.3164,4.2423,4.2824,4.3814,4.297,4.2645,4.2632,4.251,4.2849,4.3472,4.3749,4.4874,4.6173,4.6119,4.6189,4.6384,4.7306,4.7589,4.7655,4.8144,4.8639,4.8877,4.8433,4.7306,4.6173,4.6173,4.5834,4.5138,4.3615,4.4825,4.5602,4.3693,4.422,4.4618,4.3503,4.3275,4.3808,4.5198,4.5889,4.6207,4.6025,4.6781,4.7309,4.7309,4.7309,4.7309,4.7309,4.7309,4.7309,4.7309,4.7309,4.7309,4.7309,4.7309,4.7309,4.7309,4.7309,4.7309,4.7309,4.6965,4.6636,4.6307,4.5259,4.4616,0.9043,1.4403,1.842,2.5536,2.8152,2.8716,2.7639,2.7914,2.808,2.7026,2.6758,2.6691,2.6691,2.6691,2.6691,2.6691,2.6691,2.6689,2.6687,2.9319,3.1199,3.1196,3.119,3.119,3.119,3.119,3.119,3.119,3.119,3.1179,3.1211,3.232,3.3799,3.5526,3.6747,3.8145,3.9812,3.8783,3.8159,3.7905,3.8041,3.8802,4.0087,3.9462,3.9986,4.139,4.1119,4.2286,4.4316,4.3538,4.3758,4.4514,4.3814,4.3426,4.3312,4.3311,4.3718,4.4458,4.4969,4.5846,4.6799,4.7373,4.7155,4.6952,4.8513,4.8433,4.8015,4.8781,4.9001,4.8798,4.8015,4.7172,4.6454,4.6454,4.585,4.493,4.3849,4.518,4.6032,4.3756,4.4188,4.4527,4.3503,4.3269,4.3603,4.4303,4.5904,4.6796,4.6274,4.6841,4.7309,4.7309,4.7309,4.7309,4.7309,4.7309,4.7309,4.7309,4.7309,4.7309,4.7309,4.7309,4.7309,4.7309,4.7309,4.7309,4.7309,4.7309,4.7025,4.6471,4.5783,4.5185,-0.1418,0.9619,2.15,2.6143,2.8146,2.8778,2.8,2.8119,2.8182,2.7396,2.6922,2.6691,2.6691,2.6691,2.6691,2.6691,2.6707,2.6683,2.672,2.9289,3.1202,3.1213,3.119,3.119,3.119,3.119,3.119,3.119,3.119,3.1207,3.1185,3.2957,3.4507,3.5588,3.7394,3.8512,3.8787,3.9478,3.9157,3.7922,3.8548,3.9276,4.0087,3.9986,4.0747,4.2066,4.0781,4.1508,4.3504,4.2743,4.3284,4.4587,4.4457,4.3948,4.3383,4.4106,4.4797,4.5304,4.5339,4.6806,4.8513,4.7803,4.808,4.8656,4.8923,4.894,4.8861,4.894,4.9001,4.9001,4.8861,4.8144,4.7373,4.7373,4.7306,4.6747,4.5005,4.6694,4.7589,4.3974,4.3423,4.3503,4.3329,4.328,4.3349,4.3464,4.4665,4.594,4.6976,4.7219,4.7309,4.7309,4.7309,4.7309,4.7309,4.7309,4.7309,4.7309,4.7309,4.7309,4.7309,4.7309,4.7309,4.7309,4.7309,4.7309,4.7309,4.7309,4.7249,4.716,4.6501,4.6142,0.3593,1.2894,2.2106,2.6527,2.8334,2.8858,2.8308,2.8272,2.8246,2.7736,2.7517,2.7224,2.6774,2.6691,2.6691,2.6691,2.6689,2.7293,2.8977,3.0364,3.1198,3.1213,3.119,3.119,3.119,3.119,3.119,3.119,3.119,3.1438,3.2023,3.3119,3.4847,3.7221,3.7899,3.8614,3.9412,3.9868,3.9749,3.9123,3.9462,4.0223,4.1305,4.0882,4.1288,4.2236,4.117,4.1982,4.4012,4.325,4.3572,4.4587,4.4587,4.4384,4.4064,4.4457,4.531,4.624,4.6179,4.7413,4.894,4.8513,4.8656,4.9001,4.9001,4.9001,4.9001,4.9001,4.9001,4.9001,4.9001,4.8289,4.7721,4.8225,4.7834,4.711,4.6293,4.7638,4.8503,4.6781,4.4763,4.3289,4.3334,4.3329,4.3539,4.4298,4.5574,4.66,4.7201,4.7309,4.7309,4.7309,4.7309,4.7309,4.7309,4.7309,4.7309,4.7309,4.7309,4.7309,4.7309,4.7309,4.7309,4.7309,4.7309,4.7309,4.7309,4.7309,4.7115,4.6741,4.6052,4.5544,0.7781,1.3379,1.8444,2.4512,2.6407,2.7109,2.8293,2.854,2.8446,2.8102,2.8037,2.7823,2.7147,2.6987,2.6971,2.6908,2.6996,2.8065,3.0803,3.1188,3.1215,3.1193,3.1201,3.119,3.119,3.119,3.119,3.119,3.119,3.1624,3.2664,3.3144,3.4769,3.7712,3.7699,3.8328,3.9783,3.9986,4.007,4.007,4.0476,4.1153,4.1999,4.1847,4.2066,4.2523,4.161,4.2371,4.4231,4.3656,4.3876,4.4587,4.4587,4.4587,4.4604,4.479,4.5669,4.6819,4.7005,4.7919,4.9001,4.9001,4.9001,4.9001,4.9001,4.9001,4.9001,4.9001,4.9001,4.9001,4.9001,4.8497,4.8144,4.8861,4.8299,4.7423,4.698,4.7636,4.8412,4.8937,4.5921,4.3286,4.3337,4.3329,4.3618,4.4603,4.6188,4.7317,4.7291,4.7309,4.7309,4.7309,4.7309,4.7309,4.7309,4.7309,4.7309,4.7309,4.7309,4.7309,4.7309,4.7309,4.7309,4.7309,4.7309,4.7309,4.7309,4.7309,4.7055,4.6561,4.6037,4.5454,0.4148,0.5725,0.8418,1.8419,2.0875,2.2282,2.7724,2.8952,2.8863,2.8446,2.8376,2.8246,2.7908,2.784,2.7742,2.7487,2.7837,2.8833,3.092,3.1182,3.1193,3.121,3.1202,3.119,3.119,3.119,3.119,3.119,3.119,3.1653,3.2666,3.316,3.4134,3.5723,3.6468,3.755,3.9039,3.9732,4.007,4.0104,4.1508,4.1863,4.1305,4.2692,4.3318,4.3284,4.183,4.2066,4.347,4.3436,4.3876,4.4587,4.4587,4.4587,4.4654,4.5382,4.6126,4.6887,4.7614,4.8359,4.9001,4.9001,4.9001,4.9001,4.9001,4.9001,4.9001,4.9001,4.9001,4.9001,4.9001,4.894,4.894,4.9001,4.8923,4.8392,4.6651,4.6309,4.6882,4.8627,4.5898,4.3286,4.3337,4.3329,4.3344,4.3389,4.5672,4.7321,4.7294,4.7309,4.7309,4.7309,4.7309,4.7309,4.7309,4.7309,4.7309,4.7309,4.7309,4.7309,4.7309,4.7309,4.7309,4.7309,4.7309,4.7309,4.7309,4.7309,4.7294,4.7249,4.7219,4.6845,0.2614,0.3827,0.5365,1.2506,1.6929,2.0194,2.2608,2.5978,2.8658,2.8749,2.8791,2.8658,2.829,2.8047,2.7869,2.776,2.8014,2.8561,2.9634,3.1557,3.2442,3.1319,3.1188,3.1189,3.1213,3.119,3.119,3.119,3.119,3.1749,3.3076,3.3305,3.432,3.6299,3.6637,3.7499,3.8988,3.9715,4.007,4.0104,4.1576,4.2151,4.1931,4.2946,4.369,4.4096,4.3081,4.32,4.4164,4.4164,4.4333,4.4587,4.4587,4.4587,4.4671,4.5432,4.616,4.6904,4.7648,4.8392,4.9001,4.9001,4.9001,4.9001,4.9001,4.9001,4.9001,4.9001,4.9001,4.9001,4.9001,4.9001,4.9001,4.9001,4.9001,4.8849,4.81,4.6731,4.6218,4.8547,4.7902,4.6929,4.6971,4.6952,4.6103,4.3693,4.4137,4.5364,4.7085,4.7309,4.7309,4.7309,4.7309,4.7309,4.7309,4.7309,4.7309,4.7309,4.7309,4.7309,4.7309,4.7309,4.7309,4.7309,4.7309,4.7309,4.7309,4.7309,4.7309,4.7294,4.6875,4.6471,-0.0515,0.0197,0.1252,0.696,1.103,1.4775,1.9147,2.301,2.6309,2.8539,2.8994,2.8929,2.8658,2.8412,2.8228,2.8075,2.8632,2.9183,2.9483,3.1831,3.3179,3.2176,3.1568,3.1349,3.1743,3.1457,3.1269,3.1496,3.1325,3.1799,3.3069,3.3296,3.432,3.6315,3.6637,3.7246,3.8244,3.9225,3.9715,3.9732,4.1474,4.2286,4.232,4.3335,4.4079,4.4553,4.4028,4.4096,4.4587,4.4587,4.4587,4.4587,4.4587,4.4587,4.4705,4.5703,4.638,4.6938,4.7936,4.8595,4.9001,4.9001,4.9001,4.9001,4.9001,4.9001,4.9001,4.9001,4.9001,4.9001,4.9001,4.9001,4.9001,4.9001,4.9001,4.8979,4.9002,4.7668,4.6977,4.8659,4.9022,4.9001,4.9001,4.9001,4.8144,4.5602,4.4113,4.4302,4.6965,4.7309,4.7309,4.7309,4.7309,4.7309,4.7309,4.7309,4.7309,4.7309,4.8625,4.9043,4.8351,4.7691,4.7309,4.7309,4.7309,4.7309,4.7309,4.7309,4.7309,4.7294,4.686,4.6576,0.0,0.0,0.0,0.1761,0.3045,0.5809,1.7445,2.0075,2.1719,2.7538,2.8755,2.881,2.8957,2.8994,2.8863,2.8471,2.9728,3.0722,3.0655,3.1995,3.3169,3.3732,3.2278,3.1707,3.2854,3.1906,3.1457,3.2067,3.1534,3.1641,3.2664,3.317,3.4134,3.5571,3.6366,3.6772,3.6772,3.8227,3.8971,3.9022,4.1204,4.2269,4.2337,4.3876,4.4587,4.4587,4.4587,4.4587,4.4587,4.4587,4.4587,4.4587,4.4587,4.4587,4.479,4.6244,4.6802,4.7039,4.8494,4.9001,4.9001,4.9001,4.9001,4.9001,4.9001,4.9001,4.9001,4.9001,4.9001,4.9001,4.9001,4.9001,4.9001,4.9001,4.9001,4.9001,4.9001,4.9001,4.9026,4.8997,4.9027,4.9001,4.9001,4.9001,4.9001,4.9001,4.5818,4.4419,4.7016,4.7407,4.7467,4.7294,4.7309,4.7381,4.7467,4.7452,4.7452,4.7452,5.1262,5.2623,5.0593,4.848,4.7309,4.7309,4.7309,4.7309,4.7309,4.7309,4.7309,4.7309,4.7309,4.7309,-0.7097,0.0,0.0,0.0,0.0,0.0,0.7084,1.1389,1.6112,2.1533,2.2887,2.433,2.8292,2.8994,2.8952,2.8839,2.9223,3.0015,3.1538,3.2143,3.2766,3.3683,3.3019,3.2553,3.2639,3.202,3.1854,3.2331,3.1658,3.1641,3.2664,3.4148,3.5199,3.5605,3.6366,3.6772,3.6772,3.7736,3.8464,3.9005,4.0696,4.1779,4.2337,4.3876,4.4587,4.4587,4.4587,4.4587,4.4587,4.4587,4.4587,4.4587,4.4587,4.4925,4.55,4.6447,4.7141,4.7733,4.868,4.9001,4.9001,4.9001,4.9001,4.9001,4.9001,4.9001,4.9001,4.9001,4.9001,4.9001,4.9001,4.9001,4.9001,4.9001,4.9001,4.9001,4.9001,4.9001,4.8979,4.8983,4.8971,4.9001,4.9001,4.9001,4.9001,4.9001,4.808,4.7668,4.8404,5.0408,5.0627,4.7609,4.7309,4.8543,5.1557,5.1793,5.1793,5.1793,5.287,5.3247,5.2691,4.9204,4.7309,4.7309,4.7309,4.7309,4.7309,4.7309,4.7309,4.7309,4.7309,4.7309,-0.8052,-0.7876,-0.7563,-0.6367,0.0,0.0,0.5789,0.9761,1.4513,2.2264,2.4097,2.5248,2.8421,2.8994,2.8994,2.8994,2.8994,2.9659,3.1599,3.2151,3.2716,3.3686,3.3375,3.3064,3.3057,3.2606,3.2302,3.2319,3.1958,3.2212,3.3271,3.478,3.5596,3.5622,3.6062,3.6299,3.6299,3.706,3.7804,3.8565,4.0358,4.1593,4.2337,4.3876,4.4587,4.4587,4.4587,4.4587,4.4587,4.4587,4.4587,4.4587,4.4587,4.5043,4.5788,4.6532,4.7276,4.802,4.8748,4.9001,4.9001,4.9001,4.9001,4.9001,4.9001,4.9001,4.9001,4.9001,4.9001,4.9001,4.9001,4.9001,4.9001,4.9001,4.9001,4.9001,4.9001,4.9001,4.9001,4.9001,4.9001,4.9001,4.9001,4.9001,4.9001,4.9001,4.9001,4.9001,4.9001,5.164,5.2574,5.0181,4.9868,5.0871,5.3264,5.3501,5.3501,5.3501,5.3501,5.3501,5.3501,5.1171,4.9085,4.7294,4.7309,4.7309,4.7309,4.7309,4.7309,4.7309,4.7309,4.7893,-0.821,-0.7814,-0.6987,-0.6322,-0.5555,0.0,0.7971,1.0279,1.3244,2.3811,2.6059,2.6299,2.6909,2.7032,2.7045,2.7086,2.7697,2.8881,3.098,3.188,3.2669,3.3568,3.3348,3.3299,3.3762,3.3322,3.2811,3.2338,3.2546,3.3142,3.4048,3.5015,3.5557,3.5627,3.5588,3.5622,3.5622,3.6299,3.7077,3.7922,3.9986,4.1424,4.2337,4.3792,4.4502,4.4587,4.4587,4.4587,4.4587,4.4587,4.4587,4.4587,4.4587,4.5094,4.5906,4.6549,4.7327,4.8139,4.8781,4.9001,4.9001,4.9001,4.9001,4.9001,4.9001,4.9001,4.9001,4.9001,4.9001,4.9001,4.9001,4.9001,4.9001,4.9001,4.9001,4.9001,4.9001,4.9001,4.9001,4.9001,4.9001,4.9001,4.9001,4.9001,4.9001,4.9001,4.9001,4.9001,4.9001,5.164,5.3501,5.3501,5.3501,5.3501,5.3501,5.3501,5.3501,5.3501,5.3501,5.3501,5.3501,5.3501,5.1793,4.8088,4.7538,4.7309,4.7309,4.7309,4.7309,4.7309,4.7309,4.8716,-0.6909,-0.781,-0.7366,-0.7171,-0.6249,0.0,-0.3142,-0.2332,-0.0243,0.5846,0.7627,0.9417,1.3873,1.4674,1.4804,1.519,1.9508,2.4587,2.971,3.0577,3.1219,3.2669,3.2755,3.2993,3.3733,3.3415,3.3237,3.343,3.3817,3.3898,3.3571,3.4559,3.526,3.5582,3.5596,3.5622,3.5622,3.5774,3.6535,3.7922,3.8937,4.0426,4.232,4.3234,4.3995,4.4587,4.4587,4.4587,4.4587,4.4587,4.4587,4.4587,4.4587,4.5399,4.6599,4.6735,4.7631,4.8815,4.8951,4.9001,4.9001,4.9001,4.9001,4.9001,4.9001,4.9001,4.9001,4.9001,4.9001,4.9001,4.9001,4.9001,4.9001,4.9001,4.9001,4.9001,4.9001,4.9001,4.9001,4.9001,4.9001,4.9001,4.9001,4.9001,4.9001,4.9001,4.9001,4.9001,4.9001,5.164,5.3501,5.3501,5.3501,5.3501,5.3501,5.3501,5.3501,5.3501,5.3501,5.3501,5.3501,5.3501,5.311,5.2345,4.9004,4.7309,4.7309,4.7309,4.7309,4.7309,4.7309,4.8716,-0.696,-0.8215,-0.7636,-0.7522,-0.6405,0.0,0.0,-0.1165,0.081,0.6007,0.7182,0.8166,1.106,1.1348,1.1263,1.1635,1.7148,2.1066,2.0293,2.6309,3.1256,3.2467,3.2614,3.2926,3.3715,3.3625,3.3564,3.3791,3.344,3.3507,3.4016,3.5008,3.5709,3.6142,3.629,3.6291,3.6028,3.6028,3.6433,3.7347,3.8464,3.9766,4.1255,4.2743,4.3639,4.4012,4.4418,4.4587,4.4587,4.4587,4.4587,4.4621,4.4993,4.5821,4.6836,4.7208,4.8054,4.9001,4.9001,4.9001,4.9001,4.9001,4.9001,4.9001,4.9001,4.9001,4.9001,4.9001,4.9001,4.9001,4.9001,4.9001,4.9001,4.9001,4.9001,4.9001,4.9001,4.9001,4.9001,4.9001,4.9001,4.9001,4.9001,4.9001,4.9001,4.9001,4.9001,4.9001,4.9001,5.164,5.3501,5.3501,5.3501,5.3501,5.3501,5.3501,5.3501,5.3501,5.3501,5.3501,5.3501,5.3501,5.3501,5.3501,5.1484,4.9392,4.7309,4.7309,4.7309,4.7309,4.7309,4.8716,-0.6966,-0.8602,-0.7927,-0.7931,-0.6819,-0.4572,0.0,0.0,0.0,0.7544,0.8194,0.8022,0.8289,0.792,0.7637,0.7804,1.3346,1.5395,0.9004,1.916,2.7511,2.8136,3.08,3.2326,3.1674,3.1847,3.2528,3.3816,3.1852,3.1888,3.4835,3.5839,3.6556,3.7179,3.7283,3.7017,3.6452,3.6504,3.6559,3.6576,3.8291,3.9452,4.0189,4.2206,4.324,4.3453,4.4079,4.4451,4.4587,4.4587,4.4587,4.4637,4.5263,4.6024,4.687,4.7479,4.8257,4.9001,4.9001,4.9001,4.9001,4.9001,4.9001,4.9001,4.9001,4.9001,4.9001,4.9001,4.9001,4.9001,4.9001,4.9001,4.9001,4.9001,4.9001,4.9001,4.9001,4.9001,4.9001,4.9001,4.9001,4.9001,4.9001,4.9001,4.9001,4.9001,4.9001,4.9001,4.9001,5.164,5.3501,5.3501,5.3501,5.3501,5.3501,5.3501,5.3501,5.3501,5.3501,5.3501,5.3501,5.3501,5.3501,5.3501,5.2731,5.0627,4.7309,4.7309,4.7309,4.7309,4.7833,4.9194,-0.5454,-0.855,-0.8479,-0.9047,-0.8338,-0.7479,-0.7401,0.0,-0.6661,-0.5846,0.0,-0.5161,-0.4883,0.0,0.0,-0.5312,-0.0069,0.3284,0.1181,0.7541,1.2409,1.2374,2.4348,3.026,2.427,2.4787,2.7935,3.3857,2.8706,2.8421,3.5643,3.6645,3.7597,3.8959,3.8112,3.7314,3.6667,3.6953,3.6636,3.5797,3.8255,3.9658,4.0155,4.1606,4.2655,4.342,4.3521,4.3944,4.4587,4.4587,4.4587,4.4587,4.4671,4.5568,4.6802,4.6887,4.78,4.9001,4.9001,4.9001,4.9001,4.9001,4.9001,4.9001,4.9001,4.9001,4.9001,4.9001,4.9001,4.9001,4.9001,4.9001,4.9001,4.9001,4.9001,4.9001,4.9001,4.9001,4.9001,4.9001,4.9001,4.9001,4.9001,4.9001,4.9001,4.9001,4.9001,4.9001,4.9001,5.164,5.3501,5.3501,5.3501,5.3501,5.3501,5.3501,5.3501,5.3501,5.3501,5.3501,5.3501,5.3501,5.3501,5.3501,4.9868,4.7764,4.7309,4.7309,4.7309,4.7369,4.9688,5.093,-0.6947,-0.608,-0.3644,-0.826,-0.535,-0.2568,-0.7187,-0.7756,-0.726,-0.7056,0.0,0.0,0.0,0.0,0.0,0.0,-0.2757,-0.0612,-0.553,0.3635,1.0668,1.0084,1.5883,2.0906,2.334,2.4041,2.7419,3.4932,2.9,2.8458,3.629,3.7111,3.8118,3.982,3.8819,3.7966,3.7274,3.7417,3.7269,3.6834,3.8156,3.9147,3.9842,4.2205,4.3453,4.3875,4.4761,4.5148,4.5142,4.5142,4.4906,4.4621,4.506,4.5872,4.6887,4.775,4.8477,4.9001,4.9001,4.9001,4.9001,4.9001,4.9001,4.9001,4.9001,4.9001,4.9001,4.9001,4.9001,4.9001,4.9001,4.9001,4.9001,4.9001,4.9001,4.9001,4.9001,4.9001,4.9001,4.9001,4.9001,4.9001,4.9001,4.9001,4.9001,4.9001,4.9001,4.9001,4.9001,5.164,5.3501,5.3501,5.3501,5.3501,5.3501,5.3501,5.3501,5.3501,5.3501,5.3501,5.3501,5.3501,5.3501,5.3501,4.9392,4.7309,4.7309,4.7309,4.7309,4.7339,4.8431,4.9763,-0.4539,-0.276,-0.0201,-0.7684,-0.4843,-0.1689,-0.7271,-0.7854,-0.7161,-0.6952,-0.6899,0.0,0.0,0.0,-0.7887,-0.8135,0.0,-0.4068,-1.0044,-0.1487,0.5167,0.4449,0.6864,1.2124,0.0,2.039,2.3323,3.3128,2.7052,2.7313,3.732,3.7851,3.8554,4.0134,3.9423,3.8679,3.7972,3.7972,3.8021,3.8148,3.879,3.9334,3.9939,4.2761,4.405,4.4182,4.5528,4.595,4.5732,4.5732,4.5632,4.5537,4.6237,4.6896,4.7469,4.8352,4.8832,4.9001,4.9001,4.9001,4.9001,4.9001,4.9001,4.9001,4.9001,4.9001,4.9001,4.9001,4.9001,4.9001,4.9001,4.9001,4.9001,4.9001,4.9001,4.9001,4.9001,4.9001,4.9001,4.9001,4.9001,4.9001,4.9001,4.9001,4.9001,4.9001,4.9001,4.9001,4.9001,5.164,5.3501,5.3501,5.3501,5.3501,5.3501,5.3501,5.3501,5.3501,5.3501,5.3501,5.3501,5.3501,5.3501,5.3501,5.0566,4.9019,4.9019,4.7849,4.7309,4.7324,4.8042,4.9209,0.4725,0.1074,-0.0489,-0.8018,-0.9527,-0.9355,-0.9989,-0.9458,-0.8745,-0.8477,-0.7714,-0.6809,-0.589,-0.5768,-0.6468,-0.8521,-0.8669,0.0,0.0,-1.0785,-1.0091,-1.0376,-0.2507,0.6439,0.0,1.037,1.2439,0.0,2.0678,2.3262,3.8962,3.9074,3.9056,3.9882,3.9863,3.9478,3.8676,3.8658,3.8853,3.9246,4.0458,4.089,4.0742,4.2929,4.3954,4.4165,4.4989,4.5722,4.6383,4.6383,4.6843,4.7687,4.8399,4.875,4.8761,4.8184,4.8409,4.9001,4.9001,4.9001,4.9001,4.9001,4.9001,4.9001,4.9001,4.9001,4.9001,4.9001,4.9001,4.9001,4.9001,4.9001,4.9001,4.9001,4.9001,4.9001,4.9001,4.9001,4.9001,4.9001,4.9001,4.9001,4.9001,4.9001,4.9001,4.9001,4.9001,4.9001,4.9001,5.164,5.3501,5.3501,5.3501,5.3501,5.3501,5.3501,5.3501,5.3501,5.3501,5.3501,5.3501,5.3501,5.3501,5.3501,5.3348,5.328,5.328,4.9247,4.7309,4.7369,4.9912,5.0466,1.0075,1.2526,1.3412,0.0743,0.1267,0.2235,-0.7945,-0.9762,-0.9147,-0.8602,-0.7602,-0.6621,-0.5895,-0.6161,-0.6867,-0.7975,-0.8402,-0.9173,0.0,-0.981,-0.8287,-0.6601,-0.0225,0.0,0.0,0.0,0.0,0.0,2.4277,0.0,3.8059,3.8693,3.9313,4.0653,3.9662,3.897,3.8687,3.8695,3.9122,3.9977,4.1079,4.1656,4.1814,4.3597,4.4472,4.4572,4.5896,4.6398,4.6327,4.6846,4.7301,4.7771,4.8533,4.9144,4.9592,4.9366,4.9155,4.9001,4.9001,4.9001,4.9001,4.9001,4.9001,4.9001,4.9001,4.9001,4.9001,4.9001,4.9001,4.9001,4.9001,4.9001,4.9001,4.9001,4.9001,4.9001,4.9001,4.9001,4.9001,4.9001,4.9001,4.9001,4.9001,4.9001,4.9001,4.9001,4.9001,4.9729,5.1725,5.2875,5.3501,5.3501,5.3501,5.3501,5.3501,5.3501,5.3501,5.3501,5.3501,5.3501,5.3501,5.3501,5.3501,5.3501,5.3501,5.2186,4.9392,4.8003,4.7309,4.7369,5.0002,5.0975,1.7405,2.0328,2.1156,0.8581,0.9002,0.9205,-0.3434,-0.5837,-0.5991,-0.8197,-0.7763,-0.6648,-0.5576,-0.6022,-0.6676,-0.7056,-0.7659,-0.8341,0.0,-0.7735,-0.5857,-0.3686,-0.0354,0.0,0.0,0.0,0.0,0.0,0.0,0.0,0.0,3.7489,3.9392,4.0634,3.968,3.9135,3.9127,3.8841,3.9313,4.0593,4.1273,4.2007,4.2763,4.4103,4.4874,4.5204,4.6544,4.7051,4.6989,4.7497,4.8139,4.8838,4.9341,5.0026,5.0717,5.0487,4.9936,4.9299,4.9107,4.9001,4.9001,4.9001,4.9001,4.9001,4.9001,4.9001,4.9001,4.9001,4.9001,4.9001,4.9001,4.9001,4.9001,4.9001,4.9001,4.9001,4.9001,4.9001,4.9001,4.9001,4.9001,4.9001,4.9001,4.9001,4.9001,4.9001,4.9001,5.0101,5.3112,5.3501,5.3501,5.3501,5.3501,5.3501,5.3501,5.3501,5.3501,5.3501,5.3501,5.3501,5.3501,5.3501,5.3501,5.3501,5.3501,5.1484,4.7309,4.7309,4.7309,4.7369,5.0002,5.1214]},{"header":{"parameterUnit":"m.s-1","parameterCategory":1,"la1":30.6,"la2":29.2853,"lo1":-89.7004,"lo2":-87.6739,"dx":0.0162,"dy":0.0183,"nx":112,"ny":82,"refTime":"2023-01-06T06:00:00:Z","depth":0,"parameterNumber":3,"parameterNumberName":"V-component_of_WINDS"},"data":[0.0,0.0,0.0,0.0,0.0,0.0,0.0,0.0,0.0,0.0,0.0,0.0,0.0,0.0,0.0,0.0,0.0,0.0,0.0,0.0,0.0,0.0,0.0,0.0,0.0,0.0,0.0,0.0,0.0,0.0,0.0,0.0,0.0,0.0,0.0,0.0,0.0,0.0,0.0,0.0,0.0,0.0,0.0,0.0,0.0,0.0,0.0,0.0,0.0,0.0,0.0,0.0,0.0,0.0,0.0,0.0,0.0,0.0,0.0,0.0,0.0,0.0,0.0,0.0,0.0,0.0,0.0,0.0,0.0,0.0,0.0,0.0,0.0,0.0,0.0,0.0,0.0,0.0,0.0,0.0,0.0,0.0,0.0,0.0,0.0,0.0,0.0,0.0,0.0,0.0,-2.2518,-2.3167,-2.4547,-2.4781,-2.3245,-2.3078,-2.1518,-1.7752,0.0,0.0,0.0,0.0,0.0,0.0,0.0,0.0,0.0,0.0,0.0,0.0,0.0,0.0,0.0,0.0,0.0,0.0,0.0,0.0,0.0,0.0,0.0,0.0,0.0,0.0,0.0,0.0,0.0,0.0,0.0,0.0,0.0,0.0,0.0,0.0,0.0,0.0,0.0,0.0,0.0,0.0,0.0,0.0,0.0,0.0,0.0,0.0,0.0,0.0,0.0,0.0,0.0,0.0,0.0,0.0,0.0,0.0,0.0,0.0,0.0,0.0,0.0,0.0,0.0,0.0,0.0,0.0,0.0,0.0,0.0,0.0,0.0,0.0,0.0,0.0,0.0,0.0,0.0,0.0,0.0,0.0,0.0,0.0,0.0,0.0,0.0,0.0,0.0,0.0,0.0,0.0,0.0,0.0,0.0,0.0,0.0,0.0,0.0,0.0,0.0,0.0,0.0,0.0,-2.1061,-2.3892,-2.4898,-2.4781,-2.3245,-2.3078,-2.1694,-1.8292,0.0,0.0,0.0,0.0,0.0,0.0,0.0,0.0,0.0,0.0,0.0,0.0,0.0,0.0,0.0,0.0,0.0,0.0,0.0,0.0,0.0,0.0,0.0,0.0,0.0,0.0,0.0,0.0,0.0,0.0,0.0,0.0,0.0,0.0,0.0,0.0,0.0,0.0,0.0,0.0,0.0,0.0,0.0,0.0,0.0,0.0,0.0,0.0,0.0,0.0,0.0,0.0,0.0,0.0,0.0,0.0,0.0,0.0,0.0,0.0,0.0,0.0,0.0,0.0,0.0,0.0,0.0,0.0,0.0,0.0,0.0,0.0,0.0,0.0,0.0,0.0,0.0,0.0,0.0,0.0,0.0,0.0,0.0,0.0,0.0,0.0,0.0,0.0,0.0,0.0,0.0,0.0,0.0,0.0,0.0,0.0,0.0,0.0,0.0,0.0,0.0,0.0,0.0,-2.0798,-2.1742,-2.4648,-2.4844,-2.4337,-2.3198,-2.3078,-2.1594,-1.799,-1.7613,0.0,0.0,0.0,0.0,0.0,0.0,0.0,0.0,0.0,0.0,0.0,0.0,0.0,0.0,0.0,0.0,0.0,0.0,0.0,0.0,0.0,0.0,0.0,0.0,0.0,0.0,0.0,0.0,0.0,0.0,0.0,0.0,0.0,0.0,0.0,0.0,0.0,0.0,0.0,0.0,0.0,0.0,0.0,0.0,0.0,0.0,0.0,0.0,0.0,0.0,0.0,0.0,0.0,0.0,0.0,0.0,0.0,0.0,0.0,0.0,0.0,0.0,0.0,0.0,0.0,0.0,0.0,0.0,0.0,0.0,0.0,0.0,0.0,0.0,0.0,0.0,0.0,0.0,0.0,0.0,0.0,0.0,0.0,0.0,0.0,0.0,0.0,0.0,0.0,0.0,0.0,0.0,0.0,0.0,0.0,0.0,0.0,0.0,0.0,0.0,0.0,0.0,-2.2802,-2.3421,-2.5384,-2.4939,-2.4151,-2.3399,-2.31,-2.1355,-1.7614,-1.7183,0.0,0.0,0.0,0.0,0.0,0.0,0.0,0.0,0.0,0.0,0.0,0.0,0.0,0.0,0.0,0.0,0.0,0.0,0.0,0.0,0.0,0.0,0.0,0.0,0.0,0.0,0.0,0.0,0.0,0.0,0.0,0.0,0.0,0.0,0.0,0.0,0.0,0.0,0.0,0.0,0.0,0.0,0.0,0.0,0.0,0.0,0.0,0.0,0.0,0.0,0.0,0.0,0.0,0.0,0.0,0.0,0.0,0.0,0.0,0.0,0.0,0.0,0.0,0.0,0.0,0.0,0.0,0.0,0.0,0.0,0.0,0.0,0.0,0.0,0.0,0.0,0.0,0.0,0.0,0.0,0.0,0.0,0.0,0.0,0.0,0.0,0.0,0.0,0.0,0.0,0.0,0.0,0.0,0.0,0.0,0.0,0.0,0.0,0.0,0.0,0.0,0.0,-2.3691,-2.5857,-2.6131,-2.5486,-2.4749,-2.3991,-2.2975,-2.0941,-1.7589,-1.6401,0.0,0.0,0.0,0.0,0.0,0.0,0.0,0.0,0.0,0.0,0.0,0.0,0.0,0.0,0.0,0.0,0.0,0.0,0.0,0.0,0.0,0.0,0.0,0.0,0.0,0.0,0.0,0.0,0.0,0.0,0.0,0.0,0.0,0.0,0.0,0.0,0.0,0.0,0.0,0.0,0.0,0.0,0.0,0.0,0.0,0.0,0.0,0.0,0.0,0.0,0.0,0.0,0.0,0.0,0.0,0.0,0.0,0.0,0.0,0.0,0.0,0.0,0.0,0.0,0.0,0.0,0.0,0.0,0.0,0.0,0.0,0.0,0.0,0.0,0.0,0.0,0.0,0.0,0.0,0.0,0.0,0.0,0.0,0.0,0.0,0.0,0.0,0.0,0.0,0.0,0.0,0.0,0.0,0.0,0.0,0.0,0.0,0.0,0.0,0.0,0.0,0.0,-2.2192,-2.404,-2.6572,-2.5691,-2.4671,-2.4029,-2.3615,-2.1493,-1.7124,0.0,0.0,0.0,0.0,0.0,0.0,0.0,0.0,0.0,0.0,0.0,0.0,0.0,0.0,0.0,0.0,0.0,0.0,0.0,0.0,0.0,0.0,0.0,0.0,0.0,0.0,0.0,0.0,0.0,0.0,0.0,0.0,0.0,0.0,0.0,0.0,0.0,0.0,0.0,0.0,0.0,0.0,0.0,0.0,0.0,0.0,0.0,0.0,0.0,0.0,0.0,0.0,0.0,0.0,0.0,0.0,0.0,0.0,0.0,0.0,0.0,0.0,0.0,0.0,0.0,0.0,0.0,0.0,0.0,0.0,0.0,0.0,0.0,0.0,0.0,0.0,0.0,0.0,0.0,0.0,0.0,0.0,0.0,0.0,0.0,0.0,0.0,0.0,0.0,0.0,0.0,0.0,0.0,0.0,0.0,0.0,0.0,0.0,0.0,0.0,0.0,0.0,-2.0125,-2.1815,-2.3838,-2.6489,-2.574,-2.4921,-2.4531,-2.4029,-2.1744,-1.7087,0.0,0.0,0.0,0.0,0.0,0.0,0.0,0.0,0.0,0.0,0.0,0.0,0.0,0.0,0.0,0.0,0.0,0.0,0.0,0.0,0.0,0.0,0.0,0.0,0.0,0.0,0.0,0.0,0.0,0.0,0.0,0.0,0.0,0.0,0.0,0.0,0.0,0.0,0.0,0.0,0.0,0.0,0.0,0.0,0.0,0.0,0.0,0.0,0.0,0.0,0.0,0.0,0.0,0.0,0.0,0.0,0.0,0.0,0.0,0.0,0.0,0.0,0.0,0.0,0.0,0.0,0.0,0.0,0.0,0.0,0.0,0.0,0.0,0.0,0.0,0.0,0.0,0.0,0.0,0.0,0.0,0.0,0.0,0.0,0.0,0.0,0.0,0.0,0.0,0.0,0.0,0.0,0.0,0.0,0.0,0.0,0.0,0.0,0.0,0.0,0.0,0.0,-1.9001,-2.3105,-2.5964,-2.5915,-2.5703,-2.5598,-2.5598,-2.4104,-2.1506,0.0,0.0,0.0,0.0,0.0,0.0,0.0,0.0,0.0,0.0,0.0,0.0,0.0,0.0,0.0,0.0,0.0,0.0,0.0,0.0,0.0,0.0,0.0,0.0,0.0,0.0,0.0,0.0,0.0,0.0,0.0,0.0,0.0,0.0,0.0,0.0,0.0,0.0,0.0,0.0,0.0,0.0,0.0,0.0,0.0,0.0,0.0,0.0,0.0,0.0,0.0,0.0,0.0,0.0,0.0,0.0,0.0,0.0,0.0,0.0,0.0,0.0,0.0,0.0,0.0,0.0,0.0,0.0,0.0,0.0,0.0,0.0,0.0,0.0,0.0,0.0,0.0,0.0,0.0,0.0,0.0,0.0,0.0,0.0,0.0,0.0,0.0,0.0,0.0,0.0,0.0,0.0,0.0,0.0,0.0,0.0,0.0,0.0,0.0,0.0,0.0,0.0,0.0,-1.9387,-2.3298,-2.6126,-2.6559,-2.637,-2.6038,-2.5636,-2.5146,-2.2736,-1.7702,0.0,0.0,0.0,0.0,0.0,0.0,0.0,0.0,0.0,0.0,0.0,0.0,0.0,0.0,0.0,0.0,0.0,0.0,0.0,0.0,0.0,0.0,0.0,0.0,0.0,0.0,0.0,0.0,0.0,0.0,0.0,0.0,0.0,0.0,0.0,0.0,0.0,0.0,0.0,0.0,0.0,0.0,0.0,0.0,0.0,0.0,0.0,0.0,0.0,0.0,0.0,0.0,0.0,0.0,0.0,0.0,0.0,0.0,0.0,0.0,0.0,0.0,0.0,0.0,0.0,0.0,0.0,0.0,0.0,0.0,0.0,0.0,0.0,0.0,0.0,0.0,0.0,0.0,0.0,0.0,0.0,0.0,0.0,0.0,0.0,0.0,0.0,0.0,0.0,0.0,0.0,0.0,0.0,0.0,0.0,0.0,0.0,0.0,0.0,0.0,0.0,0.0,-1.8763,-2.3224,-2.631,-2.6089,-2.6311,-2.6314,-2.5963,-2.5724,-2.3803,-1.961,0.0,0.0,0.0,0.0,0.0,0.0,0.0,0.0,0.0,0.0,0.0,0.0,0.0,0.0,0.0,0.0,0.0,0.0,0.0,0.0,0.0,0.0,0.0,0.0,0.0,0.0,0.0,0.0,0.0,0.0,0.0,0.0,0.0,0.0,0.0,0.0,0.0,0.0,0.0,0.0,0.0,0.0,0.0,0.0,0.0,0.0,0.0,0.0,0.0,0.0,0.0,0.0,0.0,0.0,0.0,0.0,0.0,0.0,0.0,0.0,0.0,0.0,0.0,0.0,0.0,0.0,0.0,0.0,0.0,0.0,0.0,0.0,0.0,0.0,0.0,0.0,0.0,0.0,0.0,0.0,0.0,0.0,0.0,0.0,0.0,0.0,0.0,0.0,0.0,0.0,0.0,0.0,0.0,0.0,0.0,0.0,0.0,0.0,0.0,0.0,0.0,0.0,-1.7599,-2.3062,-2.6472,-2.4999,-2.5875,-2.6596,-2.6596,-2.605,-2.477,-2.246,0.0,0.0,0.0,0.0,0.0,0.0,0.0,0.0,0.0,0.0,0.0,0.0,0.0,0.0,0.0,0.0,0.0,0.0,0.0,0.0,0.0,0.0,0.0,0.0,0.0,0.0,0.0,0.0,0.0,0.0,0.0,0.0,0.0,0.0,0.0,0.0,0.0,0.0,0.0,0.0,0.0,0.0,0.0,0.0,0.0,0.0,0.0,0.0,0.0,0.0,0.0,0.0,0.0,0.0,0.0,0.0,0.0,0.0,0.0,0.0,-0.3035,-0.0186,0.0,0.0,0.0,0.0,0.0,0.0,0.0,0.0,0.0,0.0,0.0,0.0,0.0,0.0,0.0,0.0,0.0,0.0,0.0,0.0,0.0,0.0,0.0,0.0,0.0,0.0,0.0,0.0,0.0,0.0,0.0,0.0,0.0,0.0,0.0,0.0,0.0,0.0,0.0,0.0,-1.7652,-2.3062,-2.662,-2.557,-2.644,-2.7105,-2.7105,-2.6992,-2.5598,-2.251,-2.1242,0.0,0.0,0.0,0.0,0.0,0.0,0.0,0.0,0.0,0.0,0.0,0.0,0.0,0.0,0.0,0.0,0.0,0.0,0.0,0.0,0.0,0.0,0.0,0.0,0.0,0.0,0.0,0.0,0.0,0.0,0.0,0.0,0.0,0.0,0.0,0.0,0.0,0.0,0.0,0.0,0.0,0.0,0.0,0.0,0.0,0.0,0.0,0.0,0.0,0.0,0.0,0.0,0.0,0.0,0.0,0.0,0.0,0.0,0.0,-0.9046,-0.5624,0.0,0.0,0.0,0.0,0.0,0.0,0.0,0.0,0.0,0.0,0.0,0.0,0.0,0.0,0.0,0.0,0.0,0.0,0.0,0.0,0.0,0.0,0.0,0.0,0.0,0.0,0.0,0.0,0.0,0.0,0.0,0.0,0.0,0.0,0.0,0.0,0.0,0.0,0.0,0.0,-1.7639,-2.3307,-2.6921,-2.576,-2.6841,-2.767,-2.767,-2.767,-2.6942,-2.5209,-2.3326,0.0,0.0,0.0,0.0,0.0,0.0,0.0,0.0,0.0,0.0,0.0,0.0,0.0,0.0,0.0,0.0,0.0,0.0,0.0,0.0,0.0,0.0,0.0,0.0,0.0,0.0,0.0,0.0,0.0,0.0,0.0,0.0,0.0,0.0,0.0,0.0,0.0,0.0,0.0,0.0,0.0,0.0,0.0,0.0,0.0,0.0,0.0,0.0,0.0,0.0,0.0,0.0,0.0,-1.3302,-1.6649,-2.2236,-2.2811,-2.3078,-2.2765,-1.6414,-1.36,-1.317,-0.9674,0.0,0.0,0.0,0.0,0.0,0.0,0.0,0.0,0.0,0.0,0.0,0.0,0.0,0.0,0.0,0.0,0.0,0.0,0.0,0.0,0.0,0.0,-1.4163,-1.5579,-1.7045,-1.772,-1.6348,0.0,0.0,0.0,0.0,0.0,0.0,0.0,0.0,0.0,0.0,0.0,-1.8395,-2.3744,-2.7147,-2.5996,-2.7306,-2.8247,-2.8247,-2.8247,-2.821,-2.8109,-2.5523,-2.3577,0.0,0.0,0.0,0.0,0.0,0.0,0.0,0.0,0.0,0.0,0.0,0.0,0.0,0.0,0.0,0.0,0.0,0.0,0.0,0.0,0.0,0.0,0.0,0.0,0.0,0.0,0.0,0.0,0.0,0.0,0.0,0.0,-1.0118,-1.0162,0.0,0.0,0.0,0.0,0.0,0.0,0.0,0.0,0.0,0.0,0.0,0.0,0.0,-1.3806,-1.2839,-1.2957,-1.2908,-1.2721,-1.5768,-1.7685,-1.8708,-2.1724,-2.3078,-2.3015,-2.2056,0.0,-2.1017,-1.402,0.0,0.0,0.0,0.0,0.0,0.0,0.0,0.0,0.0,0.0,0.0,0.0,0.0,0.0,0.0,0.0,0.0,0.0,0.0,0.0,0.0,0.0,-1.5466,-1.9089,-2.0445,-2.0907,-2.0657,-1.7981,-1.5419,-1.4752,-1.5146,-1.4868,0.0,0.0,0.0,0.0,0.0,0.0,-2.1424,-2.4669,-2.6909,-2.7082,-2.8122,-2.8825,-2.8825,-2.8825,-2.8612,-2.8134,-2.7695,-2.6339,-2.3879,-2.2422,0.0,0.0,0.0,0.0,0.0,0.0,0.0,0.0,0.0,0.0,0.0,0.0,0.0,0.0,0.0,0.0,0.0,0.0,0.0,0.0,0.0,0.0,0.0,0.0,0.0,0.0,0.0,0.0,0.0,-0.8214,-0.9609,-0.8907,-0.9944,-1.0276,0.0,0.0,0.0,0.0,0.0,0.0,0.0,0.0,0.0,-1.2665,-1.5652,-1.6857,-1.5869,-1.7751,-1.8665,-1.8584,-2.0092,-2.0818,-2.0856,-2.2392,-2.3078,-2.3078,-2.3078,-2.3078,-2.2841,-1.9501,-1.5738,-1.1853,0.0,0.0,0.0,0.0,-0.618,-0.6161,-0.5383,-0.4665,-0.4019,-0.3481,0.0,0.0,0.0,0.0,0.0,0.0,0.0,-0.4088,-1.044,-1.3621,-1.6171,-2.0195,-2.1355,-2.1568,-2.1882,-2.0865,-1.9346,-1.7551,-1.7238,-1.6357,-1.3605,-1.4498,0.0,0.0,0.0,-2.1021,-2.1982,-2.5362,-2.7683,-2.7728,-2.8736,-2.9415,-2.9415,-2.9415,-2.9315,-2.9063,-2.875,-2.8034,-2.6816,-2.4506,-2.1681,0.0,0.0,0.0,0.0,0.0,0.0,0.0,0.0,0.0,0.0,0.0,0.0,0.0,0.0,0.0,0.0,0.0,0.0,0.0,0.0,0.0,0.0,0.0,0.0,0.0,0.0,0.0,0.0,-0.8837,-1.0189,-0.8623,-1.0062,-1.0925,0.0,0.0,0.0,0.0,0.0,0.0,-1.3628,-1.5627,-1.6336,-1.5405,-1.8611,-2.0025,-1.9396,-2.1837,-2.3078,-2.3078,-2.3078,-2.3078,-2.3078,-2.3288,-2.3364,-2.3364,-2.3514,-2.3503,-2.3478,-2.319,-2.0207,-1.5693,-1.4831,-1.3358,-1.163,-1.1146,-1.0928,-1.078,-1.0148,-0.929,-0.8311,-0.793,-0.7459,-0.6763,-0.5273,0.0,0.0,0.0,0.0,-0.7522,-1.1242,-1.4238,-1.7206,-2.0847,-2.192,-2.2246,-2.2648,-2.3175,-2.2815,-2.0473,-1.9987,-1.8929,-1.5905,-1.6993,0.0,-1.6669,-1.9871,-2.2738,-2.3521,-2.6371,-2.8347,-2.8346,-2.9177,-2.9792,-2.9792,-2.9792,-2.9854,-2.9993,-2.9465,-2.9214,-2.9352,-2.6728,-2.4343,-2.2385,0.0,0.0,0.0,0.0,0.0,0.0,0.0,0.0,0.0,0.0,0.0,0.0,0.0,0.0,0.0,0.0,0.0,0.0,0.0,0.0,0.0,0.0,0.0,0.0,0.0,0.0,0.0,0.0,0.0,-1.1907,-1.3254,0.0,0.0,0.0,0.0,-1.5265,-1.5893,-1.5876,-1.5331,-1.8124,-1.9525,-1.8851,-2.1476,-2.2867,-2.2836,-2.3037,-2.3078,-2.3078,-2.3078,-2.3078,-2.309,-2.3703,-2.3954,-2.3991,-2.4506,-2.4732,-2.4657,-2.3516,-2.0895,-1.7461,-1.6275,-1.4339,-1.2233,-1.1851,-1.1185,-1.0349,-0.9619,-0.8803,-0.8112,-0.7955,-0.8173,-0.8371,-0.7759,-0.8256,0.0,0.0,-0.9978,-1.2166,-1.5219,-1.7169,-1.9016,-2.1634,-2.3088,-2.3879,-2.3904,-2.4356,-2.4381,-2.3103,-2.3778,-2.3487,-2.0476,0.0,-2.1968,-2.2558,-2.272,-2.4059,-2.7602,-2.8126,-2.8321,-2.8812,-2.9428,-2.9792,-2.9792,-2.9792,-3.0018,-3.0545,-3.0055,-2.998,-3.0507,-2.934,-2.7419,-2.4707,-2.3464,0.0,0.0,0.0,0.0,0.0,0.0,0.0,0.0,0.0,0.0,0.0,0.0,0.0,0.0,0.0,0.0,0.0,0.0,0.0,0.0,0.0,0.0,0.0,0.0,0.0,0.0,0.0,0.0,-1.3645,-1.5546,0.0,-1.442,-1.4202,-1.4645,-1.5788,-1.7121,-1.7989,-1.8083,-2.0238,-2.153,-2.168,-2.2565,-2.3078,-2.3078,-2.3078,-2.3265,-2.369,-2.369,-2.3879,-2.423,-2.4431,-2.4519,-2.4544,-2.4745,-2.482,-2.4795,-2.4381,-2.3418,-2.2137,-2.1188,-2.0616,-2.027,-1.9574,-1.9066,-1.8592,-1.775,-1.6878,-1.6007,-1.5087,-1.4905,-1.4641,-1.2421,-1.2257,-1.2373,-1.0624,-1.2497,-1.542,-1.7009,-1.956,-2.2106,-2.3555,-2.4494,-2.5134,-2.5498,-2.6013,-2.6389,-2.6339,-2.5787,-2.4607,-2.245,-2.3647,-2.4493,-2.3251,-2.458,-2.632,-2.801,-2.8442,-2.8862,-2.9415,-2.9965,-3.034,-3.034,-3.0658,-3.0896,-3.1097,-3.0934,-3.0909,-3.111,-3.0721,-2.9553,-2.7507,-2.7067,-2.3904,0.0,0.0,0.0,0.0,0.0,0.0,0.0,0.0,0.0,0.0,0.0,0.0,0.0,0.0,0.0,0.0,0.0,0.0,0.0,0.0,0.0,0.0,0.0,0.0,0.0,-1.2382,-1.5112,-1.4939,-1.6883,-1.7839,-1.6734,-1.6321,-1.6631,-1.7767,-1.916,-2.0123,-2.0484,-2.1822,-2.2761,-2.3065,-2.3078,-2.3165,-2.3427,-2.3427,-2.3715,-2.428,-2.428,-2.4469,-2.4833,-2.5008,-2.5084,-2.5096,-2.5285,-2.5372,-2.5372,-2.5372,-2.5372,-2.5269,-2.4333,-2.4263,-2.4743,-2.4177,-2.3466,-2.2698,-2.1484,-2.07,-2.0022,-1.915,-1.8841,-1.8462,-1.6227,-1.5987,-1.6069,-1.4153,-1.5975,-1.8731,-1.9475,-2.1844,-2.4206,-2.4912,-2.5636,-2.6276,-2.6653,-2.7318,-2.7946,-2.831,-2.7331,-2.6038,-2.4757,-2.5912,-2.6389,-2.4531,-2.6302,-2.7896,-2.8084,-2.8938,-2.9655,-3.003,-3.0541,-3.0891,-3.0891,-3.0641,-3.0884,-3.1625,-3.0972,-3.0896,-3.1637,-3.0771,-2.9767,-2.8674,-2.7921,-2.4921,-1.9572,0.0,0.0,0.0,0.0,0.0,0.0,0.0,0.0,0.0,0.0,0.0,0.0,0.0,0.0,0.0,0.0,0.0,0.0,0.0,0.0,0.0,0.0,0.0,-0.8798,-1.4,-1.7395,-1.6022,-1.7486,-1.8729,-1.9103,-1.8269,-1.8771,-2.1338,-2.2013,-2.2314,-2.2309,-2.2857,-2.309,-2.3078,-2.3103,-2.3452,-2.3991,-2.4017,-2.4305,-2.4845,-2.4845,-2.4858,-2.4895,-2.5385,-2.5624,-2.5649,-2.6214,-2.6533,-2.6533,-2.6533,-2.6533,-2.642,-2.5285,-2.4793,-2.4833,-2.4811,-2.3603,-2.1744,-1.9925,-1.936,-1.9331,-1.9331,-1.9335,-1.9245,-1.8825,-1.9277,-1.9853,-1.9443,-2.0629,-2.2072,-2.2573,-2.3835,-2.5121,-2.556,-2.6515,-2.7331,-2.7331,-2.8185,-2.895,-2.895,-2.8524,-2.7996,-2.7457,-2.7808,-2.7795,-2.6798,-2.7946,0.0,-2.8247,-2.9616,-3.062,-3.057,-3.1035,-3.1336,-3.1336,-2.9892,-2.9917,-3.2102,-3.0231,-3.0018,-3.2152,-2.9679,-2.8247,-2.8235,-2.6038,-2.4079,-2.241,0.0,0.0,0.0,0.0,0.0,0.0,0.0,0.0,0.0,0.0,0.0,0.0,0.0,0.0,0.0,0.0,0.0,0.0,0.0,0.0,0.0,-0.9998,-1.2847,-1.3408,-1.5971,-1.8279,-1.9746,-2.1008,-2.1873,-2.1979,-2.175,-2.1871,-2.2571,-2.2777,-2.2865,-2.2857,-2.3441,-2.3565,-2.309,-2.3929,-2.4243,-2.4004,-2.4393,-2.4858,-2.5385,-2.5385,-2.5598,-2.6013,-2.6163,-2.6226,-2.6239,-2.6458,-2.6533,-2.6533,-2.6533,-2.6533,-2.6496,-2.6126,-2.5555,-2.4927,-2.4921,-2.3722,-2.1846,-2.0661,-2.0236,-2.0216,-2.0234,-2.0254,-2.0197,-2.0088,-2.0205,-2.0361,-2.0244,-2.1106,-2.2221,-2.3054,-2.4415,-2.5805,-2.6631,-2.767,-2.8473,-2.8473,-2.9051,-2.9553,-2.9553,-2.9428,-2.9277,-2.9126,-2.9227,-2.9227,-2.8925,-2.9603,-3.0093,-2.9942,-3.0658,-3.0721,-2.9515,-2.9892,-3.0231,-3.0231,-3.0181,-3.0922,-3.2729,-3.2265,-3.2215,-3.2817,-3.2114,-3.1512,-3.1085,-2.8134,-2.5975,0.0,0.0,0.0,0.0,0.0,0.0,0.0,0.0,0.0,0.0,0.0,0.0,0.0,0.0,0.0,0.0,0.0,0.0,0.0,0.0,0.0,0.0,-1.2077,-1.4464,-1.6507,-1.8227,-1.9858,-2.1342,-2.2464,-2.3078,-2.3078,-2.3078,-2.3078,-2.3078,-2.3364,-2.3502,-2.3502,-2.4029,-2.4192,-2.3853,-2.4481,-2.477,-2.4669,-2.4983,-2.5423,-2.5963,-2.5963,-2.6138,-2.6533,-2.6533,-2.6533,-2.6533,-2.6533,-2.6533,-2.6452,-2.6071,-2.6096,-2.6533,0.0,0.0,0.0,0.0,-2.2979,-2.1838,-2.0954,-2.0566,-2.0596,-2.0781,-2.084,-2.0879,-2.1064,-2.1113,-2.1113,-2.1113,-2.157,-2.2169,-2.3144,-2.426,-2.5398,-2.6332,-2.7597,-2.8537,-2.8537,-2.922,-2.9792,-2.9792,-2.9792,0.0,-3.0093,-3.0143,-2.998,-2.9503,-3.0294,-3.0771,-3.0331,-3.1135,-3.1373,-3.0407,-3.0821,-3.116,-3.116,-3.0821,0.0,0.0,0.0,-3.1938,-3.1712,-3.17,0.0,0.0,0.0,-2.7645,-2.7695,-2.5862,0.0,0.0,-2.1594,-2.0953,0.0,0.0,0.0,0.0,0.0,0.0,0.0,0.0,0.0,0.0,0.0,0.0,0.0,0.0,0.0,0.0,-1.4046,-1.498,-1.8236,-2.0189,-2.1319,-2.1469,-2.2371,-2.3002,-2.3065,-2.3078,-2.3103,-2.3165,-2.3703,-2.4029,-2.4092,-2.4607,0.0,0.0,0.0,-2.5197,-2.5598,-2.5661,-2.595,-2.6533,-2.6533,-2.6533,-2.6533,-2.6533,-2.6533,-2.6533,-2.6533,-2.6533,-2.6427,-2.5517,-2.5628,-2.6357,-2.6233,-2.556,-2.4426,-2.251,-2.1869,-2.1791,-2.0947,0.0,0.0,-2.1182,-2.1309,-2.1387,-2.1768,-2.1885,-2.1885,-2.1885,-2.1885,-2.2113,-2.3101,-2.384,-2.4598,-2.5561,-2.7069,-2.8267,-2.8267,-2.9106,-2.9817,-2.988,-2.988,-3.0055,-3.0608,-3.0658,-3.0294,-2.9352,-3.0507,-3.1135,-3.0181,-3.1386,-3.224,-3.2051,-3.2491,0.0,-3.2805,-3.1449,-3.1348,-3.3068,-3.1851,-3.0859,-3.0369,-3.0344,-3.0105,-2.9591,-2.9101,-2.9553,-3.0984,-3.0495,-3.0218,-3.003,-2.4343,-2.2786,0.0,0.0,0.0,0.0,0.0,0.0,0.0,0.0,0.0,0.0,0.0,0.0,0.0,0.0,0.0,-1.6411,-1.6256,-1.6567,-1.8454,-1.9432,-2.0363,-2.1383,-2.2093,-2.2648,-2.3027,-2.3078,-2.3326,-2.3803,-2.3941,-2.4192,-2.4644,-2.5159,-2.5259,-2.4833,-2.5686,-2.5963,-2.5598,-2.6063,-2.6352,-2.6533,-2.6533,0.0,-2.6533,-2.6533,-2.6533,-2.6533,-2.6533,-2.6533,-2.6452,-2.6308,-2.6027,-2.5666,-2.4504,-2.3452,-2.2461,-2.1302,-2.1114,-2.1332,-2.1123,-2.1338,-2.1641,-2.1738,-2.1758,-2.1777,-2.1865,-2.1885,0.0,-2.1885,-2.1885,-2.2113,-2.3101,-2.4395,-2.5721,-2.6753,-2.8222,-2.9456,-2.9456,-2.9624,-2.993,-3.0369,-3.0457,-3.062,-3.1148,-3.0896,-3.0683,-3.0884,-3.1562,-3.1976,-3.1775,-3.2428,-3.2403,-3.1072,-3.1022,-3.1085,-3.1085,-3.0809,-3.1512,-3.3608,-3.3859,-3.3884,-3.3771,-3.3771,-3.3721,-3.3608,-3.3495,-3.3382,-3.3269,-3.3156,-3.2867,-3.2365,-2.9402,-2.8499,0.0,0.0,0.0,0.0,0.0,0.0,0.0,0.0,0.0,0.0,0.0,-1.6805,-1.6797,0.0,-1.5619,-1.6729,-1.6379,-1.6452,-1.7912,-1.8432,-1.9347,-2.1274,-2.1988,-2.2648,-2.3489,-2.3565,-2.3803,-2.4368,-2.4657,-2.4921,-2.5197,-2.5724,-2.5912,-2.5649,-2.6176,-2.6395,-2.6025,-2.6382,-2.6533,-2.6533,-2.6533,-2.6533,-2.6533,-2.6533,-2.6533,-2.6533,-2.6533,-2.6665,-2.6929,-2.7189,-2.6566,-2.5348,-2.4578,-2.3569,-2.2546,-2.157,-2.1367,-2.1562,-2.1562,-2.1699,-2.1924,-2.2129,-2.2197,-2.2236,-2.2451,-2.251,-2.251,-2.251,-2.251,-2.2745,-2.3774,-2.4676,-2.5601,-2.6657,-2.7929,-2.901,-2.9279,-2.9774,-3.0369,-3.0896,-3.0997,-3.1173,-3.1712,-3.1587,-3.1499,-3.1763,-3.229,-3.2641,-3.2641,-3.2893,-3.2767,-3.1938,-3.1851,-3.1964,-3.224,-3.2516,-3.3144,-3.4248,-3.4562,-3.4726,-3.4726,-3.4726,-3.4726,-3.4726,-3.4726,-3.4587,-3.4311,-3.4311,-3.4173,-3.3872,-3.2767,-3.2114,0.0,0.0,0.0,0.0,0.0,0.0,0.0,-2.1473,-2.0401,-1.8319,-1.7403,-1.7151,-1.7689,-1.657,-1.5809,-1.6523,-1.5911,-1.5928,-1.7399,-1.7609,-1.8559,-2.1176,-2.1882,-2.2636,-2.3879,-2.4004,-2.4268,-2.4921,-2.536,-2.5649,-2.5762,-2.6214,-2.6533,-2.6533,-2.6533,-2.6533,-2.6533,-2.6533,-2.6533,-2.6533,-2.6533,-2.6533,-2.6533,-2.6533,-2.6527,-2.664,-2.6741,-2.7043,-2.7456,-2.7553,-2.6721,-2.5194,-2.481,-2.4089,-2.3186,-2.2254,-2.1934,-2.2012,-2.2012,-2.206,-2.2187,-2.2519,-2.2637,-2.2695,-2.3037,-2.3135,-2.3135,-2.3387,-2.3299,-2.3387,-2.4542,-2.502,-2.5518,-2.6451,-2.751,-2.8593,-2.9268,-2.989,-3.0667,-3.1449,-3.1549,-3.1725,-3.229,-3.2378,-3.2378,-3.2378,-3.278,-3.3081,-3.3081,-3.3081,-3.3119,-3.3219,-3.3232,-3.3458,-3.401,-3.4562,-3.4876,-3.4876,-3.4977,-3.5039,-3.5039,-3.5039,-3.5039,-3.5039,-3.5039,-3.5039,-3.5039,-3.5039,-3.5039,-3.5039,-3.5039,-3.4512,-1.7217,-2.0025,-2.2299,-2.4176,-2.2122,-1.9831,0.0,-2.023,-1.9536,-1.8403,-1.8086,-1.8138,-1.843,-1.7212,-1.6498,-1.7315,-1.6299,-1.5911,-1.7379,-1.7622,-1.8559,-2.1176,-2.1543,-2.2209,-2.3841,-2.4004,-2.4418,-2.5435,-2.5561,-2.5824,-2.6339,-2.6496,-2.6533,-2.6533,-2.6533,-2.6533,-2.6533,-2.6533,-2.6533,-2.6533,-2.6533,-2.6533,-2.6533,-2.6533,-2.6779,-2.7247,-2.769,-2.7972,-2.7863,-2.6493,-2.5749,-2.5387,-2.3927,-2.3238,-2.2977,-2.2242,-2.2119,-2.2441,-2.2441,-2.2685,-2.3008,-2.3057,-2.3066,-2.3076,-2.3125,-2.3135,-2.3299,-2.4296,-2.3877,-2.3387,-2.4542,-2.586,-2.7037,-2.7217,-2.8391,-2.9762,-3.0852,-3.0358,-3.017,-3.1834,-3.2127,-3.2303,-3.288,-3.298,-3.298,-3.298,-3.3031,-3.3081,-3.3081,-3.3081,-3.3269,-3.3759,-3.3809,-3.4035,-3.4575,-3.514,-3.5454,-3.5454,-3.5906,-3.6182,-3.6182,-3.6182,-3.6182,-3.6182,-3.6182,-3.6182,-3.6182,-3.6182,-3.6182,-3.6182,-3.6182,-3.5855,-1.4755,-1.6705,-1.8327,-2.0192,-1.9464,-1.8538,-1.9352,-1.9377,-1.8682,-1.6918,-1.6587,-1.6615,-1.6723,-1.6225,-1.5912,-1.6267,-1.5782,-1.5748,-1.681,-1.7302,-1.8393,-2.0588,-2.0971,-2.192,-2.4255,-2.4481,-2.4933,-2.6013,-2.6101,-2.6201,-2.6521,-2.6533,-2.6533,-2.6533,-2.6533,-2.6533,-2.6533,-2.6533,-2.6533,-2.6533,-2.6533,-2.6533,-2.6546,-2.6854,-2.7243,-2.7776,-2.8311,-2.8558,-2.8549,-2.8186,-2.7648,-2.6894,-2.5557,-2.4638,-2.3998,-2.2992,-2.2725,-2.2881,-2.2881,-2.2988,-2.3135,-2.3135,-2.3135,-2.3135,-2.3135,-2.3135,-2.3222,-2.3714,-2.3652,-2.3772,-2.4871,-2.5902,-2.6769,-2.7356,-2.8556,-2.9833,-3.0652,-3.099,-3.1415,-3.2506,-3.2717,-3.2792,-3.3031,-3.3081,-3.3081,-3.3081,-3.3081,-3.3081,-3.3081,-3.3357,-3.3771,-3.4324,-3.469,-3.4929,-3.5168,-3.5655,-3.6019,-3.6019,-3.6232,-3.6358,-3.6358,-3.6358,-3.6358,-3.6358,-3.6358,-3.6358,-3.6358,-3.6358,-3.6358,-3.6358,-3.6358,-3.6232,-1.3428,-1.4364,-1.5138,-1.6439,-1.6383,-1.6192,-1.7074,-1.7404,-1.714,-1.5668,-1.541,-1.541,-1.541,-1.541,-1.541,-1.541,-1.541,-1.5642,-1.6379,-1.7146,-1.8225,-1.9987,-2.0643,-2.187,-2.4356,-2.4594,-2.5109,-2.6433,-2.6533,-2.6533,-2.6533,-2.6533,-2.6533,-2.6533,-2.6533,-2.6533,-2.6533,-2.6533,-2.6533,-2.6533,-2.6533,-2.659,-2.6771,-2.7435,-2.7974,-2.8363,-2.8928,-2.9125,-2.9101,-2.8929,-2.8431,-2.7522,-2.613,-2.5052,-2.4211,-2.3387,-2.3135,-2.3135,-2.3135,-2.3135,-2.3135,-2.3135,-2.3135,-2.3135,-2.3135,-2.3135,-2.3164,-2.3622,-2.3801,-2.4078,-2.5316,-2.6214,-2.7001,-2.7778,-2.9017,-3.0286,-3.1026,-3.1553,-3.2116,-3.2993,-3.3081,-3.3031,-3.2867,-3.2968,-3.2968,-3.2654,-3.288,-3.3131,-3.3282,-3.3922,-3.4487,-3.4851,-3.5432,-3.5722,-3.5722,-3.6175,-3.6358,-3.6358,-3.6358,-3.6358,-3.6358,-3.6358,-3.6358,-3.6358,-3.6358,-3.6358,-3.6358,-3.6358,-3.6358,-3.6358,-3.6358,-3.6358,-1.4508,-1.4715,-1.4833,-1.4428,-1.3135,-1.2174,-1.2976,-1.376,-1.4542,-1.5225,-1.541,-1.541,-1.541,-1.541,-1.541,-1.541,-1.541,-1.5642,-1.6379,-1.7146,-1.81,-1.9487,-2.0742,-2.2146,-2.3853,-2.4017,-2.4707,-2.6408,-2.6533,-2.6533,-2.6533,-2.6533,-2.6533,-2.6533,-2.6533,-2.6533,-2.6533,-2.6533,-2.6533,-2.6533,-2.6533,-2.6764,-2.7322,-2.8362,-2.8856,-2.8907,-2.954,-2.9754,-2.9624,-2.7485,-2.6613,-2.6307,-2.4059,-2.3222,-2.3135,-2.3135,-2.3135,-2.3135,-2.3135,-2.3135,-2.3135,-2.3135,-2.3135,-2.3135,-2.3135,-2.3135,-2.3388,-2.4928,-2.4553,-2.4147,-2.5709,-2.741,-2.8757,-2.8757,-3.0012,-3.1452,-3.2772,-3.2115,-3.1577,-3.2884,-3.3081,-3.2893,-3.234,-3.2704,-3.2704,-3.1612,-3.2378,-3.3269,-3.3809,-3.4826,-3.5454,-3.5432,-3.6024,-3.6332,-3.6332,-3.6345,-3.6358,-3.6358,-3.6358,-3.6358,-3.6358,-3.6358,-3.6358,-3.6358,-3.6358,-3.6358,-3.6358,-3.6358,-3.6358,-3.6358,-3.6358,-3.6358,-1.2605,-1.3134,-1.3563,-1.283,-1.2196,-1.2135,-1.3485,-1.4034,-1.4451,-1.5225,-1.7249,-1.8655,-1.802,-1.8431,-1.8677,-1.8031,-1.6471,-1.5468,-1.5758,-1.6425,-1.728,-1.8434,-1.9247,-2.0552,-2.25,-2.3786,-2.5084,-2.6433,-2.6533,-2.6533,-2.6533,-2.6533,-2.6533,-2.6533,-2.6533,-2.6533,-2.6533,-2.6533,-2.6533,-2.6533,-2.6891,-2.7284,-2.7863,-2.8594,-2.9096,-2.9489,-2.9719,-2.9792,-2.9714,-2.898,-2.78,-2.6389,-2.5641,-2.4392,-2.3135,-2.3135,-2.3135,-2.3135,-2.3135,-2.3135,-2.3135,-2.3135,-2.3135,-2.3193,-2.3486,-2.3574,-2.3742,-2.4516,-2.468,-2.4947,-2.6258,-2.6641,-2.7171,-2.8796,-2.9648,-3.0316,-3.1589,-3.2152,-3.2612,-3.2982,-3.3081,-3.2893,-3.2315,-3.2692,-3.2955,-3.2566,-3.2503,-3.2968,-3.4274,-3.4776,-3.5265,-3.6037,-3.6314,-3.6358,-3.6358,-3.6358,-3.6358,-3.6358,-3.6358,-3.6358,-3.6358,-3.6358,-3.6358,-3.6358,-3.6358,-3.6358,-3.6358,-3.6358,-3.6358,-3.6358,-3.6358,-3.6358,-1.1278,-1.175,-1.2193,-1.1512,-1.1344,-1.171,-1.3053,-1.3537,-1.4025,-1.4815,-1.7984,-2.0438,-1.9804,-2.0909,-2.1843,-2.1589,-1.9854,-1.8252,-1.7372,-1.7885,-1.8258,-1.7949,-1.8664,-1.9939,-2.1799,-2.3253,-2.4565,-2.5881,-2.6314,-2.6533,-2.6533,-2.6533,-2.6533,-2.6533,-2.6533,-2.6533,-2.6533,-2.6533,-2.6571,-2.6784,-2.7516,-2.7875,-2.7885,-2.8819,-2.9227,-2.9245,-2.9639,-2.9792,-2.9792,-2.9365,-2.8359,-2.7046,-2.6637,-2.5389,-2.3714,-2.3714,-2.3573,-2.335,-2.3193,-2.3242,-2.3369,-2.3369,-2.3477,-2.3643,-2.3926,-2.4014,-2.4102,-2.4531,-2.4853,-2.5287,-2.6182,-2.672,-2.7348,-2.8829,-2.9919,-3.0909,-3.1436,-3.2377,-3.3081,-3.3081,-3.3081,-3.2893,-3.2315,-3.2353,-3.2616,-3.3018,-3.2591,-3.2754,-3.4236,-3.46,-3.4986,-3.5724,-3.5993,-3.6043,-3.6043,-3.6307,-3.6358,-3.6358,-3.6358,-3.6358,-3.6358,-3.6358,-3.6358,-3.6358,-3.6358,-3.6358,-3.6358,-3.6358,-3.6358,-3.6358,-3.6358,-3.6358,-1.0588,-1.078,-1.0744,-1.0618,-1.0624,-1.0807,-1.167,-1.2474,-1.3329,-1.4314,-1.7908,-2.0864,-2.0969,-2.2783,-2.4576,-2.5384,-2.458,-2.3023,-2.0678,-2.0954,-2.0543,-1.8077,-1.896,-2.0331,-2.1683,-2.2317,-2.3296,-2.4743,-2.5804,-2.6465,-2.6533,-2.6533,-2.6533,-2.6533,-2.6533,-2.6533,-2.6533,-2.6546,-2.6835,-2.7334,-2.8408,-2.8313,-2.7385,-2.9063,-2.9151,-2.813,-2.9282,-2.9792,-2.9702,-2.8597,-2.8176,-2.8016,-2.6964,-2.5902,-2.4819,-2.4819,-2.4374,-2.3769,-2.335,-2.3477,-2.3828,-2.3828,-2.4092,-2.4424,-2.4443,-2.4453,-2.4541,-2.498,-2.5098,-2.5195,-2.5722,-2.7579,-2.9192,-2.8824,-3.0878,-3.2832,-3.2378,-3.2717,-3.3119,-3.3119,-3.3093,-3.2918,-3.239,-3.1813,-3.18,-3.2905,-3.2604,-3.2654,-3.3759,-3.4361,-3.4641,-3.4703,-3.5137,-3.5462,-3.5462,-3.5993,-3.6345,-3.6345,-3.6358,-3.6358,-3.6358,-3.6358,-3.6358,-3.6358,-3.6358,-3.6358,-3.6358,-3.6358,-3.6358,-3.6358,-3.6358,-3.6358,-0.9886,-1.0214,-1.0624,-1.0624,-1.0624,-1.1052,-1.2775,-1.3271,-1.4553,-1.8501,-2.1731,-2.4207,-2.5581,-2.497,-2.41,-2.3484,-2.0191,-1.7422,-1.6819,-1.7431,-1.783,-1.755,-1.8602,-1.9667,-2.0323,-2.145,-2.2316,-2.2742,-2.436,-2.5737,-2.6465,-2.6533,-2.6533,-2.6533,-2.6533,-2.6533,-2.6533,-2.6904,-2.7377,-2.7914,-2.8562,-2.8312,-2.7378,-2.9068,-2.9176,-2.813,-2.9282,-2.9792,-2.9792,-2.9456,-2.8858,-2.8084,-2.7775,-2.6673,-2.5236,-2.5236,-2.4842,-2.4238,-2.4131,-2.416,-2.4258,-2.4258,-2.4336,-2.4473,-2.4805,-2.4902,-2.499,-2.5439,-2.5566,-2.5779,-2.6819,-2.7579,-2.8473,-3.0154,-3.1128,-3.1916,-3.2696,-3.3294,-3.3696,-3.3696,-3.3357,-3.3156,-3.342,-3.2654,-3.2252,-3.2968,-3.2955,-3.3106,-3.3809,-3.4022,-3.4261,-3.4663,-3.4823,-3.4857,-3.4857,-3.5401,-3.5705,-3.5705,-3.6163,-3.6358,-3.6358,-3.6358,-3.6358,-3.6358,-3.6358,-3.6358,-3.6358,-3.6358,-3.6358,-3.6358,-3.6358,-3.6358,-1.0098,-1.0431,-1.0755,-1.0755,-1.0755,-1.139,-1.3678,-1.4553,-1.6019,-1.992,-2.3488,-2.6158,-2.711,-2.6623,-2.595,-2.5596,-2.2159,-1.92,-1.8119,-1.8545,-1.8611,-1.7784,-1.8623,-1.9531,-2.0137,-2.0887,-2.1573,-2.1991,-2.3419,-2.4811,-2.5778,-2.5847,-2.6071,-2.6452,-2.6533,-2.6582,-2.6821,-2.7651,-2.7916,-2.7741,-2.8774,-2.8232,-2.6302,-2.8724,-2.8656,-2.6747,-2.8868,-2.9534,-2.9106,-2.9611,-2.9443,-2.8882,-2.9114,-2.7964,-2.6206,-2.6411,-2.574,-2.4697,-2.4697,-2.4824,-2.4961,-2.4766,-2.4834,-2.5039,-2.5283,-2.5361,-2.541,-2.5664,-2.5742,-2.583,-2.6572,-2.722,-2.7902,-2.8945,-2.9873,-3.0586,-3.1223,-3.2301,-3.3313,-3.4122,-3.3822,-3.3533,-3.3847,-3.3169,-3.2704,-3.3031,-3.3081,-3.3194,-3.3495,-3.3533,-3.3695,-3.3972,-3.4186,-3.4325,-3.4325,-3.4855,-3.5149,-3.5162,-3.5692,-3.6006,-3.6006,-3.6307,-3.6358,-3.6358,-3.6358,-3.6358,-3.6358,-3.6358,-3.6358,-3.6358,-3.6358,-3.6358,-1.073,-1.0935,-1.0935,-1.0935,-1.0935,-1.1696,-1.4459,-1.5871,-1.7436,-2.0343,-2.4033,-2.6773,-2.6926,-2.7318,-2.7725,-2.8164,-2.5834,-2.3188,-2.084,-2.1014,-2.0556,-1.8272,-1.8867,-1.9746,-2.0498,-2.0566,-2.0966,-2.172,-2.2626,-2.37,-2.4929,-2.4993,-2.5492,-2.6452,-2.6596,-2.6773,-2.7187,-2.8288,-2.8346,-2.7228,-2.8814,-2.7915,-2.487,-2.8106,-2.787,-2.4966,-2.8373,-2.9118,-2.8176,-2.9365,-2.9829,-2.9955,-3.0261,-2.907,-2.735,-2.76,-2.6651,-2.5156,-2.5156,-2.541,-2.5674,-2.5283,-2.542,-2.5742,-2.5742,-2.5742,-2.5742,-2.5742,-2.5742,-2.5742,-2.5742,-2.6668,-2.7505,-2.7045,-2.8185,-2.9508,-2.9667,-3.1204,-3.3053,-3.4645,-3.45,-3.4098,-3.4022,-3.3558,-3.3156,-3.3081,-3.3081,-3.3081,-3.3081,-3.3081,-3.3081,-3.3081,-3.3515,-3.3801,-3.3801,-3.4264,-3.4615,-3.4551,-3.5102,-3.5394,-3.538,-3.5993,-3.6307,-3.6307,-3.6345,-3.6358,-3.6358,-3.6358,-3.6358,-3.6358,-3.6358,-3.6408,-1.0608,-1.0698,-1.0698,-1.0698,-1.0698,-1.1619,-1.5164,-1.6243,-1.8024,-2.3284,-2.4616,-2.5363,-2.6854,-2.5379,-2.3653,-2.2802,-2.0745,-1.8741,-1.7231,-1.8218,-1.8865,-1.8076,-1.9394,-2.04,-2.0557,-2.0566,-2.0664,-2.0858,-2.1018,-2.2227,-2.4873,-2.5004,-2.5492,-2.6452,-2.6907,-2.6962,-2.6626,-2.8111,-2.8118,-2.6652,-2.7808,-2.7096,-2.487,-2.7263,-2.7112,-2.4966,-2.8373,-2.9118,-2.8176,-2.9365,-3.0068,-3.039,-2.9452,-2.8815,-2.8244,-2.7265,-2.6329,-2.5625,-2.5625,-2.5674,-2.5723,-2.5644,-2.5674,-2.5742,-2.5742,-2.5742,-2.5742,-2.5742,-2.5742,-2.5742,-2.5742,-2.6668,-2.7662,-2.786,-2.891,-3.03,-3.1751,-3.3611,-3.5139,-3.5968,-3.5629,-3.5115,-3.4663,-3.4123,-3.3608,-3.3144,-3.3081,-3.3081,-3.3081,-3.3081,-3.3081,-3.3081,-3.3192,-3.3217,-3.3217,-3.3776,-3.4079,-3.4047,-3.4538,-3.4882,-3.4838,-3.5367,-3.568,-3.568,-3.6163,-3.6358,-3.6358,-3.6358,-3.6358,-3.6358,-3.6358,-3.6609,-1.1347,-1.1162,-1.0822,-1.0969,-1.0895,-1.1855,-1.6009,-1.728,-1.8918,-2.3431,-2.4329,-2.459,-2.5464,-2.3734,-2.2079,-2.1806,-1.9807,-1.8096,-1.7431,-1.8106,-1.8486,-1.8057,-1.9521,-2.0459,-2.0246,-2.045,-2.0566,-2.0566,-2.0566,-2.1396,-2.3345,-2.3959,-2.4405,-2.4929,-2.5487,-2.5984,-2.6521,-2.7005,-2.7313,-2.7287,-2.7302,-2.6399,-2.4855,-2.7133,-2.6528,-2.4156,-2.8063,-2.8863,-2.7383,-2.9426,-3.0382,-3.0511,-2.9916,-2.9213,-2.8432,-2.7519,-2.6571,-2.5742,-2.5742,-2.5742,-2.5742,-2.5742,-2.5742,-2.5742,-2.5742,-2.5742,-2.5742,-2.5742,-2.5908,-2.6074,-2.6074,-2.6714,-2.7309,-2.7511,-2.8708,-3.0285,-3.1888,-3.3624,-3.5264,-3.6213,-3.5918,-3.5466,-3.5203,-3.4462,-3.3809,-3.3545,-3.3257,-3.3081,-3.3081,-3.3081,-3.3081,-3.3081,-3.3081,-3.3081,-3.3081,-3.3354,-3.349,-3.349,-3.3964,-3.4285,-3.4282,-3.4823,-3.5069,-3.5108,-3.5594,-3.5931,-3.5931,-3.6219,-3.6358,-3.6358,-3.6358,-3.6659,-1.2239,-1.1904,-1.1465,-1.1503,-1.132,-1.2271,-1.6443,-1.7699,-1.8929,-2.2224,-2.3109,-2.3195,-2.3076,-2.1874,-2.109,-2.162,-2.0065,-1.875,-1.8533,-1.8742,-1.8702,-1.8223,-1.9507,-2.0352,-2.011,-2.0353,-2.0566,-2.0566,-2.0566,-2.0976,-2.1927,-2.2948,-2.3511,-2.3511,-2.4156,-2.4926,-2.5903,-2.5946,-2.63,-2.7023,-2.6424,-2.5518,-2.4466,-2.653,-2.5851,-2.3279,-2.7359,-2.8187,-2.6828,-2.9238,-3.0493,-3.0873,-3.0567,-2.9711,-2.87,-2.791,-2.6754,-2.5742,-2.5742,-2.5742,-2.5742,-2.5742,-2.5742,-2.5742,-2.5742,-2.5742,-2.5752,-2.585,-2.6123,-2.6406,-2.6494,-2.6768,-2.7041,-2.7139,-2.8574,-3.0088,-3.1174,-3.2989,-3.4678,-3.5763,-3.5818,-3.568,-3.5567,-3.4826,-3.4173,-3.3935,-3.3533,-3.3206,-3.3093,-3.3081,-3.3081,-3.3081,-3.3081,-3.3081,-3.3081,-3.3081,-3.3081,-3.3081,-3.3503,-3.3776,-3.3776,-3.4223,-3.4552,-3.4529,-3.5086,-3.5366,-3.5366,-3.5918,-3.6194,-3.6194,-3.6433,-3.6835,-1.3107,-1.2875,-1.2629,-1.1917,-1.1714,-1.2587,-1.5953,-1.6207,-1.6752,-1.9999,-2.0448,-2.0028,-1.9402,-1.9353,-1.954,-1.9952,-1.9935,-1.953,-1.8553,-1.9204,-1.9462,-1.8656,-1.9367,-2.0103,-2.0488,-2.0557,-2.0566,-2.0566,-2.0566,-2.0976,-2.1927,-2.2956,-2.3525,-2.3525,-2.4407,-2.4497,-2.3639,-2.548,-2.5456,-2.3587,-2.4476,-2.4388,-2.3281,-2.4563,-2.4402,-2.3279,-2.5703,-2.6987,-2.7313,-2.8527,-3.0211,-3.1897,-3.0845,-2.992,-2.9168,-2.8028,-2.6754,-2.5742,-2.5742,-2.5742,-2.5742,-2.5742,-2.5742,-2.5742,-2.5742,-2.5742,-2.582,-2.6221,-2.6357,-2.6475,-2.6865,-2.6982,-2.7119,-2.751,-2.8928,-3.0255,-3.0358,-3.2521,-3.4483,-3.4581,-3.5522,-3.6119,-3.5629,-3.5466,-3.5052,-3.4048,-3.3859,-3.3646,-3.3144,-3.3081,-3.3081,-3.3081,-3.3081,-3.3081,-3.3081,-3.3081,-3.3081,-3.3081,-3.3179,-3.3192,-3.3192,-3.3703,-3.3958,-3.3945,-3.4485,-3.4801,-3.4801,-3.5353,-3.5617,-3.5642,-3.6646,-3.74,-1.4457,-1.4022,-1.3545,-1.2883,-1.3186,-1.4088,-1.5903,-1.6378,-1.6795,-1.8007,-1.7685,-1.7257,-1.7455,-1.7077,-1.746,-1.9687,-1.9421,-1.9114,-1.9498,-1.969,-1.9567,-1.8781,-1.9515,-2.0075,-2.0192,-2.0446,-2.0566,-2.0566,-2.0566,-2.0761,-2.1171,-2.1504,-2.1873,-2.2129,-2.2477,-2.3103,-2.3801,-2.4023,-2.4452,-2.5165,-2.4176,-2.3859,-2.4102,-2.4574,-2.4145,-2.3212,-2.5486,-2.6579,-2.6903,-2.79,-2.9678,-3.1527,-2.9507,-2.8965,-2.9131,-2.721,-2.611,-2.5742,-2.5742,-2.5742,-2.5742,-2.5742,-2.5918,-2.6084,-2.582,-2.5918,-2.6162,-2.6338,-2.6758,-2.7197,-2.7363,-2.7598,-2.7832,-2.7998,-2.9181,-3.0525,-3.1327,-3.2342,-3.3662,-3.5259,-3.5367,-3.5402,-3.5975,-3.5768,-3.529,-3.4512,-3.4399,-3.4073,-3.3194,-3.337,-3.3445,-3.3106,-3.3081,-3.3081,-3.3081,-3.3081,-3.3081,-3.3081,-3.3081,-3.3081,-3.3081,-3.3341,-3.3455,-3.3458,-3.3972,-3.4223,-3.4223,-3.4776,-3.5052,-3.5077,-3.6169,-3.6985,-1.6287,-1.5894,-1.5332,-1.4939,-1.5223,-1.582,-1.6575,-1.6728,-1.6649,-1.6353,-1.5411,-1.4757,-1.5183,-1.4722,-1.5298,-1.8502,-1.8407,-1.8399,-1.9632,-1.9798,-1.9536,-1.8911,-1.938,-1.9839,-1.9989,-2.0397,-2.0566,-2.0566,-2.0566,-2.0566,-2.0566,-2.0693,-2.0937,-2.1157,-2.1481,-2.2269,-2.369,-2.3032,-2.3629,-2.5445,-2.3857,-2.3505,-2.4328,-2.4328,-2.3857,-2.3174,-2.4968,-2.6238,-2.6976,-2.7457,-2.9288,-3.1617,-2.9138,-2.868,-2.9131,-2.703,-2.6014,-2.5742,-2.5742,-2.582,-2.5937,-2.5937,-2.6221,-2.6514,-2.6211,-2.6328,-2.6602,-2.6728,-2.7295,-2.7851,-2.7851,-2.8066,-2.8291,-2.8291,-2.9006,-3.0016,-3.0916,-3.1429,-3.2431,-3.4739,-3.4459,-3.4362,-3.6061,-3.5749,-3.5115,-3.4961,-3.4964,-3.4562,-3.3458,-3.3658,-3.3684,-3.3131,-3.3081,-3.3081,-3.3081,-3.3081,-3.3081,-3.3081,-3.3081,-3.3081,-3.3081,-3.3081,-3.3081,-3.3081,-3.3458,-3.3658,-3.3658,-3.4211,-3.4562,-3.4751,-3.5855,-3.6747,-1.8717,-1.8657,-1.8466,-1.8238,-1.7887,-1.7781,-1.8109,-1.694,-1.5698,-1.5217,-1.3733,-1.2459,-1.2192,-1.2242,-1.3187,-1.5837,-1.6725,-1.7443,-1.8484,-1.9246,-1.9525,-1.9075,-1.9018,-1.9329,-2.0149,-2.044,-2.0566,-2.0566,-2.0566,-2.0566,-2.0566,-2.0986,-2.123,-2.123,-2.2026,-2.2488,-2.2559,-2.2935,-2.3125,-2.3144,-2.3144,-2.3144,-2.3144,-2.3144,-2.3144,-2.3096,-2.3664,-2.545,-2.8049,-2.7222,-2.9319,-3.2871,-3.0316,-2.9407,-2.9223,-2.8049,-2.6754,-2.5742,-2.5742,-2.6016,-2.6387,-2.6387,-2.667,-2.7012,-2.7002,-2.7002,-2.71,-2.7529,-2.7959,-2.8281,-2.8281,-2.8291,-2.8291,-2.8291,-2.8291,-2.8291,-2.8291,-2.9408,-3.0721,-3.2129,-3.2331,-3.3231,-3.5953,-3.5271,-3.4691,-3.5419,-3.5449,-3.514,-3.4035,-3.3897,-3.3684,-3.3131,-3.3081,-3.3081,-3.3081,-3.3081,-3.3081,-3.3081,-3.3081,-3.3081,-3.3081,-3.3081,-3.3081,-3.3081,-3.3081,-3.3081,-3.3081,-3.3633,-3.4186,-3.4751,-3.5855,-3.6948,-1.7992,-1.7999,-1.7993,-1.8004,-1.8558,-1.8921,-1.8402,-1.7987,-1.7266,-1.564,-1.3743,-1.223,-1.1829,-1.0775,-1.1102,-1.4554,-1.4818,-1.5486,-1.8112,-1.9086,-1.9562,-1.9534,-1.9896,-2.0168,-2.043,-2.0557,-2.0566,-2.0566,-2.0566,-2.0566,-2.0566,-2.1279,-2.168,-2.168,-2.2221,-2.2597,-2.2879,-2.3027,-2.3135,-2.3135,-2.3135,-2.3135,-2.3135,-2.3135,-2.3135,-2.3174,-2.3609,-2.5242,-2.7428,-2.6206,-2.7854,-3.0997,-2.7993,-2.7389,-2.8038,-2.6754,-2.6014,-2.5742,-2.5742,-2.6025,-2.6387,-2.6387,-2.6875,-2.7461,-2.7461,-2.7461,-2.7549,-2.7969,-2.8193,-2.8291,-2.8291,-2.8291,-2.8291,-2.8291,-2.8291,-2.8601,-2.9513,-2.9303,-2.9608,-3.1825,-3.1531,-3.1531,-3.3342,-3.4056,-3.4304,-3.4149,-3.5256,-3.5705,-3.46,-3.4788,-3.4663,-3.3734,-3.3633,-3.3483,-3.3106,-3.3081,-3.3081,-3.3081,-3.3081,-3.3081,-3.3081,-3.3081,-3.3081,-3.3081,-3.3081,-3.3081,-3.3081,-3.3257,-3.401,-3.5303,-3.6019,-3.6948,-1.7658,-1.8227,-1.8566,-1.8881,-1.9662,-2.0197,-1.945,-1.9165,-1.8364,-1.5898,-1.3748,-1.2037,-1.1115,-0.9826,-0.9783,-1.2611,-1.312,-1.4221,-1.7256,-1.8493,-1.9316,-1.9871,-2.0584,-2.0874,-2.0453,-2.0547,-2.0566,-2.0566,-2.0566,-2.0566,-2.0566,-2.1406,-2.1885,-2.1885,-2.2424,-2.2847,-2.3135,-2.3135,-2.3135,-2.3135,-2.3135,-2.3135,-2.3135,-2.3135,-2.3203,-2.3415,-2.3789,-2.5218,0.0,-2.5845,-2.722,-2.9688,-2.6822,-2.6476,-2.741,-2.6197,-2.5742,-2.5762,-2.5928,-2.626,-2.665,-2.6816,-2.7334,-2.791,-2.791,-2.791,-2.7959,-2.8223,-2.8291,-2.8291,-2.8291,-2.8291,-2.8291,-2.8291,-2.8291,-2.8495,-2.9408,-2.89,-2.89,-3.1122,-3.0421,-3.012,-3.2028,-3.3055,-3.3656,-3.3825,-3.5338,-3.6044,-3.5152,-3.5328,-3.5203,-3.4299,-3.4022,-3.3759,-3.342,-3.3206,-3.3081,-3.3081,-3.3081,-3.3081,-3.3081,-3.3081,-3.3081,-3.3081,-3.3081,-3.3081,-3.3081,-3.3495,-3.4336,-3.5554,-3.6107,-3.6734,0.0,-1.89,-1.9811,-2.0482,-2.1043,-2.1313,-2.0945,-2.0333,0.0,-1.6116,-1.3865,-1.1916,-1.0255,-0.9289,-0.9102,-1.025,-1.1646,-1.3487,-1.6128,-1.7772,-1.9129,-2.0234,-2.1123,-2.1245,-2.0182,-2.044,-2.0566,-2.0566,-2.0566,-2.0566,-2.0566,-2.1377,-2.1855,-2.1885,-2.2609,-2.3047,-2.3135,-2.3135,-2.3135,-2.3135,-2.3135,-2.3135,-2.3135,-2.3135,-2.3367,-2.3808,-2.4198,-2.5272,-2.6836,-2.5978,-2.7179,-2.9131,-2.6744,-2.6572,-2.7505,-2.6294,-2.5752,-2.584,-2.625,-2.6689,-2.7139,-2.7568,-2.7978,-2.8291,-2.8291,-2.8291,-2.8291,-2.8291,-2.8291,-2.8291,-2.8291,-2.8291,-2.8291,-2.8291,-2.8291,-2.8291,-2.8291,-2.8291,-2.8698,-2.9911,-2.9102,-2.9102,-3.1633,-3.2129,-3.2744,-3.4068,-3.5475,-3.6182,-3.5667,-3.5604,-3.5391,-3.4839,-3.4324,-3.3997,-3.396,-3.342,-3.3081,-3.3081,-3.3081,-3.3081,-3.3081,-3.3081,-3.3081,-3.3081,-3.3081,-3.3093,-3.3131,-3.4211,-3.5002,-3.5554,-3.6107,-3.6358,-1.5054,0.0,-1.8354,-1.9988,-2.0456,-2.0494,0.0,-2.0241,-1.9372,-1.7083,-1.5014,-1.2966,-1.0888,-0.9186,-0.8469,-0.9561,-1.0046,-1.1691,-1.5713,-1.8877,-2.1079,-2.1888,-2.1592,-2.123,-2.0931,-2.0751,-2.0566,-2.0566,-2.0566,-2.0566,-2.0566,-2.1094,-2.1543,-2.1875,-2.237,-2.2804,-2.3135,-2.3135,-2.3135,-2.3135,-2.3135,-2.3135,-2.3135,-2.3135,-2.3378,-2.3851,-2.3933,-2.5037,-2.6804,-2.5734,-2.6879,-2.9223,-2.7767,-2.7315,-2.7589,-2.722,-2.6784,-2.625,-2.6357,-2.6885,-2.7578,-2.8008,-2.8213,-2.8291,-2.8291,-2.8291,-2.8291,-2.8291,-2.8291,-2.8291,-2.8291,-2.8291,-2.8291,-2.8291,-2.8291,-2.8291,-2.8291,-2.8291,-2.8388,-2.8698,-2.8495,-2.8495,-2.9102,-3.0916,-3.2443,-3.2744,-3.4848,-3.632,-3.6194,-3.6169,-3.5956,-3.5403,-3.524,-3.4989,-3.4562,-3.3633,-3.3081,-3.3081,-3.3081,-3.3081,-3.3081,-3.3081,-3.3081,-3.3081,-3.3081,-3.3282,-3.3709,-3.4399,-3.5002,-3.5554,-3.6107,-3.6358,-1.4477,-1.5873,-1.7377,-1.8431,-1.9288,-1.9879,-1.9888,-1.9888,-1.9357,-1.7393,-1.5723,-1.3931,-1.1739,-0.9861,-0.8778,-0.9246,-1.0382,-1.2589,-1.6561,-1.9328,-2.0971,-2.1006,-2.1675,-2.1757,-2.1035,-2.1528,-2.1595,-2.0702,-2.0971,-2.1038,-2.0644,-2.0986,-2.1348,-2.1582,-2.2194,-2.2717,-2.3135,-2.3135,-2.3135,-2.3135,-2.3135,-2.3135,-2.3135,-2.3135,-2.3349,-2.3783,-2.4043,-2.4812,-2.5999,-2.5569,-2.6615,-2.8495,-2.7861,-2.7955,-2.8402,-2.8402,-2.7841,-2.6996,-2.739,-2.7719,-2.7988,-2.8223,-2.8291,-2.8291,-2.8291,-2.8291,-2.8291,-2.8291,-2.8291,-2.8291,-2.8291,-2.8291,-2.8291,-2.8291,-2.8291,-2.8291,-2.8291,-2.8291,-2.8291,-2.8291,-2.8291,-2.8495,-2.9102,-3.0927,-3.2532,-3.3155,-3.5054,-3.6358,-3.6358,-3.6358,-3.6245,-3.5956,-3.5705,-3.5416,-3.5127,-3.4324,-3.3721,-3.347,-3.3458,-3.3345,-3.3081,-3.3081,-3.3081,-3.3081,-3.3319,-3.3721,-3.4274,-3.4826,-3.5378,-3.5931,-3.6219,-3.6358,-1.4594,-1.5857,-1.6817,-1.6929,-1.8192,-1.9388,-1.932,-1.9439,-1.9033,-1.7226,-1.5963,-1.4563,-1.2438,-1.0639,-0.9426,-0.9188,-1.1664,-1.4725,-1.7918,-1.9692,-2.0451,-2.0086,-2.1827,-2.2532,-2.1282,-2.255,-2.2833,-2.1146,-2.1662,-2.1638,-2.0857,-2.1145,-2.1312,-2.123,-2.2158,-2.2853,-2.3288,-2.3193,-2.3135,-2.3135,-2.3135,-2.3135,-2.3135,-2.3135,-2.3349,-2.3864,-2.4117,-2.4692,-2.5372,-2.5757,-2.6788,-2.8132,-2.8132,-2.8773,-2.967,-2.967,-2.8899,-2.8094,-2.8919,-2.8911,-2.8601,-2.8601,-2.8601,-2.8601,-2.8601,-2.8495,-2.8291,-2.8601,-2.8495,-2.8291,-2.8291,-2.8291,-2.8291,-2.8291,-2.8291,-2.8291,-2.8291,-2.8291,-2.8291,-2.8291,-2.8291,-2.8698,-2.9817,-3.1133,-3.2443,-3.3871,-3.5066,-3.5858,-3.6061,-3.5953,-3.5858,-3.6061,-3.565,-3.5376,-3.5574,-3.524,-3.4738,-3.4186,-3.3985,-3.3696,-3.3219,-3.3206,-3.3244,-3.3319,-3.3784,-3.4299,-3.4851,-3.5316,-3.583,-3.6358,-3.6358,-3.6358,-1.3751,-1.5452,-1.7003,-1.7462,-1.8237,-1.8895,-1.8885,-1.8856,-1.8342,-1.6536,-1.5422,-1.4187,-1.2207,-1.057,-0.9489,-0.9452,-1.2784,-1.6282,-1.8869,-2.0894,-2.242,-2.32,-2.2949,-2.2969,-2.3557,-2.3586,-2.3378,-2.3106,-2.2392,-2.1907,-2.1821,-2.1807,-2.1659,-2.1221,-2.2473,-2.3422,-2.4054,-2.3371,-2.3135,-2.3135,-2.3135,-2.3135,-2.3135,-2.3135,-2.3389,-2.3818,-2.3867,-2.4957,-2.662,-2.6692,-2.8309,-3.0676,-3.0676,-3.0765,-3.0944,-3.0944,-3.0399,-2.9781,-3.0754,-3.0568,-3.0016,-3.0016,-3.0016,-3.0016,-3.0016,-2.9207,-2.8495,-2.9713,-2.9207,-2.8291,-2.8291,-2.8291,-2.8291,-2.8291,-2.8291,-2.8291,-2.8291,-2.8291,-2.8291,-2.8291,-2.8291,-2.8398,-2.8601,-2.9713,-3.103,-3.2443,-3.2833,-3.3342,-3.4569,-3.365,-3.3353,-3.4581,-3.4606,-3.5053,-3.6138,-3.6157,-3.5881,-3.5328,-3.4412,-3.3859,-3.3771,-3.3771,-3.3985,-3.4462,-3.455,-3.4864,-3.5416,-3.5504,-3.583,-3.6358,-3.6358,-3.6358,-1.3143,-1.4417,-1.5726,-1.6918,-1.8552,-1.9871,-1.9819,-1.9877,-1.9306,-1.7056,-1.6223,-1.5179,-1.2842,-1.224,-1.2557,-1.397,-1.5011,-1.6359,-1.8419,-1.9801,-2.0858,-2.1485,-2.2389,-2.2915,-2.3036,-2.3341,-2.3021,-2.2023,-2.2457,-2.2338,-2.1288,-2.1737,-2.1737,-2.1191,-2.2663,-2.3642,-2.4182,-2.4103,-2.4049,-2.4049,-2.3387,-2.3135,-2.3135,-2.3135,-2.3379,-2.3889,-2.4726,-2.5462,-2.6093,-2.7601,-2.9023,-3.0316,-3.0944,-3.1589,-3.214,-3.1412,-3.1269,-3.1446,-3.1247,-3.1318,-3.1429,-3.1429,-3.1429,-3.1429,-3.1429,-3.0421,-2.9503,-3.012,-2.9303,-2.8291,-2.8291,-2.8291,-2.8291,-2.8291,-2.8291,-2.8291,-2.8291,-2.8291,-2.8291,-2.8291,-2.8291,-2.8804,-3.0214,-3.0916,-3.2129,-3.424,-3.4545,-3.4751,-3.5367,-3.4957,-3.4751,-3.5367,-3.5475,-3.5763,-3.6358,-3.6358,-3.6119,-3.5579,-3.4788,-3.4349,-3.4349,-3.4349,-3.4462,-3.4713,-3.5014,-3.529,-3.5542,-3.5843,-3.6119,-3.6358,-3.6358,-3.6358,-1.3025,-1.3932,-1.4972,-1.6382,-1.8173,-1.9771,-2.0469,-2.0454,-1.9782,-1.794,-1.7471,-1.6607,-1.3974,-1.3782,-1.4929,-1.7724,-1.687,-1.6579,-1.8655,-1.9189,-1.9564,-2.0019,-2.1752,-2.2677,-2.2345,-2.3047,-2.2846,-2.1381,-2.2417,-2.2523,-2.0984,-2.1604,-2.1737,-2.1205,-2.2569,-2.3592,-2.3993,-2.4211,-2.4438,-2.4787,-2.3637,-2.3135,-2.3135,-2.3135,-2.3379,-2.3898,-2.5547,-2.6001,-2.5738,-2.8646,-2.9863,-2.9954,-3.1134,-3.2239,-3.2982,-3.1965,-3.2082,-3.2594,-3.203,-3.2208,-3.2744,-3.2744,-3.2744,-3.2744,-3.2744,-3.1836,-3.0824,-3.1133,-3.0317,-2.9102,-2.8495,-2.8291,-2.8291,-2.8291,-2.8291,-2.8291,-2.8291,-2.8291,-2.8388,-2.8698,-2.8804,-2.9513,-3.1927,-3.2028,-3.2733,-3.5559,-3.5355,-3.5246,-3.5858,-3.5655,-3.5547,-3.5858,-3.5966,-3.6061,-3.6358,-3.6358,-3.6245,-3.5943,-3.5416,-3.5102,-3.5102,-3.5102,-3.5165,-3.5303,-3.5592,-3.573,-3.573,-3.6157,-3.6358,-3.6358,-3.6358,-3.6358,-1.375,-1.4928,-1.5978,-1.6399,-1.6291,-1.6832,-1.9677,-1.9271,-1.8412,-1.8878,-1.8972,-1.8167,-1.5668,-1.413,-1.4261,-1.7551,-1.739,-1.7948,-2.1162,-2.0972,-2.0812,-2.1702,-2.1988,-2.2433,-2.3324,-2.3446,-2.347,-2.3272,-2.2587,-2.2051,-2.1926,-2.1988,-2.1778,-2.1208,-2.2185,-2.3002,-2.353,-2.298,-2.3398,-2.4787,-2.3637,-2.3135,-2.3135,-2.3135,-2.3379,-2.3898,-2.5547,-2.6445,-2.701,-2.9917,-3.1033,-3.1223,-3.2426,-3.2982,-3.3081,-3.2982,-3.2836,-3.2885,-3.404,-3.4381,-3.4276,-3.4276,-3.4276,-3.4276,-3.4276,-3.3254,-3.2443,-3.3773,-3.3055,-3.1429,-2.89,-2.8291,-2.8291,-2.8291,-2.8291,-2.8291,-2.8291,-2.8291,-2.8698,-2.9911,-3.011,-3.0618,-3.2028,-3.1224,-3.1338,-3.4178,-3.2342,-3.1633,-3.4178,-3.3353,-3.3143,-3.4385,-3.4581,-3.5078,-3.6263,-3.6358,-3.6558,-3.7036,-3.6546,-3.6245,-3.6245,-3.6245,-3.6483,-3.6998,-3.6546,-3.6307,-3.6307,-3.6345,-3.6358,-3.6358,-3.6358,-3.6358,-1.2935,-1.4519,-1.6013,-1.641,-1.6354,-1.6981,-2.0035,-1.9708,-1.8876,-1.9442,-1.8839,-1.8026,-1.7383,-1.6626,-1.6878,-1.925,-1.895,-1.871,-1.9729,-2.0354,-2.0732,-2.0821,-2.1527,-2.2144,-2.2558,-2.2035,-2.171,-2.171,-2.1916,-2.164,-2.071,-2.1482,-2.1612,-2.0858,-2.21,-2.3005,-2.3466,-2.3273,-2.3371,-2.4019,-2.3378,-2.2998,-2.2754,-2.3018,-2.3516,-2.4271,-2.6455,-2.7417,-2.7607,-3.0974,-3.1865,-3.1311,-3.2612,-3.3081,-3.3119,-3.3458,-3.3781,-3.4089,-3.4919,-3.5438,-3.5667,-3.5667,-3.5667,-3.5667,-3.5667,-3.4666,-3.3674,-3.4276,-3.2755,-3.0813,-2.9817,-2.9503,-2.9303,-2.8495,-2.89,-2.9503,-2.9503,-2.9503,-2.9911,-3.1327,-3.0824,-3.103,-3.3254,-3.3155,-3.3464,-3.5367,-3.4751,-3.4447,-3.5463,-3.5162,-3.5175,-3.6026,-3.6468,-3.6738,-3.6897,-3.7186,-3.7475,-3.7688,-3.7174,-3.7023,-3.7374,-3.7374,-3.7475,-3.7688,-3.7149,-3.6872,-3.6872,-3.6521,-3.6358,-3.6358,-3.6358,-3.6358,-1.2988,-1.4066,-1.5151,-1.5866,-1.5921,-1.6555,-1.951,-1.9288,-1.8721,-1.9653,-1.8525,-1.7601,-1.8176,-1.7679,-1.774,-1.9482,-1.9044,-1.8521,-1.8569,-1.9351,-1.9808,-1.9669,-2.0547,-2.1171,-2.1171,-2.0557,-2.0149,-2.0149,-2.0771,-2.0751,-1.9743,-2.0757,-2.112,-2.0634,-2.158,-2.2361,-2.2787,-2.2772,-2.2708,-2.2618,-2.278,-2.2725,-2.2334,-2.2891,-2.3535,-2.432,-2.6715,-2.7666,-2.7861,-3.1146,-3.2239,-3.1865,-3.2797,-3.3081,-3.3119,-3.3508,-3.4098,-3.4776,-3.5152,-3.5755,-3.6358,-3.6358,-3.6358,-3.6358,-3.6358,-3.5763,-3.4969,-3.4483,-3.3066,-3.1429,-3.0525,-3.0016,-2.9408,-2.8495,-2.9303,-3.0317,-3.0317,-3.0618,-3.1327,-3.2744,-3.2241,-3.2353,-3.4666,-3.4678,-3.4884,-3.6168,-3.6061,-3.5966,-3.6358,-3.6358,-3.6571,-3.7123,-3.7676,-3.7852,-3.7475,-3.7789,-3.809,-3.8266,-3.7927,-3.7889,-3.8266,-3.8278,-3.8278,-3.8278,-3.7726,-3.745,-3.7437,-3.6885,-3.6621,-3.6621,-3.6445,-3.6358,-1.4244,-1.3777,-1.3372,-1.474,-1.4698,-1.5028,-1.7773,-1.7639,-1.7569,-1.9492,-1.8251,-1.7038,-1.784,-1.6703,-1.6155,-1.774,-1.73,-1.7149,-1.8414,-1.8239,-1.8165,-1.854,-1.9012,-1.931,-1.931,-1.931,-1.931,-1.931,-1.931,-1.931,-1.9301,-1.9696,-2.0134,-2.0595,-2.0566,-2.0771,-2.1181,-2.1181,-2.0976,-2.0586,-2.1875,-2.2275,-2.1904,-2.2754,-2.3379,-2.3928,-2.6042,-2.7159,-2.7767,-3.0226,-3.1952,-3.3068,-3.3081,-3.3081,-3.3068,-3.3081,-3.3771,-3.4726,-3.4726,-3.5441,-3.6358,-3.6358,-3.6358,-3.6358,-3.6358,-3.6358,-3.6061,-3.4775,-3.4385,-3.3773,-3.103,-2.9303,-2.8291,-2.8291,-2.9303,-3.0317,-3.0317,-3.1429,-3.2744,-3.4178,-3.4385,-3.4884,-3.6156,-3.5271,-3.4884,-3.6168,-3.5271,-3.4884,-3.6263,-3.6383,-3.6596,-3.7136,-3.7688,-3.8015,-3.8015,-3.8015,-3.8266,-3.8843,-3.8881,-3.8881,-3.8881,-3.8881,-3.8881,-3.8881,-3.8316,-3.8015,-3.8015,-3.745,-3.7186,-3.7174,-3.6621,-3.6358,-1.305,-1.4467,-1.5593,-1.4399,-1.5262,-1.6465,-1.6646,-1.6931,-1.7376,-1.8238,-1.777,-1.7269,-1.7423,-1.6861,-1.674,-1.7813,-1.7251,-1.706,-1.8035,-1.8095,-1.8058,-1.8174,-1.886,-1.9333,-1.9333,-1.9333,-1.9333,-1.9333,-1.9333,-1.9152,-1.886,-1.951,-1.9951,-2.0091,-2.045,-2.0771,-2.1181,-2.0956,-2.0751,-2.0566,-2.0957,-2.124,-2.1475,-2.293,-2.3662,-2.4008,-2.6928,-2.8506,-2.9039,-3.1512,-3.2239,-3.1865,-3.2797,-3.2513,-3.1913,-3.3233,-3.411,-3.4776,-3.5165,-3.5768,-3.6358,-3.6358,-3.6358,-3.6358,-3.6358,-3.5763,-3.4884,-3.4483,-3.2955,-3.1338,-3.0525,-3.0016,-2.9713,-2.9713,-3.0721,-3.1938,-3.2955,-3.3464,-3.4166,-3.5571,-3.5078,-3.4884,-3.6156,-3.6061,-3.5966,-3.6358,-3.6061,-3.6102,-3.6885,-3.7638,-3.804,-3.7789,-3.8617,-3.9032,-3.8642,-3.8969,-3.927,-3.9433,-3.9446,-3.9446,-3.9446,-3.9446,-3.9446,-3.9446,-3.8894,-3.8617,-3.8617,-3.7651,-3.7186,-3.7174,-3.6621,-3.6358,-1.2584,-1.3913,-1.5057,-1.4656,-1.5423,-1.6372,-1.6494,-1.6667,-1.6785,-1.6853,-1.6709,-1.6568,-1.6479,-1.6312,-1.6348,-1.6881,-1.6526,-1.6471,-1.7363,-1.7471,-1.7595,-1.7939,-1.8466,-1.8761,-1.8761,-1.8761,-1.8761,-1.8761,-1.8761,-1.8652,-1.8378,-1.9312,-1.9839,-1.9676,-2.045,-2.0938,-2.1193,-2.083,-2.0654,-2.083,-2.083,-2.0977,-2.1279,-2.248,-2.3223,-2.3772,-2.6764,-2.8335,-2.8866,-3.0789,-3.1146,-3.0586,-3.1877,-3.1877,-3.1383,-3.3219,-3.4248,-3.4801,-3.5353,-3.5906,-3.6263,-3.5775,-3.5966,-3.6156,-3.515,-3.4569,-3.4178,-3.3066,-3.1542,-3.0317,-3.0317,-3.0317,-3.0317,-3.0317,-3.1735,-3.3365,-3.4178,-3.4787,-3.5463,-3.6263,-3.5763,-3.5463,-3.6263,-3.6358,-3.6433,-3.6659,-3.6872,-3.7061,-3.7174,-3.8178,-3.8743,-3.8391,-3.9157,-3.9559,-3.9233,-3.9496,-3.9697,-3.9697,-3.9697,-3.9697,-3.9697,-3.9697,-3.9697,-3.9697,-3.9371,-3.9195,-3.9195,-3.8291,-3.7852,-3.7839,-3.7048,-3.6684,-1.2641,-1.2759,-1.2972,-1.5042,-1.5057,-1.5068,-1.6815,-1.6568,-1.5824,-1.5584,-1.5488,-1.541,-1.541,-1.541,-1.541,-1.541,-1.541,-1.5703,-1.6586,-1.6728,-1.7042,-1.7899,-1.8008,-1.8008,-1.8008,-1.8008,-1.8008,-1.8008,-1.8008,-1.8008,-1.8008,-1.9203,-1.9727,-1.9399,-2.0605,-2.1233,-2.1221,-2.0926,-2.085,-2.1172,-2.126,-2.1279,-2.125,-2.1768,-2.2575,-2.3653,-2.5857,-2.721,-2.7861,-2.8903,-2.9282,-2.9315,-3.0586,-3.1045,-3.1282,-3.2879,-3.3918,-3.4595,-3.5107,-3.5563,-3.5858,-3.4775,-3.5174,-3.5547,-3.3032,-3.3155,-3.3476,-3.103,-3.0214,-3.012,-3.012,-3.0317,-3.0514,-3.0514,-3.2353,-3.4276,-3.4483,-3.5367,-3.6061,-3.6358,-3.6263,-3.6263,-3.6358,-3.6358,-3.6558,-3.7077,-3.7676,-3.7826,-3.7374,-3.8266,-3.8944,-3.8944,-3.9396,-3.9697,-3.9697,-3.9697,-3.9697,-3.9697,-3.9697,-3.9697,-3.9697,-3.9697,-3.9697,-3.9697,-3.9697,-3.9697,-3.9697,-3.9145,-3.8868,-3.8843,-3.7713,-3.7186,-1.241,-1.3555,-1.4505,-1.37,-1.3438,-1.38,-1.5477,-1.5217,-1.4967,-1.6165,-1.5888,-1.541,-1.541,-1.541,-1.541,-1.541,-1.541,-1.5713,-1.6565,-1.6729,-1.7042,-1.7899,-1.8008,-1.8008,-1.8008,-1.8008,-1.8008,-1.8008,-1.8008,-1.8008,-1.8008,-1.8927,-1.9713,-2.0283,-2.0865,-2.1357,-2.1787,-2.1668,-2.1299,-2.0713,-2.1416,-2.1562,-2.1269,-2.2373,-2.4037,-2.6092,-2.6361,-2.7431,-2.9017,-2.8913,-2.8525,-2.8132,-2.9315,-2.9772,-2.9875,-3.0262,-3.1527,-3.3188,-3.3413,-3.3386,-3.3342,-3.4166,-3.3859,-3.3032,-3.2431,-3.1735,-3.103,-3.0421,-2.9503,-2.8698,-2.8698,-3.0317,-3.1825,-3.1825,-3.2331,-3.3342,-3.5463,-3.4545,-3.3836,-3.5953,-3.5571,-3.5174,-3.6263,-3.6358,-3.6601,-3.711,-3.7444,-3.7754,-3.8253,-3.9007,-3.9521,-3.9521,-3.9622,-3.9697,-3.9697,-3.9697,-3.9697,-3.9697,-3.9697,-3.9697,-3.9697,-3.9697,-3.9697,-3.9697,-3.9697,-3.9697,-3.9697,-3.9145,-3.8868,-3.8843,-3.7713,-3.7186,-1.1637,-1.2846,-1.3756,-1.3593,-1.3397,-1.3585,-1.4616,-1.4657,-1.4837,-1.5831,-1.5722,-1.541,-1.541,-1.541,-1.541,-1.541,-1.541,-1.5722,-1.6595,-1.6708,-1.7002,-1.79,-1.8008,-1.8008,-1.8008,-1.8008,-1.8008,-1.8008,-1.8008,-1.8095,-1.8281,-1.9111,-1.9895,-2.0549,-2.1202,-2.1719,-2.2142,-2.1967,-2.166,-2.1201,-2.167,-2.1982,-2.2178,-2.2627,-2.3771,-2.5422,-2.5178,-2.6063,-2.7631,-2.7157,-2.689,-2.6849,-2.8038,-2.8495,-2.862,-2.9491,-3.0705,-3.1875,-3.2225,-3.2305,-3.2331,-3.2443,-3.2342,-3.2028,-3.0721,-3.0317,-3.0214,-2.9503,-2.8794,-2.8504,-2.9102,-3.0721,-3.2331,-3.2331,-3.2844,-3.3859,-3.5953,-3.424,-3.3132,-3.5858,-3.5332,-3.4859,-3.6181,-3.6635,-3.6759,-3.6764,-3.7493,-3.809,-3.8279,-3.908,-3.9697,-3.9697,-3.9697,-3.9697,-3.9697,-3.9697,-3.9697,-3.9697,-3.9697,-3.9697,-3.9697,-3.9697,-3.9697,-3.9697,-3.9697,-3.9697,-3.9697,-3.9408,-3.9132,-3.8856,-3.7977,-3.7437,-1.0358,-1.1354,-1.2192,-1.3793,-1.3655,-1.3238,-1.3856,-1.4223,-1.454,-1.5058,-1.5294,-1.541,-1.541,-1.541,-1.541,-1.541,-1.5488,-1.58,-1.6595,-1.6757,-1.7116,-1.792,-1.8008,-1.8008,-1.8008,-1.8008,-1.8008,-1.8008,-1.8008,-1.8183,-1.8476,-1.9324,-2.0008,-2.0615,-2.143,-2.2134,-2.2524,-2.2279,-2.2031,-2.1885,-2.1963,-2.2402,-2.3144,-2.2783,-2.3086,-2.3896,-2.374,-2.4414,-2.5586,-2.5137,-2.5264,-2.583,-2.6849,-2.74,-2.7726,-2.8939,-2.9906,-3.0555,-3.1051,-3.1362,-3.1418,-3.0618,-3.0916,-3.1224,-2.9006,-2.9102,-2.9713,-2.8591,-2.8291,-2.8601,-2.9713,-3.0927,-3.1927,-3.1927,-3.2855,-3.4166,-3.5667,-3.3737,-3.2532,-3.575,-3.5465,-3.5102,-3.6181,-3.6792,-3.6912,-3.6684,-3.7505,-3.8234,-3.8315,-3.913,-3.9697,-3.9697,-3.9697,-3.9697,-3.9697,-3.9697,-3.9697,-3.9697,-3.9697,-3.9697,-3.9697,-3.9697,-3.9697,-3.9697,-3.9697,-3.9697,-3.9697,-3.9697,-3.9459,-3.8994,-3.8417,-3.7914,-0.8476,-0.9661,-1.1192,-1.3609,-1.2605,-1.1409,-1.2834,-1.2666,-1.2621,-1.4034,-1.4923,-1.541,-1.541,-1.541,-1.541,-1.541,-1.5732,-1.6191,-1.6616,-1.7081,-1.7474,-1.793,-1.8008,-1.8008,-1.8008,-1.8008,-1.8008,-1.8008,-1.8008,-1.8018,-1.8095,-1.8932,-1.9723,-2.0547,-2.1481,-2.2123,-2.2506,-2.2793,-2.2607,-2.1894,-2.2256,-2.2676,-2.3144,-2.3086,-2.3525,-2.4287,-2.3545,-2.3965,-2.5117,-2.4678,-2.499,-2.5742,-2.5927,-2.6668,-2.7505,-2.6633,-2.7452,-2.9141,-2.9303,-2.9106,-2.9006,-3.0016,-2.9608,-2.8804,-2.8388,-2.8398,-2.8495,-2.8398,-2.8291,-2.8291,-2.8495,-2.9503,-3.0618,-3.0618,-3.0721,-3.1531,-3.4068,-3.1644,-3.0317,-3.5451,-3.6275,-3.6181,-3.6358,-3.6477,-3.6698,-3.7286,-3.6983,-3.7368,-3.9243,-3.9622,-3.9697,-3.9697,-3.9697,-3.9697,-3.9697,-3.9697,-3.9697,-3.9697,-3.9697,-3.9697,-3.9697,-3.9697,-3.9697,-3.9697,-3.9697,-3.9697,-3.9697,-3.9697,-3.9647,-3.9572,-3.9019,-3.8718,-0.9122,-1.0488,-1.1508,-1.3154,-1.2027,-1.0933,-1.2089,-1.2074,-1.2135,-1.3304,-1.3795,-1.4323,-1.5225,-1.541,-1.541,-1.541,-1.58,-1.6238,-1.6646,-1.7092,-1.7561,-1.793,-1.8008,-1.8008,-1.8008,-1.8008,-1.8008,-1.8008,-1.8008,-1.8242,-1.8675,-1.9121,-1.9916,-2.1273,-2.1661,-2.2181,-2.2869,-2.3018,-2.2949,-2.2588,-2.2783,-2.3223,-2.3848,-2.3603,-2.3838,-2.4385,-2.3769,-2.4238,-2.541,-2.4971,-2.5156,-2.5742,-2.5742,-2.6014,-2.6476,-2.5927,-2.6557,-2.7784,-2.7885,-2.8068,-2.8398,-2.9006,-2.8804,-2.8291,-2.8291,-2.8291,-2.8291,-2.8291,-2.8291,-2.8291,-2.8291,-2.9303,-3.011,-2.9408,-2.9745,-3.0593,-3.1816,-3.0057,-2.9288,-3.2757,-3.4193,-3.5211,-3.62,-3.6358,-3.6533,-3.6843,-3.6577,-3.7234,-3.9431,-3.9697,-3.9697,-3.9697,-3.9697,-3.9697,-3.9697,-3.9697,-3.9697,-3.9697,-3.9697,-3.9697,-3.9697,-3.9697,-3.9697,-3.9697,-3.9697,-3.9697,-3.9697,-3.9697,-3.9534,-3.922,-3.8642,-3.8216,-0.9481,-1.0883,-1.1469,-1.2422,-1.1757,-1.0953,-1.1359,-1.1531,-1.171,-1.2512,-1.2704,-1.3122,-1.451,-1.4805,-1.4874,-1.5069,-1.5586,-1.5959,-1.6035,-1.6934,-1.7571,-1.7648,-1.7833,-1.8008,-1.8008,-1.8008,-1.8008,-1.8008,-1.8008,-1.835,-1.9049,-1.9232,-1.9973,-2.1554,-2.1656,-2.2129,-2.2969,-2.3086,-2.3135,-2.3135,-2.3369,-2.376,-2.4248,-2.416,-2.4287,-2.4551,-2.4023,-2.4463,-2.5537,-2.5205,-2.5332,-2.5742,-2.5742,-2.5742,-2.5752,-2.5859,-2.6367,-2.7031,-2.7139,-2.7666,-2.8291,-2.8291,-2.8291,-2.8291,-2.8291,-2.8291,-2.8291,-2.8291,-2.8291,-2.8291,-2.8291,-2.8996,-2.9503,-2.8495,-2.9021,-2.9922,-3.0218,-2.9766,-2.9813,-3.1327,-3.2755,-3.4278,-3.6043,-3.6358,-3.6438,-3.6442,-3.6905,-3.7807,-3.9506,-3.9697,-3.9697,-3.9697,-3.9697,-3.9697,-3.9697,-3.9697,-3.9697,-3.9697,-3.9697,-3.9697,-3.9697,-3.9697,-3.9697,-3.9697,-3.9697,-3.9697,-3.9697,-3.9697,-3.9484,-3.9069,-3.863,-3.814,-0.832,-0.9434,-1.0349,-1.1398,-1.1571,-1.1292,-1.0781,-1.0681,-1.0863,-1.171,-1.1826,-1.2135,-1.294,-1.313,-1.3381,-1.4156,-1.4958,-1.525,-1.4336,-1.6406,-1.7648,-1.677,-1.7474,-1.8008,-1.8008,-1.8008,-1.8008,-1.8008,-1.8008,-1.8183,-1.8576,-1.9049,-1.9707,-2.0625,-2.1055,-2.168,-2.2539,-2.2939,-2.3135,-2.3154,-2.3965,-2.417,-2.3848,-2.4648,-2.501,-2.499,-2.415,-2.4287,-2.5098,-2.5078,-2.5332,-2.5742,-2.5742,-2.5742,-2.5781,-2.6201,-2.6631,-2.707,-2.749,-2.792,-2.8291,-2.8291,-2.8291,-2.8291,-2.8291,-2.8291,-2.8291,-2.8291,-2.8291,-2.8291,-2.8291,-2.8398,-2.8398,-2.8291,-2.8388,-2.879,-3.0007,-3.1236,-3.2372,-3.342,-3.3654,-3.4278,-3.6043,-3.6358,-3.637,-3.6408,-3.8154,-3.9531,-3.9685,-3.9697,-3.9697,-3.9697,-3.9697,-3.9697,-3.9697,-3.9697,-3.9697,-3.9697,-3.9697,-3.9697,-3.9697,-3.9697,-3.9697,-3.9697,-3.9697,-3.9697,-3.9697,-3.9697,-3.9685,-3.9647,-3.9622,-3.9308,-0.8616,-0.9471,-1.0198,-1.1561,-1.2019,-1.1895,-1.121,-1.1228,-1.1288,-1.1108,-1.1052,-1.1288,-1.2081,-1.2634,-1.307,-1.339,-1.3891,-1.424,-1.4135,-1.5137,-1.6086,-1.6565,-1.6934,-1.7377,-1.793,-1.8008,-1.8008,-1.8008,-1.8008,-1.833,-1.9,-1.9228,-1.9814,-2.0957,-2.1152,-2.165,-2.251,-2.293,-2.3135,-2.3154,-2.4004,-2.4336,-2.4209,-2.4795,-2.5225,-2.5459,-2.4873,-2.4941,-2.5498,-2.5498,-2.5596,-2.5742,-2.5742,-2.5742,-2.5791,-2.623,-2.665,-2.708,-2.751,-2.7939,-2.8291,-2.8291,-2.8291,-2.8291,-2.8291,-2.8291,-2.8291,-2.8291,-2.8291,-2.8291,-2.8291,-2.8291,-2.8291,-2.8291,-2.8291,-2.8631,-3.0056,-3.0638,-3.0882,-3.0336,-3.0224,-3.0476,-3.109,-3.1224,-3.2431,-3.5858,-3.7036,-3.8065,-3.9509,-3.9697,-3.9697,-3.9697,-3.9697,-3.9697,-3.9697,-3.9697,-3.9697,-3.9697,-3.9697,-3.9697,-3.9697,-3.9697,-3.9697,-3.9697,-3.9697,-3.9697,-3.9697,-3.9697,-3.9697,-3.9685,-3.9333,-3.8994,-0.8128,-0.9041,-0.9843,-1.0873,-1.1422,-1.1544,-1.1055,-1.1099,-1.11,-1.067,-1.0624,-1.0744,-1.1288,-1.1841,-1.2274,-1.2573,-1.3048,-1.3299,-1.3204,-1.4172,-1.5033,-1.5607,-1.6171,-1.6757,-1.7056,-1.7617,-1.7872,-1.7548,-1.7813,-1.8359,-1.9285,-1.9321,-1.9814,-2.0967,-2.1152,-2.1504,-2.208,-2.2646,-2.293,-2.2939,-2.3945,-2.4414,-2.4434,-2.5019,-2.5449,-2.5723,-2.542,-2.5459,-2.5742,-2.5742,-2.5742,-2.5742,-2.5742,-2.5742,-2.581,-2.6387,-2.6777,-2.71,-2.7676,-2.8057,-2.8291,-2.8291,-2.8291,-2.8291,-2.8291,-2.8291,-2.8291,-2.8291,-2.8291,-2.8291,-2.8291,-2.8291,-2.8291,-2.8291,-2.8291,-2.8564,-2.9444,-2.9642,-2.9641,-2.9672,-2.8876,-2.8291,-2.8291,-2.8291,-2.9503,-3.3132,-3.5246,-3.7174,-3.9408,-3.9697,-3.9697,-3.9697,-3.9697,-3.9697,-3.9697,-3.9697,-3.9697,-3.9697,-3.782,-3.6789,-3.6767,-3.862,-3.9697,-3.9697,-3.9697,-3.9697,-3.9697,-3.9697,-3.9697,-3.9685,-3.932,-3.9082,0.0,0.0,0.0,-0.9168,-0.973,-1.0267,-1.0174,-1.0118,-1.0128,-1.0502,-1.0537,-1.0557,-1.0611,-1.0624,-1.0863,-1.1648,-1.239,-1.2491,-1.1538,-1.3499,-1.4768,-1.38,-1.5396,-1.6156,-1.532,-1.6875,-1.7617,-1.6693,-1.748,-1.836,-1.9241,-1.9344,-1.9707,-2.0537,-2.0996,-2.123,-2.123,-2.207,-2.25,-2.2529,-2.3789,-2.4404,-2.4443,-2.5332,-2.5742,-2.5742,-2.5742,-2.5742,-2.5742,-2.5742,-2.5742,-2.5742,-2.5742,-2.5742,-2.5859,-2.6699,-2.7021,-2.7158,-2.7998,-2.8291,-2.8291,-2.8291,-2.8291,-2.8291,-2.8291,-2.8291,-2.8291,-2.8291,-2.8291,-2.8291,-2.8291,-2.8291,-2.8291,-2.8291,-2.8291,-2.8291,-2.8291,-2.8291,-2.9023,-3.1667,-3.0044,-2.8291,-2.8291,-2.8291,-2.8291,-2.8291,-3.2833,-3.6943,-3.9103,-3.9428,-3.9478,-3.9685,-3.9697,-3.9581,-3.9478,-3.9465,-3.9465,-3.9465,-3.409,-3.0843,-3.0852,-3.6532,-3.9697,-3.9697,-3.9697,-3.9697,-3.9697,-3.9697,-3.9697,-3.9697,-3.9697,-3.9697,-0.6362,0.0,0.0,0.0,0.0,0.0,-0.953,-0.9181,-0.9162,-0.9927,-0.9715,-0.9645,-1.0438,-1.0624,-1.0681,-1.0926,-1.1072,-1.1297,-1.1401,-1.2018,-1.2742,-1.3609,-1.4186,-1.4664,-1.5133,-1.6315,-1.6848,-1.6652,-1.7458,-1.836,-1.9241,-1.9915,-2.0322,-2.0557,-2.0996,-2.123,-2.123,-2.1787,-2.2207,-2.2519,-2.3496,-2.4121,-2.4443,-2.5332,-2.5742,-2.5742,-2.5742,-2.5742,-2.5742,-2.5742,-2.5742,-2.5742,-2.5742,-2.5937,-2.6269,-2.6816,-2.7217,-2.7559,-2.8105,-2.8291,-2.8291,-2.8291,-2.8291,-2.8291,-2.8291,-2.8291,-2.8291,-2.8291,-2.8291,-2.8291,-2.8291,-2.8291,-2.8291,-2.8291,-2.8291,-2.8291,-2.8291,-2.8291,-2.8564,-2.9287,-2.8846,-2.8291,-2.8291,-2.8291,-2.8291,-2.8291,-2.9608,-3.0809,-3.1434,-3.2579,-3.4958,-3.9245,-3.9697,-3.7926,-3.3642,-3.3314,-3.3314,-3.3314,-3.1767,-3.0897,-3.0883,-3.6575,-3.9697,-3.9697,-3.9697,-3.9697,-3.9697,-3.9697,-3.9697,-3.9697,-3.9697,-3.9697,-0.5797,-0.635,-0.6691,-0.7197,0.0,0.0,-0.8746,-0.8598,-0.8763,-0.9971,-0.9858,-0.9818,-1.0485,-1.0624,-1.0624,-1.0624,-1.0624,-1.0795,-1.1345,-1.1543,-1.1989,-1.3015,-1.3484,-1.378,-1.3947,-1.5204,-1.6017,-1.6026,-1.6903,-1.7948,-1.9209,-1.9678,-2.0139,-2.0566,-2.082,-2.0957,-2.0957,-2.1396,-2.1826,-2.2266,-2.3301,-2.4014,-2.4443,-2.5332,-2.5742,-2.5742,-2.5742,-2.5742,-2.5742,-2.5742,-2.5742,-2.5742,-2.5742,-2.6006,-2.6435,-2.6865,-2.7295,-2.7725,-2.8144,-2.8291,-2.8291,-2.8291,-2.8291,-2.8291,-2.8291,-2.8291,-2.8291,-2.8291,-2.8291,-2.8291,-2.8291,-2.8291,-2.8291,-2.8291,-2.8291,-2.8291,-2.8291,-2.8291,-2.8291,-2.8291,-2.8291,-2.8291,-2.8291,-2.8291,-2.8291,-2.8291,-2.8291,-2.8291,-2.8291,-2.9814,-3.2217,-3.5629,-3.6065,-3.4637,-3.1218,-3.0889,-3.0889,-3.0889,-3.0889,-3.0889,-3.0889,-3.4191,-3.7156,-3.9685,-3.9697,-3.9697,-3.9697,-3.9697,-3.9697,-3.9697,-3.9697,-4.0187,-0.5031,-0.532,-0.5459,-0.6078,-0.6036,0.0,-0.7799,-0.8067,-0.8437,-0.9985,-1.0265,-1.0293,-1.0397,-1.0512,-1.0585,-1.0533,-1.0632,-1.087,-1.1276,-1.1603,-1.1891,-1.2218,-1.2968,-1.3201,-1.2372,-1.3973,-1.5039,-1.4993,-1.5962,-1.7252,-1.9068,-1.9012,-1.9406,-2.0362,-2.0547,-2.0566,-2.0566,-2.0957,-2.1406,-2.1894,-2.3086,-2.3916,-2.4443,-2.5283,-2.5693,-2.5742,-2.5742,-2.5742,-2.5742,-2.5742,-2.5742,-2.5742,-2.5742,-2.6035,-2.6504,-2.6875,-2.7324,-2.7793,-2.8164,-2.8291,-2.8291,-2.8291,-2.8291,-2.8291,-2.8291,-2.8291,-2.8291,-2.8291,-2.8291,-2.8291,-2.8291,-2.8291,-2.8291,-2.8291,-2.8291,-2.8291,-2.8291,-2.8291,-2.8291,-2.8291,-2.8291,-2.8291,-2.8291,-2.8291,-2.8291,-2.8291,-2.8291,-2.8291,-2.8291,-2.9814,-3.0889,-3.0889,-3.0889,-3.0889,-3.0889,-3.0889,-3.0889,-3.0889,-3.0889,-3.0889,-3.0889,-3.0889,-3.3314,-3.8594,-3.9362,-3.9697,-3.9697,-3.9697,-3.9697,-3.9697,-3.9697,-4.0877,-0.4009,-0.4441,-0.483,-0.5115,-0.5314,0.0,-0.6443,-0.6322,-0.6538,-0.8233,-0.8323,-0.8368,-0.9226,-1.0132,-1.0559,-0.9959,-1.0814,-1.1465,-1.1108,-1.1129,-1.1363,-1.1891,-1.2165,-1.2254,-1.2278,-1.3331,-1.4023,-1.4018,-1.5233,-1.6533,-1.7944,-1.8375,-1.8847,-1.9319,-2.0139,-2.0566,-2.0566,-2.0654,-2.1094,-2.1894,-2.248,-2.334,-2.4434,-2.4961,-2.54,-2.5742,-2.5742,-2.5742,-2.5742,-2.5742,-2.5742,-2.5742,-2.5742,-2.6211,-2.6904,-2.6982,-2.75,-2.8184,-2.8262,-2.8291,-2.8291,-2.8291,-2.8291,-2.8291,-2.8291,-2.8291,-2.8291,-2.8291,-2.8291,-2.8291,-2.8291,-2.8291,-2.8291,-2.8291,-2.8291,-2.8291,-2.8291,-2.8291,-2.8291,-2.8291,-2.8291,-2.8291,-2.8291,-2.8291,-2.8291,-2.8291,-2.8291,-2.8291,-2.8291,-2.9814,-3.0889,-3.0889,-3.0889,-3.0889,-3.0889,-3.0889,-3.0889,-3.0889,-3.0889,-3.0889,-3.0889,-3.0889,-3.1441,-3.255,-3.7263,-3.9697,-3.9697,-3.9697,-3.9697,-3.9697,-3.9697,-4.0877,-0.3759,-0.4096,-0.4431,-0.4769,-0.4675,0.0,0.0,-0.5483,-0.5586,-0.7096,-0.7536,-0.7851,-0.8525,-0.9355,-0.9877,-0.9591,-1.0406,-1.0967,-1.0507,-1.0897,-1.1376,-1.1817,-1.187,-1.1984,-1.2271,-1.2739,-1.3221,-1.3653,-1.454,-1.5536,-1.6867,-1.6886,-1.732,-1.8118,-1.8691,-1.9195,-1.9766,-1.9766,-2.0404,-2.1562,-2.2207,-2.2959,-2.3818,-2.4678,-2.5195,-2.541,-2.5644,-2.5742,-2.5742,-2.5742,-2.5742,-2.5762,-2.5977,-2.6455,-2.7041,-2.7256,-2.7744,-2.8291,-2.8291,-2.8291,-2.8291,-2.8291,-2.8291,-2.8291,-2.8291,-2.8291,-2.8291,-2.8291,-2.8291,-2.8291,-2.8291,-2.8291,-2.8291,-2.8291,-2.8291,-2.8291,-2.8291,-2.8291,-2.8291,-2.8291,-2.8291,-2.8291,-2.8291,-2.8291,-2.8291,-2.8291,-2.8291,-2.8291,-2.8291,-2.9814,-3.0889,-3.0889,-3.0889,-3.0889,-3.0889,-3.0889,-3.0889,-3.0889,-3.0889,-3.0889,-3.0889,-3.0889,-3.0889,-3.0889,-3.3754,-3.6715,-3.9697,-3.9697,-3.9697,-3.9697,-3.9697,-4.0877,-0.336,-0.3629,-0.3974,-0.4465,-0.4199,-0.4117,0.0,0.0,0.0,-0.6415,-0.7186,-0.7747,-0.8005,-0.8796,-0.9347,-0.9259,-1.0102,-1.0531,-0.9869,-1.0675,-1.1466,-1.1943,-1.1977,-1.2086,-1.2477,-1.2465,-1.2813,-1.3748,-1.3932,-1.4616,-1.5967,-1.549,-1.58,-1.7041,-1.7188,-1.7755,-1.8674,-1.87,-1.9439,-2.0905,-2.1444,-2.2208,-2.3203,-2.4123,-2.4714,-2.5088,-2.5449,-2.5664,-2.5742,-2.5742,-2.5742,-2.5771,-2.6133,-2.6572,-2.706,-2.7412,-2.7861,-2.8291,-2.8291,-2.8291,-2.8291,-2.8291,-2.8291,-2.8291,-2.8291,-2.8291,-2.8291,-2.8291,-2.8291,-2.8291,-2.8291,-2.8291,-2.8291,-2.8291,-2.8291,-2.8291,-2.8291,-2.8291,-2.8291,-2.8291,-2.8291,-2.8291,-2.8291,-2.8291,-2.8291,-2.8291,-2.8291,-2.8291,-2.8291,-2.9814,-3.0889,-3.0889,-3.0889,-3.0889,-3.0889,-3.0889,-3.0889,-3.0889,-3.0889,-3.0889,-3.0889,-3.0889,-3.0889,-3.0889,-3.1998,-3.4958,-3.9697,-3.9697,-3.9697,-3.9697,-4.0136,-4.1279,-0.1733,-0.2351,-0.3086,-0.3678,-0.4022,-0.4428,-0.523,0.0,-0.5971,-0.6352,0.0,-0.7235,-0.7448,0.0,0.0,-0.8885,-1.0605,-1.1453,-0.9615,-1.0285,-1.1321,-1.232,-1.214,-1.2226,-1.3178,-1.3041,-1.325,-1.4111,-1.3539,-1.3862,-1.5498,-1.5085,-1.5286,-1.6237,-1.6969,-1.74,-1.7489,-1.7527,-1.8266,-1.974,-1.9178,-2.0425,-2.3184,-2.259,-2.3401,-2.5068,-2.5127,-2.5371,-2.5742,-2.5742,-2.5742,-2.5742,-2.5791,-2.6309,-2.7021,-2.707,-2.7598,-2.8291,-2.8291,-2.8291,-2.8291,-2.8291,-2.8291,-2.8291,-2.8291,-2.8291,-2.8291,-2.8291,-2.8291,-2.8291,-2.8291,-2.8291,-2.8291,-2.8291,-2.8291,-2.8291,-2.8291,-2.8291,-2.8291,-2.8291,-2.8291,-2.8291,-2.8291,-2.8291,-2.8291,-2.8291,-2.8291,-2.8291,-2.8291,-2.9814,-3.0889,-3.0889,-3.0889,-3.0889,-3.0889,-3.0889,-3.0889,-3.0889,-3.0889,-3.0889,-3.0889,-3.0889,-3.0889,-3.0889,-3.6065,-3.9025,-3.9697,-3.9697,-3.9697,-3.9747,-4.1693,-4.2735,-0.1684,-0.2198,-0.2886,-0.3485,-0.4032,-0.4471,-0.4712,-0.48,-0.492,-0.5174,0.0,0.0,0.0,0.0,0.0,0.0,-0.9694,-1.0373,-0.9482,-1.0481,-1.139,-1.1601,-1.1699,-1.207,-1.3004,-1.2986,-1.3152,-1.3584,-1.3369,-1.365,-1.4662,-1.4339,-1.4441,-1.5186,-1.5389,-1.5726,-1.6401,-1.6366,-1.6985,-1.8264,-1.8404,-1.9093,-2.041,-2.0928,-2.1665,-2.2476,-2.293,-2.3628,-2.451,-2.451,-2.502,-2.5762,-2.6016,-2.6484,-2.707,-2.7568,-2.7988,-2.8291,-2.8291,-2.8291,-2.8291,-2.8291,-2.8291,-2.8291,-2.8291,-2.8291,-2.8291,-2.8291,-2.8291,-2.8291,-2.8291,-2.8291,-2.8291,-2.8291,-2.8291,-2.8291,-2.8291,-2.8291,-2.8291,-2.8291,-2.8291,-2.8291,-2.8291,-2.8291,-2.8291,-2.8291,-2.8291,-2.8291,-2.8291,-2.9814,-3.0889,-3.0889,-3.0889,-3.0889,-3.0889,-3.0889,-3.0889,-3.0889,-3.0889,-3.0889,-3.0889,-3.0889,-3.0889,-3.0889,-3.6715,-3.9697,-3.9697,-3.9697,-3.9697,-3.9722,-4.0639,-4.1756,-0.1453,-0.1775,-0.2296,-0.2873,-0.3633,-0.4289,-0.4544,-0.4443,-0.4388,-0.4712,-0.5318,0.0,0.0,0.0,-0.755,-0.7995,0.0,-0.9412,-0.9448,-1.058,-1.1404,-1.1367,-1.1711,-1.2072,0.0,-1.2741,-1.2995,-1.3049,-1.3414,-1.3767,-1.4232,-1.387,-1.3937,-1.4508,-1.4349,-1.4558,-1.5245,-1.5245,-1.5846,-1.6984,-1.727,-1.7822,-1.8518,-1.9487,-2.0191,-2.0603,-2.123,-2.2163,-2.3176,-2.3176,-2.3755,-2.4725,-2.5236,-2.5862,-2.672,-2.7775,-2.8193,-2.8291,-2.8291,-2.8291,-2.8291,-2.8291,-2.8291,-2.8291,-2.8291,-2.8291,-2.8291,-2.8291,-2.8291,-2.8291,-2.8291,-2.8291,-2.8291,-2.8291,-2.8291,-2.8291,-2.8291,-2.8291,-2.8291,-2.8291,-2.8291,-2.8291,-2.8291,-2.8291,-2.8291,-2.8291,-2.8291,-2.8291,-2.8291,-2.9814,-3.0889,-3.0889,-3.0889,-3.0889,-3.0889,-3.0889,-3.0889,-3.0889,-3.0889,-3.0889,-3.0889,-3.0889,-3.0889,-3.0889,-3.5079,-3.7275,-3.7275,-3.8921,-3.9697,-3.971,-4.0312,-4.1291,-0.0445,-0.0601,-0.089,-0.1432,-0.2553,-0.3851,-0.509,-0.5216,-0.5203,-0.5664,-0.5631,-0.5465,-0.528,-0.6158,-0.7027,-0.7375,-0.8371,0.0,0.0,-1.0369,-1.1256,-1.2149,-1.2605,-1.2436,0.0,-1.2358,-1.2994,0.0,-1.3557,-1.4185,-1.447,-1.4222,-1.4215,-1.4516,-1.4509,-1.4369,-1.4173,-1.4166,-1.4817,-1.6156,-1.5429,-1.6417,-1.8782,-1.8333,-1.9112,-2.0594,-2.0859,-2.1321,-2.1752,-2.1752,-2.1968,-2.2237,-2.2698,-2.3909,-2.5654,-2.7122,-2.7949,-2.8291,-2.8291,-2.8291,-2.8291,-2.8291,-2.8291,-2.8291,-2.8291,-2.8291,-2.8291,-2.8291,-2.8291,-2.8291,-2.8291,-2.8291,-2.8291,-2.8291,-2.8291,-2.8291,-2.8291,-2.8291,-2.8291,-2.8291,-2.8291,-2.8291,-2.8291,-2.8291,-2.8291,-2.8291,-2.8291,-2.8291,-2.8291,-2.9814,-3.0889,-3.0889,-3.0889,-3.0889,-3.0889,-3.0889,-3.0889,-3.0889,-3.0889,-3.0889,-3.0889,-3.0889,-3.0889,-3.0889,-3.1112,-3.1228,-3.1228,-3.6942,-3.9697,-3.9747,-4.1882,-4.2346,0.1799,0.0574,-0.082,-0.1262,-0.3279,-0.5141,-0.5086,-0.5551,-0.5997,-0.5829,-0.5781,-0.563,-0.5216,-0.5621,-0.6238,-0.6842,-0.7598,-0.8405,0.0,-1.0293,-1.0997,-1.1095,-1.1463,0.0,0.0,0.0,0.0,0.0,-1.4659,0.0,-1.5184,-1.4467,-1.4309,-1.4796,-1.4436,-1.428,-1.4368,-1.4179,-1.4433,-1.5046,-1.5053,-1.5575,-1.6577,-1.6845,-1.7182,-1.7782,-1.8311,-1.91,-2.0023,-2.0248,-2.106,-2.2149,-2.2503,-2.3178,-2.4187,-2.5973,-2.7387,-2.8291,-2.8291,-2.8291,-2.8291,-2.8291,-2.8291,-2.8291,-2.8291,-2.8291,-2.8291,-2.8291,-2.8291,-2.8291,-2.8291,-2.8291,-2.8291,-2.8291,-2.8291,-2.8291,-2.8291,-2.8291,-2.8291,-2.8291,-2.8291,-2.8291,-2.8291,-2.8291,-2.8291,-2.8291,-2.8291,-2.8711,-2.9863,-3.0527,-3.0889,-3.0889,-3.0889,-3.0889,-3.0889,-3.0889,-3.0889,-3.0889,-3.0889,-3.0889,-3.0889,-3.0889,-3.0889,-3.0889,-3.0889,-3.2768,-3.6715,-3.8699,-3.9697,-3.9747,-4.1957,-4.2773,0.4139,0.2993,0.1526,0.0468,-0.1466,-0.326,-0.3899,-0.4359,-0.483,-0.5451,-0.5563,-0.5384,-0.4869,-0.5098,-0.5626,-0.6494,-0.708,-0.795,0.0,-1.0312,-1.0732,-1.0629,-1.0814,0.0,0.0,0.0,0.0,0.0,0.0,0.0,0.0,-1.4767,-1.4826,-1.479,-1.4442,-1.4341,-1.4532,-1.4233,-1.4309,-1.4674,-1.492,-1.5186,-1.5565,-1.6052,-1.6333,-1.6453,-1.6941,-1.7709,-1.8628,-1.883,-1.9694,-2.0857,-2.1071,-2.1752,-2.2846,-2.4624,-2.6273,-2.7609,-2.8067,-2.8291,-2.8291,-2.8291,-2.8291,-2.8291,-2.8291,-2.8291,-2.8291,-2.8291,-2.8291,-2.8291,-2.8291,-2.8291,-2.8291,-2.8291,-2.8291,-2.8291,-2.8291,-2.8291,-2.8291,-2.8291,-2.8291,-2.8291,-2.8291,-2.8291,-2.8291,-2.8291,-2.8291,-2.8926,-3.0664,-3.0889,-3.0889,-3.0889,-3.0889,-3.0889,-3.0889,-3.0889,-3.0889,-3.0889,-3.0889,-3.0889,-3.0889,-3.0889,-3.0889,-3.0889,-3.0889,-3.3754,-3.9697,-3.9697,-3.9697,-3.9747,-4.1957,-4.2974]}]]